[[{"header":{"parameterUnit":"m.s-1","parameterCategory":1,"la1":30.6,"la2":28.766,"lo1":-90.7593,"lo2":-88.6598,"dy":0.0162,"dx":0.0183,"nx":116,"ny":114,"refTime":"2023-03-03T18:00:00:Z","depth":0,"parameterNumber":2,"parameterNumberName":"U-component_of_WINDS"},"data":[0.0,0.0,0.0,0.0,0.0,0.0,0.0,0.0,0.0,0.0,0.0,0.0,0.0,0.0,0.0,0.0,0.0,0.0,0.0,0.0,0.0,0.0,0.0,0.0,0.0,0.0,0.0,0.0,0.0,0.0,0.0,0.0,0.0,0.0,0.0,0.0,0.0,0.0,0.0,0.0,0.0,0.0,0.0,0.0,0.0,0.0,0.0,0.0,0.0,0.0,0.0,0.0,0.0,0.0,0.0,0.0,0.0,0.0,0.0,0.0,0.0,0.0,0.0,0.0,0.0,0.0,0.0,0.0,0.0,0.0,0.0,0.0,0.0,0.0,0.0,0.0,0.0,0.0,0.0,0.0,0.0,0.0,0.0,0.0,0.0,0.0,0.0,0.0,0.0,0.0,0.0,0.0,0.0,0.0,0.0,0.0,0.0,0.0,0.0,0.0,0.0,0.0,0.0,0.0,0.0,0.0,0.0,0.0,0.0,0.0,0.0,0.0,0.0,0.0,0.0,0.0,0.0,0.0,0.0,0.0,0.0,0.0,0.0,0.0,0.0,0.0,0.0,0.0,0.0,0.0,0.0,0.0,0.0,0.0,0.0,0.0,0.0,0.0,0.0,0.0,0.0,0.0,0.0,0.0,0.0,0.0,0.0,0.0,0.0,0.0,0.0,0.0,0.0,0.0,0.0,0.0,0.0,0.0,0.0,0.0,0.0,0.0,0.0,0.0,0.0,0.0,0.0,0.0,0.0,0.0,0.0,0.0,0.0,0.0,0.0,0.0,0.0,0.0,0.0,0.0,0.0,0.0,0.0,0.0,0.0,0.0,0.0,0.0,0.0,0.0,0.0,0.0,0.0,0.0,0.0,0.0,0.0,0.0,0.0,0.0,0.0,0.0,0.0,0.0,0.0,0.0,0.0,0.0,0.0,0.0,0.0,0.0,0.0,0.0,0.0,0.0,0.0,0.0,0.0,0.0,0.0,0.0,0.0,0.0,0.0,0.0,0.0,0.0,0.0,0.0,0.0,0.0,0.0,0.0,0.0,0.0,0.0,0.0,0.0,0.0,0.0,0.0,0.0,0.0,0.0,0.0,0.0,0.0,0.0,0.0,0.0,0.0,0.0,0.0,0.0,0.0,0.0,0.0,0.0,0.0,0.0,0.0,0.0,0.0,0.0,0.0,0.0,0.0,0.0,0.0,0.0,0.0,0.0,0.0,0.0,0.0,0.0,0.0,0.0,0.0,0.0,0.0,0.0,0.0,0.0,0.0,0.0,0.0,0.0,0.0,0.0,0.0,0.0,0.0,0.0,0.0,0.0,0.0,0.0,0.0,0.0,0.0,0.0,0.0,0.0,0.0,0.0,0.0,0.0,0.0,0.0,0.0,0.0,0.0,0.0,0.0,0.0,0.0,0.0,0.0,0.0,0.0,0.0,0.0,0.0,0.0,0.0,0.0,0.0,0.0,0.0,0.0,0.0,0.0,0.0,0.0,0.0,0.0,0.0,0.0,0.0,0.0,0.0,0.0,0.0,0.0,0.0,0.0,0.0,0.0,0.0,0.0,0.0,0.0,0.0,0.0,0.0,0.0,0.0,0.0,0.0,0.0,0.0,0.0,0.0,0.0,0.0,0.0,0.0,0.0,0.0,0.0,0.0,0.0,0.0,0.0,0.0,0.0,0.0,0.0,0.0,0.0,0.0,0.0,0.0,0.0,0.0,0.0,0.0,0.0,0.0,0.0,0.0,0.0,0.0,0.0,0.0,0.0,0.0,0.0,0.0,0.0,0.0,0.0,0.0,0.0,0.0,0.0,0.0,0.0,0.0,0.0,0.0,0.0,0.0,0.0,0.0,0.0,0.0,0.0,0.0,0.0,0.0,0.0,0.0,0.0,0.0,0.0,0.0,0.0,0.0,0.0,0.0,0.0,0.0,0.0,0.0,0.0,0.0,0.0,0.0,0.0,0.0,0.0,0.0,0.0,0.0,0.0,0.0,0.0,0.0,0.0,0.0,0.0,0.0,0.0,0.0,0.0,0.0,0.0,0.0,0.0,0.0,0.0,0.0,0.0,0.0,0.0,0.0,0.0,0.0,0.0,0.0,0.0,0.0,0.0,0.0,0.0,0.0,0.0,0.0,0.0,0.0,0.0,0.0,0.0,0.0,0.0,0.0,0.0,0.0,0.0,0.0,0.0,0.0,0.0,0.0,0.0,0.0,0.0,0.0,0.0,0.0,0.0,0.0,0.0,0.0,0.0,0.0,0.0,0.0,0.0,0.0,0.0,0.0,0.0,0.0,0.0,0.0,0.0,0.0,0.0,0.0,0.0,0.0,0.0,0.0,0.0,0.0,0.0,0.0,0.0,0.0,0.0,0.0,0.0,0.0,0.0,0.0,0.0,0.0,0.0,0.0,0.0,0.0,0.0,0.0,0.0,0.0,0.0,0.0,0.0,0.0,0.0,0.0,0.0,0.0,0.0,0.0,0.0,0.0,0.0,0.0,0.0,0.0,0.0,0.0,0.0,0.0,0.0,0.0,0.0,0.0,0.0,0.0,0.0,0.0,0.0,0.0,0.0,0.0,0.0,0.0,0.0,0.0,0.0,0.0,0.0,0.0,0.0,0.0,0.0,0.0,0.0,0.0,0.0,0.0,0.0,0.0,0.0,0.0,0.0,0.0,0.0,0.0,0.0,0.0,0.0,0.0,0.0,0.0,0.0,0.0,0.0,0.0,0.0,0.0,0.0,0.0,0.0,0.0,0.0,0.0,0.0,0.0,0.0,0.0,0.0,0.0,0.0,0.0,0.0,0.0,0.0,0.0,0.0,0.0,0.0,0.0,0.0,0.0,0.0,0.0,0.0,0.0,0.0,0.0,0.0,0.0,0.0,0.0,0.0,0.0,0.0,0.0,0.0,0.0,0.0,0.0,0.0,0.0,0.0,0.0,0.0,0.0,0.0,0.0,0.0,0.0,0.0,0.0,0.0,0.0,0.0,0.0,0.0,0.0,0.0,0.0,0.0,0.0,0.0,0.0,0.0,0.0,0.0,0.0,0.0,0.0,0.0,0.0,0.0,0.0,0.0,0.0,0.0,0.0,0.0,0.0,0.0,0.0,0.0,0.0,0.0,0.0,0.0,0.0,0.0,0.0,0.0,0.0,0.0,0.0,0.0,0.0,0.0,0.0,0.0,0.0,0.0,0.0,0.0,0.0,0.0,0.0,0.0,0.0,0.0,0.0,0.0,0.0,0.0,0.0,0.0,0.0,0.0,0.0,0.0,0.0,0.0,0.0,0.0,0.0,0.0,0.0,0.0,0.0,0.0,0.0,0.0,0.0,0.0,0.0,0.0,0.0,0.0,0.0,0.0,0.0,0.0,0.0,0.0,0.0,0.0,0.0,0.0,0.0,0.0,0.0,0.0,0.0,0.0,0.0,0.0,0.0,0.0,0.0,0.0,0.0,0.0,0.0,0.0,0.0,0.0,0.0,0.0,0.0,0.0,0.0,0.0,0.0,0.0,0.0,0.0,0.0,0.0,0.0,0.0,0.0,0.0,0.0,0.0,0.0,0.0,0.0,0.0,0.0,0.0,0.0,0.0,0.0,0.0,0.0,0.0,0.0,0.0,0.0,0.0,0.0,0.0,0.0,0.0,0.0,0.0,0.0,0.0,0.0,0.0,0.0,0.0,0.0,0.0,0.0,0.0,0.0,0.0,0.0,0.0,0.0,0.0,0.0,0.0,0.0,0.0,0.0,0.0,0.0,0.0,0.0,0.0,0.0,0.0,0.0,0.0,0.0,0.0,0.0,0.0,0.0,0.0,0.0,0.0,0.0,0.0,0.0,0.0,0.0,0.0,0.0,0.0,0.0,0.0,0.0,0.0,0.0,0.0,0.0,0.0,0.0,0.0,0.0,0.0,0.0,0.0,0.0,0.0,0.0,0.0,0.0,0.0,0.0,0.0,0.0,0.0,0.0,0.0,0.0,0.0,0.0,0.0,0.0,0.0,0.0,0.0,0.0,0.0,0.0,0.0,0.0,0.0,0.0,0.0,0.0,0.0,0.0,0.0,0.0,0.0,0.0,0.0,0.0,0.0,0.0,0.0,0.0,0.0,0.0,0.0,0.0,0.0,0.0,0.0,0.0,0.0,0.0,0.0,0.0,0.0,0.0,0.0,0.0,0.0,0.0,0.0,0.0,0.0,0.0,0.0,0.0,0.0,0.0,0.0,0.0,0.0,0.0,0.0,0.0,0.0,0.0,0.0,0.0,0.0,0.0,0.0,0.0,0.0,0.0,0.0,0.0,0.0,0.0,0.0,0.0,0.0,0.0,0.0,0.0,0.0,0.0,0.0,0.0,0.0,0.0,0.0,0.0,0.0,0.0,0.0,0.0,0.0,0.0,0.0,0.0,0.0,0.0,0.0,0.0,0.0,0.0,0.0,0.0,0.0,0.0,0.0,0.0,0.0,0.0,0.0,0.0,0.0,0.0,0.0,0.0,0.0,0.0,0.0,0.0,0.0,0.0,0.0,0.0,0.0,0.0,0.0,0.0,0.0,0.0,0.0,0.0,0.0,0.0,0.0,0.0,0.0,0.0,0.0,0.0,0.0,0.0,0.0,0.0,0.0,0.0,0.0,0.0,0.0,0.0,0.0,0.0,0.0,0.0,0.0,0.0,0.0,0.0,0.0,0.0,0.0,0.0,0.0,0.0,0.0,0.0,0.0,0.0,0.0,0.0,0.0,0.0,0.0,0.0,0.0,0.0,0.0,0.0,0.0,0.0,0.0,0.0,0.0,0.0,0.0,0.0,0.0,0.0,0.0,0.0,0.0,0.0,0.0,0.0,0.0,0.0,0.0,0.0,0.0,0.0,0.0,0.0,0.0,0.0,0.0,0.0,0.0,0.0,0.0,0.0,0.0,0.0,0.0,0.0,0.0,0.0,0.0,0.0,0.0,0.0,0.0,0.0,0.0,0.0,0.0,0.0,0.0,0.0,0.0,0.0,0.0,0.0,0.0,0.0,0.0,0.0,0.0,0.0,0.0,0.0,0.0,0.0,0.0,0.0,0.0,0.0,0.0,0.0,0.0,0.0,0.0,0.0,0.0,0.0,0.0,0.0,0.0,0.0,0.0,0.0,0.0,0.0,0.0,0.0,0.0,0.0,0.0,0.0,0.0,0.0,0.0,0.0,0.0,0.0,0.0,0.0,0.0,0.0,0.0,0.0,0.0,0.0,0.0,0.0,0.0,0.0,0.0,0.0,0.0,0.0,0.0,0.0,0.0,0.0,0.0,0.0,0.0,0.0,0.0,0.0,0.0,0.0,0.0,0.0,0.0,0.0,0.0,0.0,0.0,0.0,0.0,0.0,0.0,0.0,0.0,0.0,0.0,0.0,0.0,0.0,0.0,0.0,0.0,0.0,0.0,0.0,0.0,0.0,0.0,0.0,0.0,0.0,0.0,0.0,0.0,0.0,0.0,0.0,0.0,0.0,0.0,0.0,0.0,0.0,0.0,0.0,0.0,0.0,0.0,0.0,0.0,0.0,0.0,0.0,0.0,0.0,0.0,0.0,0.0,0.0,0.0,0.0,0.0,0.0,0.0,0.0,0.0,0.0,0.0,0.0,0.0,0.0,0.0,0.0,0.0,0.0,0.0,0.0,0.0,0.0,0.0,0.0,0.0,0.0,0.0,0.0,0.0,0.0,0.0,0.0,0.0,0.0,0.0,0.0,0.0,0.0,0.0,0.0,0.0,0.0,0.0,0.0,0.0,0.0,0.0,0.0,0.0,0.0,0.0,0.0,0.0,0.0,0.0,0.0,0.0,0.0,0.0,0.0,0.0,0.0,0.0,0.0,0.0,0.0,0.0,0.0,0.0,0.0,0.0,0.0,0.0,0.0,0.0,0.0,0.0,0.0,0.0,0.0,0.0,0.0,0.0,0.0,0.0,0.0,0.0,0.0,0.0,0.0,0.0,0.0,0.0,0.0,0.0,0.0,0.0,0.0,0.0,0.0,0.0,0.0,0.0,0.0,0.0,0.0,0.0,0.0,0.0,0.0,0.0,0.0,0.0,0.0,0.0,0.0,0.0,0.0,0.0,0.0,0.0,0.0,0.0,0.0,0.0,-3.4873,0.0,0.0,0.0,0.0,0.0,0.0,0.0,0.0,0.0,0.0,0.0,0.0,0.0,0.0,0.0,0.0,0.0,0.0,0.0,0.0,0.0,0.0,0.0,0.0,0.0,0.0,0.0,0.0,0.0,0.0,0.0,0.0,0.0,0.0,0.0,0.0,0.0,0.0,0.0,0.0,0.0,0.0,0.0,0.0,0.0,0.0,0.0,0.0,0.0,0.0,0.0,0.0,0.0,0.0,0.0,0.0,0.0,0.0,0.0,0.0,0.0,0.0,0.0,0.0,0.0,0.0,0.0,0.0,0.0,0.0,0.0,0.0,0.0,0.0,0.0,0.0,0.0,0.0,0.0,0.0,0.0,0.0,0.0,0.0,0.0,0.0,0.0,0.0,0.0,0.0,0.0,0.0,0.0,0.0,0.0,0.0,0.0,0.0,0.0,0.0,0.0,0.0,0.0,0.0,0.0,0.0,0.0,0.0,0.0,0.0,0.0,0.0,0.0,0.0,0.0,0.0,-3.5552,0.0,0.0,0.0,0.0,0.0,0.0,0.0,0.0,0.0,0.0,0.0,0.0,0.0,0.0,0.0,0.0,0.0,0.0,0.0,0.0,0.0,0.0,0.0,0.0,0.0,0.0,0.0,0.0,0.0,0.0,0.0,0.0,0.0,0.0,0.0,0.0,0.0,0.0,0.0,0.0,0.0,0.0,0.0,0.0,0.0,0.0,0.0,0.0,0.0,0.0,0.0,0.0,0.0,0.0,0.0,0.0,0.0,0.0,0.0,0.0,0.0,0.0,0.0,0.0,0.0,0.0,0.0,0.0,0.0,0.0,0.0,0.0,0.0,0.0,0.0,0.0,0.0,0.0,0.0,0.0,0.0,0.0,0.0,0.0,0.0,0.0,0.0,0.0,0.0,0.0,0.0,0.0,0.0,0.0,0.0,0.0,0.0,0.0,0.0,0.0,0.0,0.0,0.0,0.0,0.0,0.0,0.0,0.0,-3.6342,-3.6582,-3.6598,-3.7212,-3.751,-3.7447,-3.6276,-3.6435,-3.7462,-3.6848,0.0,0.0,0.0,0.0,0.0,0.0,0.0,0.0,0.0,0.0,0.0,0.0,0.0,0.0,0.0,0.0,0.0,0.0,0.0,0.0,0.0,0.0,-3.289,-3.2811,-3.2589,0.0,0.0,0.0,0.0,0.0,0.0,0.0,0.0,0.0,0.0,0.0,0.0,0.0,-3.3281,-3.3871,-3.4149,-3.4137,-3.2932,0.0,0.0,0.0,0.0,0.0,0.0,0.0,0.0,0.0,0.0,0.0,0.0,0.0,0.0,0.0,0.0,0.0,0.0,0.0,0.0,0.0,0.0,0.0,0.0,0.0,0.0,0.0,0.0,0.0,0.0,0.0,0.0,0.0,0.0,0.0,0.0,0.0,0.0,0.0,0.0,0.0,0.0,0.0,-3.1081,-3.1081,0.0,0.0,0.0,0.0,0.0,0.0,0.0,0.0,0.0,0.0,0.0,0.0,0.0,-3.5584,-3.625,-3.6266,-3.6595,-3.7225,-3.732,-3.7338,-3.7368,-3.7462,-3.751,-3.7494,-3.7304,0.0,-3.7494,-3.7415,0.0,0.0,0.0,0.0,0.0,0.0,0.0,0.0,0.0,0.0,0.0,0.0,0.0,0.0,0.0,0.0,0.0,0.0,0.0,0.0,0.0,0.0,-3.3438,-3.2641,-3.3419,-3.3527,0.0,0.0,0.0,0.0,0.0,0.0,0.0,0.0,0.0,0.0,-3.312,-3.3595,-3.4124,-3.4437,-3.4595,-3.4597,-3.3967,-3.3808,-3.3978,-3.3633,0.0,0.0,0.0,0.0,0.0,0.0,0.0,0.0,0.0,0.0,0.0,0.0,0.0,0.0,0.0,0.0,0.0,0.0,0.0,0.0,0.0,0.0,0.0,0.0,0.0,0.0,0.0,0.0,0.0,0.0,0.0,0.0,0.0,0.0,0.0,0.0,0.0,0.0,0.0,-3.127,-3.1365,-3.176,-3.1833,-3.1833,0.0,0.0,0.0,0.0,0.0,0.0,0.0,0.0,0.0,-3.5947,-3.5963,-3.6311,-3.7006,-3.7022,-3.718,-3.751,-3.751,-3.751,-3.751,-3.751,-3.751,-3.751,-3.751,-3.751,-3.751,-3.751,-3.751,-3.751,0.0,0.0,0.0,0.0,-3.751,-3.751,0.0,0.0,0.0,0.0,0.0,0.0,0.0,0.0,0.0,0.0,0.0,0.0,-3.3622,-3.4135,-3.4137,-3.3193,-3.4229,-3.4372,-3.3073,0.0,0.0,0.0,0.0,0.0,0.0,0.0,0.0,-3.3403,-3.3806,-3.4333,-3.4949,-3.5179,-3.5285,-3.5247,-3.5267,-3.5087,-3.4727,-3.4071,-3.3773,0.0,0.0,0.0,0.0,0.0,0.0,0.0,0.0,0.0,0.0,0.0,0.0,0.0,0.0,0.0,0.0,0.0,0.0,0.0,0.0,0.0,0.0,0.0,0.0,0.0,0.0,0.0,0.0,0.0,0.0,0.0,0.0,0.0,0.0,0.0,0.0,0.0,0.0,-3.1966,-3.195,-3.2497,-3.256,-3.2623,0.0,0.0,0.0,0.0,0.0,0.0,-3.4826,-3.5363,-3.5979,-3.6674,-3.669,-3.6943,-3.7494,-3.751,-3.751,-3.751,-3.751,-3.751,-3.751,-3.751,-3.751,-3.751,-3.751,-3.751,-3.751,-3.751,-3.751,-3.751,-3.751,-3.751,-3.751,-3.751,-3.751,-3.751,0.0,0.0,0.0,0.0,0.0,0.0,0.0,0.0,0.0,0.0,0.0,-3.3954,-3.438,-3.4477,-3.4645,-3.5023,-3.4522,-3.4282,-3.4566,0.0,0.0,0.0,0.0,0.0,0.0,0.0,0.0,-3.3403,-3.493,-3.5684,-3.5677,-3.6492,-3.6825,-3.6706,-3.6825,-3.6443,-3.5687,-3.4951,-3.4635,-3.4635,0.0,0.0,0.0,0.0,0.0,0.0,0.0,0.0,0.0,0.0,0.0,0.0,0.0,0.0,0.0,0.0,0.0,0.0,0.0,0.0,0.0,0.0,0.0,0.0,0.0,0.0,0.0,0.0,0.0,0.0,0.0,0.0,0.0,0.0,0.0,0.0,0.0,0.0,0.0,-3.3245,-3.3245,0.0,0.0,0.0,0.0,-3.5236,-3.5315,-3.5616,-3.625,-3.6329,-3.6706,-3.7431,-3.7447,-3.7478,-3.751,-3.751,-3.751,-3.751,-3.751,-3.751,-3.751,-3.751,-3.751,-3.751,-3.751,-3.751,-3.751,-3.751,-3.751,-3.751,-3.751,-3.751,-3.751,-3.751,-3.751,-3.751,0.0,0.0,0.0,0.0,0.0,0.0,0.0,0.0,0.0,-3.4833,-3.47,-3.4825,-3.5513,-3.5866,-3.5816,-3.5254,-3.5881,-3.583,-3.476,0.0,0.0,0.0,0.0,0.0,0.0,0.0,-3.4155,-3.4871,-3.5451,-3.5937,-3.6362,-3.6664,-3.6788,-3.6809,-3.6849,-3.677,-3.6513,-3.5741,-3.4846,-3.3932,-3.3932,-3.3757,0.0,0.0,0.0,0.0,0.0,0.0,0.0,0.0,0.0,0.0,0.0,0.0,0.0,0.0,0.0,0.0,0.0,0.0,0.0,0.0,0.0,0.0,0.0,0.0,0.0,0.0,0.0,0.0,0.0,0.0,0.0,0.0,0.0,0.0,0.0,0.0,0.0,-3.3878,-3.3941,0.0,-3.4936,-3.4999,-3.511,-3.5379,-3.5805,-3.614,-3.6393,-3.6864,-3.7227,-3.7494,-3.751,-3.7701,-3.8144,-3.8144,-3.8365,-3.8792,-3.8792,-3.8792,-3.8792,-3.8792,-3.8792,-3.8792,-3.8792,-3.8792,-3.8792,-3.8792,-3.8301,-3.751,-3.751,-3.751,-3.751,-3.751,-3.751,-3.751,0.0,0.0,0.0,0.0,0.0,0.0,0.0,0.0,0.0,-3.4864,-3.5069,-3.5436,-3.6111,-3.6711,-3.6828,-3.6229,-3.6755,-3.6541,-3.5145,0.0,0.0,0.0,0.0,0.0,0.0,-3.4277,-3.4942,-3.5731,-3.5935,-3.6257,-3.6702,-3.6702,-3.6705,-3.6708,-3.6768,-3.6849,-3.6913,-3.6406,-3.5459,-3.4248,-3.4003,-3.4056,-3.4284,0.0,0.0,0.0,0.0,0.0,0.0,0.0,0.0,0.0,0.0,0.0,0.0,0.0,0.0,0.0,0.0,0.0,0.0,0.0,0.0,0.0,0.0,0.0,0.0,0.0,0.0,0.0,0.0,0.0,0.0,0.0,0.0,0.0,0.0,0.0,-3.3893,-3.4573,-3.4668,-3.4936,-3.5679,-3.5742,-3.5837,-3.6102,-3.6516,-3.6785,-3.6785,-3.7449,-3.7828,-3.7828,-3.8079,-3.8381,-3.8839,-3.8855,-3.906,-3.9503,-3.9503,-3.9503,-3.9503,-3.9503,-3.9503,-3.9503,-3.9503,-3.9503,-3.9503,-3.9503,-3.8981,-3.816,-3.816,-3.816,-3.816,-3.816,-3.816,-3.816,0.0,0.0,0.0,0.0,0.0,0.0,0.0,0.0,0.0,-3.3879,-3.4844,-3.5723,-3.6195,-3.6949,-3.7603,-3.8046,-3.7056,-3.6238,-3.583,-3.5127,0.0,0.0,0.0,0.0,-3.4574,-3.5987,-3.6466,-3.5827,-3.6437,-3.6737,-3.6737,-3.6754,-3.6692,-3.6572,-3.6777,-3.6861,-3.6843,-3.6983,-3.6566,-3.5757,-3.5021,-3.5162,-3.5792,0.0,0.0,0.0,0.0,0.0,0.0,0.0,0.0,0.0,0.0,0.0,0.0,0.0,0.0,0.0,0.0,0.0,0.0,0.0,0.0,0.0,0.0,0.0,0.0,0.0,0.0,0.0,0.0,0.0,0.0,0.0,0.0,0.0,-3.4257,-3.4304,-3.4604,-3.5331,-3.5426,-3.5695,-3.6393,-3.6472,-3.674,-3.7494,-3.7557,-3.7557,-3.7541,-3.8175,-3.8539,-3.8539,-3.9171,-3.9518,-3.9534,-3.9534,-3.9534,-3.9566,-3.9566,-3.9566,-3.9566,-3.9566,-3.9566,-3.9566,-3.9566,-3.9566,-3.9566,-3.9566,-3.9566,-3.9566,-3.9518,-3.9503,-3.9503,-3.9503,-3.9503,-3.9503,0.0,0.0,0.0,0.0,0.0,0.0,0.0,0.0,-3.4396,-3.4964,-3.5812,-3.6562,-3.7015,-3.7559,-3.7848,-3.7685,-3.7161,-3.6543,-3.5864,0.0,0.0,0.0,0.0,0.0,-3.5421,-3.5819,-3.6164,-3.6516,-3.7081,-3.7359,-3.7359,-3.7845,-3.8122,-3.8166,-3.8338,-3.8126,-3.7665,-3.7752,-3.7356,-3.6584,-3.5811,-3.5617,-3.574,0.0,0.0,0.0,0.0,0.0,0.0,0.0,0.0,0.0,0.0,0.0,0.0,0.0,0.0,0.0,0.0,0.0,0.0,0.0,0.0,0.0,0.0,0.0,0.0,0.0,0.0,0.0,0.0,0.0,0.0,0.0,0.0,-3.3577,-3.3577,-3.4446,-3.5347,-3.6029,-3.6137,-3.6611,-3.7828,-3.7908,-3.8017,-3.8207,-3.8681,-3.8744,-3.8254,-3.8871,-3.9234,-3.9234,-3.9408,-3.9756,-4.0293,-4.0293,-4.0546,-4.102,-4.102,-4.102,-4.102,-4.102,-4.102,-4.102,-4.102,-4.102,-4.102,-4.102,-4.102,-4.0909,-3.9898,-3.9503,-3.9503,-3.9503,-3.9503,-3.9503,0.0,0.0,0.0,0.0,0.0,0.0,0.0,0.0,-3.4383,-3.4897,-3.5974,-3.6753,-3.6872,-3.7626,-3.7821,-3.7113,-3.6709,-3.6022,-3.4916,0.0,0.0,0.0,0.0,-3.5213,-3.5792,-3.6007,-3.6529,-3.7344,-3.7547,-3.7845,-3.8225,-3.8608,-3.8811,-3.8894,-3.899,-3.8827,-3.8472,-3.8558,-3.8357,-3.7883,-3.7093,-3.6584,-3.6215,-3.5443,-3.5636,-3.625,-3.583,-3.5934,-3.6233,-3.5813,0.0,0.0,0.0,0.0,0.0,0.0,0.0,0.0,0.0,0.0,0.0,0.0,0.0,0.0,0.0,0.0,0.0,0.0,0.0,0.0,0.0,0.0,0.0,0.0,-3.4051,-3.4178,-3.4178,-3.5126,-3.609,-3.6785,-3.7117,-3.7593,-3.8428,-3.876,-3.8934,-3.8934,-3.9281,-3.9329,-3.895,-3.9582,-3.9961,-3.9961,-4.023,-4.0577,-4.1004,-4.102,-4.1209,-4.1588,-4.1588,-4.1588,-4.1588,-4.1588,-4.1588,-4.1588,-4.1588,-4.1588,-4.1588,-4.1588,-4.1588,0.0,0.0,0.0,0.0,0.0,-4.0372,-4.0372,0.0,0.0,0.0,0.0,0.0,0.0,0.0,0.0,-3.4197,-3.4197,-3.5646,-3.653,-3.6101,-3.7192,-3.7533,-3.647,-3.5986,-3.513,0.0,0.0,0.0,-3.3793,-3.576,-3.6566,-3.5933,-3.6527,-3.726,-3.8111,-3.8011,-3.8399,-3.9241,-3.9238,-3.9247,-3.9247,-3.9338,-3.9311,-3.9241,-3.9385,-3.9392,-3.9231,-3.8532,-3.7795,-3.7042,-3.6145,-3.625,-3.6849,-3.6779,-3.6796,-3.6867,-3.6867,0.0,0.0,0.0,0.0,0.0,0.0,0.0,0.0,0.0,0.0,0.0,0.0,0.0,0.0,0.0,0.0,0.0,0.0,0.0,0.0,0.0,0.0,0.0,0.0,-3.4573,-3.5473,-3.571,-3.6279,-3.6896,-3.7512,-3.8207,-3.8665,-3.8744,-3.9281,-3.9629,-3.9629,-3.9692,-3.9708,-3.9629,0.0,0.0,0.0,0.0,-4.1588,-4.1588,-4.1667,-4.1715,-4.1715,-4.1794,-4.1825,-4.1825,-4.1825,-4.1825,-4.1825,-4.1825,-4.1825,-4.1825,-4.1825,-4.1825,-4.181,-4.1652,-4.1588,-4.1588,-4.1588,-4.1588,-4.1588,0.0,0.0,0.0,0.0,0.0,0.0,0.0,0.0,-3.4197,-3.4197,-3.5646,-3.629,-3.5247,-3.6334,-3.6901,-3.6363,-3.5634,-3.5101,0.0,0.0,-3.4214,-3.532,-3.5794,-3.6268,-3.6761,-3.7393,-3.7866,-3.8111,-3.912,-3.9774,-4.008,-4.0563,-4.0774,-4.0774,-4.0904,-4.0617,-4.008,-4.021,-3.9884,-3.9284,-3.9126,-3.8602,-3.7725,-3.6319,-3.5897,-3.5952,-3.5355,-3.553,-3.602,-3.602,-3.6355,-3.6779,-3.6779,-3.632,0.0,0.0,0.0,0.0,0.0,0.0,0.0,0.0,0.0,0.0,0.0,0.0,0.0,0.0,0.0,0.0,0.0,0.0,0.0,-3.4837,-3.5205,-3.5979,-3.767,-3.8017,-3.816,-3.8302,-3.8902,-3.9534,-4.0151,-4.0309,-4.0388,-4.0388,-4.0893,-4.0956,-4.0419,-4.1035,-4.1399,-4.1399,-4.1525,-4.1588,-4.1588,-4.2173,-4.2473,-4.2473,0.0,0.0,-4.3298,-4.3295,-4.3276,-4.3276,-4.3276,-4.3276,-4.3276,-4.3276,-4.3276,-4.32,-4.2031,-4.1588,-4.1588,-4.1588,-4.1588,-4.1588,0.0,0.0,0.0,0.0,0.0,0.0,0.0,0.0,-3.4197,-3.4197,-3.5324,-3.579,-3.499,-3.5889,-3.6322,-3.5756,-3.4853,0.0,0.0,-3.4482,-3.46,-3.574,-3.6197,-3.6759,-3.7532,-3.7854,-3.8429,-3.9287,-3.9905,-4.046,-4.0972,-4.1256,-4.1408,-4.1408,-4.1453,-4.1305,-4.0955,-4.1021,-4.0814,-4.0428,-4.0042,-3.9656,-3.9129,-3.7549,-3.695,-3.6845,-3.6129,-3.6075,-3.6391,-3.6391,-3.6391,-3.6391,-3.6391,-3.6127,-3.5792,0.0,0.0,0.0,0.0,0.0,0.0,0.0,0.0,0.0,0.0,0.0,0.0,0.0,0.0,-3.4197,-3.4358,0.0,-3.4257,-3.5679,-3.62,-3.6927,-3.8318,-3.9123,-3.9424,-3.9044,-3.9629,-4.0198,-4.0561,-4.0893,-4.1099,-4.1099,-4.1399,-4.1446,-4.1114,-4.1415,-4.1588,-4.1588,-4.1952,-4.2141,-4.2141,-4.2853,-4.32,-4.3219,-4.3548,-4.3722,-4.3706,-4.3722,-4.3687,-4.3687,-4.3687,-4.3687,-4.3687,-4.3687,-4.3687,-4.3608,-4.2916,-4.2647,-4.2663,-4.2663,-4.2647,-4.2631,0.0,0.0,0.0,0.0,0.0,0.0,0.0,0.0,0.0,0.0,-3.4971,-3.5316,-3.483,-3.5477,-3.572,0.0,0.0,0.0,0.0,-3.5208,-3.5325,-3.6004,-3.6636,-3.7288,-3.7865,-3.8135,-3.8905,-4.0274,-4.0464,-4.092,-4.1604,-4.1604,-4.1604,-4.1604,-4.1604,-4.1604,-4.1604,-4.1604,-4.1604,-4.1552,-4.0937,-4.0625,-4.0344,-3.8883,-3.8251,-3.8006,-3.7271,-3.7007,-3.7007,-3.7007,-3.6566,-3.602,-3.602,-3.5915,-3.5704,-3.5267,-3.5936,0.0,0.0,0.0,0.0,0.0,0.0,0.0,0.0,-3.5898,-3.6066,-3.4924,-3.4813,-3.4936,-3.5052,-3.5085,-3.5452,-3.6591,-3.7417,-3.8164,-3.8959,-3.9945,-4.0435,-3.9961,-4.0435,-4.0798,-4.0798,-4.1272,-4.1588,-4.1588,-4.1588,-4.1588,-4.1588,-4.1731,-4.181,-4.181,-4.2521,-4.2884,-4.2884,-4.3564,-4.3895,-4.388,-4.4053,-4.4097,-4.4097,-4.4097,-4.4097,-4.4097,-4.4097,-4.4097,-4.4097,-4.4097,-4.4097,-4.4097,-4.4101,-4.4101,-4.4066,-4.3782,-4.3706,-4.3709,0.0,0.0,0.0,0.0,0.0,0.0,0.0,0.0,0.0,0.0,0.0,0.0,0.0,0.0,0.0,0.0,0.0,0.0,-3.6557,-3.6359,-3.6415,-3.6851,-3.6954,-3.7042,-3.713,-3.8459,-3.9249,-3.9424,-4.0793,-4.1494,-4.1604,-4.1604,-4.1604,-4.1604,-4.1604,-4.1604,-4.1604,-4.1604,-4.1604,-4.1604,-4.1516,-4.1078,-4.0397,-3.9515,-3.8725,-3.8006,-3.7271,-3.7007,-3.7007,-3.7007,-3.6937,-3.6867,-3.6867,-3.6373,-3.5915,-3.6568,-3.6355,-3.6057,-3.6603,-3.5813,-3.4635,-3.3951,-3.4302,-3.4635,0.0,-3.4579,-3.5246,-3.4772,-3.5052,-3.5275,-3.5068,-3.657,-3.7923,-3.8135,-3.8755,-3.9634,-4.0958,-4.0848,-4.0783,-4.1288,-4.143,-4.1478,-4.1478,-4.1541,-4.1588,-4.1588,-4.1588,-4.1588,-4.1588,-4.2205,-4.2568,-4.2568,-4.3248,-4.3576,-4.3576,-4.4259,-4.4606,-4.4606,-4.5254,-4.5586,-4.5586,-4.5586,-4.5586,-4.5586,-4.5586,-4.5586,-4.5586,-4.5586,-4.5586,-4.5586,-4.557,-4.5586,-4.5428,-4.4145,-4.3706,-4.3709,0.0,0.0,0.0,0.0,0.0,0.0,0.0,0.0,0.0,0.0,0.0,0.0,0.0,0.0,0.0,0.0,0.0,0.0,-3.7054,-3.6188,-3.6132,-3.7229,-3.7089,-3.72,-3.7619,-3.8269,-3.8827,-3.9284,-3.9954,-4.027,-4.027,-4.0744,-4.0955,-4.0972,-4.1411,-4.1604,-4.1604,-4.1604,-4.1341,-4.0955,-4.0955,-4.0481,-3.9708,-3.8918,-3.8371,-3.8006,-3.7271,-3.7007,0.0,0.0,-3.7007,-3.7007,-3.7007,-3.6779,-3.6461,-3.6338,-3.6391,-3.6373,-3.5813,-3.5198,-3.4636,-3.4285,-3.5128,-3.5953,-3.5601,-3.6529,-3.7321,-3.6745,-3.6847,-3.7113,-3.7344,-3.7878,-3.8444,0.0,-3.9557,-4.0337,-4.1371,-4.1342,-4.1549,-4.2567,-4.2412,-4.2029,-4.1654,-4.1964,-4.2029,-4.1621,-4.1964,-4.2221,-4.2238,-4.2521,-4.2868,-4.3279,-4.3943,-4.4255,-4.4255,-4.5001,-4.5349,-4.5349,-4.5665,-4.5807,-4.5807,-4.5807,-4.5807,-4.5807,-4.5807,-4.5807,-4.5807,-4.5807,-4.5807,-4.5807,-4.5807,-4.5807,-4.5744,-4.5159,-4.4938,-4.4922,0.0,0.0,0.0,0.0,0.0,0.0,0.0,0.0,0.0,0.0,0.0,0.0,0.0,0.0,0.0,0.0,0.0,0.0,0.0,-3.6216,-3.616,-3.7131,-3.7156,-3.7334,-3.7777,-3.8006,-3.8433,-3.9135,-3.9347,-3.9435,-3.9453,-4.0038,-4.0257,-4.0204,-4.0727,-4.102,-4.111,-4.111,-4.0793,-4.032,-4.032,-3.9761,-3.8863,-3.8111,-3.7795,-3.7725,-3.72,-3.7007,0.0,0.0,-3.7007,-3.7007,-3.7007,-3.7007,-3.6884,-3.6303,-3.6531,-3.6761,-3.5655,-3.5162,-3.5056,-3.5286,-3.6182,-3.706,-3.7271,-3.824,-3.8953,-3.8477,-3.8607,-3.8854,-3.9129,-3.9141,-3.9336,-4.0083,-4.0767,-4.1458,-4.2222,-4.2407,-4.2716,-4.341,-4.3092,-4.2663,-4.2158,-4.2569,-4.2569,-4.1932,-4.2494,-4.2832,-4.2697,-4.3042,-4.3469,-4.394,-4.4654,-4.5017,-4.5017,-4.5539,-4.5807,-4.5807,-4.5807,-4.5807,-4.5807,-4.5807,-4.5807,-4.5807,-4.5807,-4.5807,-4.5807,-4.5807,-4.5807,-4.5807,-4.5807,-4.5807,-4.5807,-4.5807,-4.5807,-4.5807,0.0,0.0,0.0,0.0,0.0,0.0,0.0,0.0,0.0,0.0,0.0,0.0,0.0,0.0,0.0,0.0,0.0,0.0,0.0,-3.6919,-3.7014,-3.6363,-3.7059,-3.7338,-3.7042,-3.7725,-3.8311,-3.8734,-3.9429,-3.9786,-3.9804,-3.9822,-3.9658,-3.9336,-3.9354,-3.9567,-3.9838,-3.9838,-3.9838,-3.9802,-3.9802,-3.9142,-3.8058,-3.7323,-3.7042,-3.7042,-3.7007,0.0,0.0,0.0,-3.7007,-3.7007,-3.7007,-3.7007,-3.7007,-3.6972,-3.6989,-3.6989,-3.6937,-3.6355,-3.5933,-3.6744,-3.6972,-3.72,-3.79,-3.8607,-3.9142,-3.9307,-3.9829,-4.0066,-3.9504,-4.0324,-4.1339,-4.2096,-4.2774,-4.3489,-4.4294,-4.4528,-4.434,-4.3595,-4.3482,-4.3453,0.0,-4.3453,-4.3213,-4.2617,-4.3185,-4.333,-4.2713,-4.3927,-4.4654,-4.4685,-4.5396,-4.5776,-4.5776,-4.5807,-4.5807,-4.5807,-4.5807,-4.5807,-4.5807,-4.5807,-4.5807,-4.5807,-4.5807,-4.5807,-4.5807,-4.5807,-4.5807,-4.5807,-4.5807,-4.5807,-4.5807,-4.5807,-4.5807,-4.5807,0.0,0.0,0.0,0.0,0.0,0.0,0.0,0.0,0.0,0.0,0.0,0.0,0.0,0.0,0.0,0.0,0.0,0.0,0.0,-3.6278,-3.6738,-3.7014,-3.76,-3.7721,-3.7339,-3.7568,-3.7671,-3.7572,-3.8052,-3.8272,-3.829,-3.9049,-3.9337,-3.9262,-3.9781,-4.0089,-4.0201,-4.0201,-3.9766,-3.9074,-3.9074,-3.8399,-3.7338,-3.7095,-3.7007,-3.7007,0.0,0.0,0.0,0.0,0.0,-3.7007,-3.7007,-3.7007,-3.7095,-3.7584,-3.7374,-3.7112,-3.7602,-3.7532,-3.7391,-3.7654,-3.8515,-3.9396,-3.9642,-4.0249,-4.0775,-4.0864,-4.1024,-4.1089,-4.0791,-4.0984,-4.1462,-4.2235,-4.2888,-4.3595,-4.4401,-4.4608,-4.4732,-4.4765,-4.4429,0.0,0.0,0.0,0.0,-4.3313,-4.3889,-4.4412,-4.4747,-4.5178,-4.5644,-4.6076,-4.6333,-4.6461,-4.6461,-4.6461,-4.6461,-4.6477,-4.5992,-4.5807,-4.5807,-4.5807,-4.5807,-4.5807,-4.5807,-4.5807,-4.5807,-4.5807,-4.5807,-4.5807,-4.5807,-4.5807,-4.5807,-4.5807,-4.5807,-4.5807,0.0,0.0,0.0,0.0,0.0,0.0,0.0,0.0,0.0,0.0,0.0,0.0,0.0,0.0,0.0,0.0,0.0,0.0,0.0,0.0,-3.6683,-3.7371,-3.7958,-3.8117,-3.7721,-3.7703,-3.7614,-3.7375,-3.7614,-3.7703,-3.7739,-3.8452,-3.8809,-3.8827,-3.9352,-3.9639,-3.976,-3.976,-3.9331,-3.867,-3.867,-3.8061,-3.715,-3.6885,-3.6879,0.0,0.0,0.0,0.0,0.0,0.0,-3.7007,-3.7007,-3.7183,-3.7426,-3.7637,-3.776,-3.7848,-3.8058,-3.8322,-3.8602,-3.8883,-3.9747,-4.0573,-4.0836,-4.1253,-4.1604,-4.1604,-4.1604,-4.156,-4.1426,-4.1318,-4.1597,-4.256,-4.35,-4.4299,-4.4756,-4.5365,-4.5693,-4.5438,-4.5059,-4.508,0.0,0.0,0.0,-4.4375,-4.5211,-4.5877,-4.6159,-4.6421,-4.6646,-4.6795,-4.7051,-4.7085,-4.6811,-4.7051,-4.7051,-4.6777,-4.612,-4.5807,-4.5807,-4.5807,-4.5807,-4.5807,-4.5807,-4.5807,-4.5807,-4.5807,-4.5807,-4.5807,-4.5807,-4.5807,-4.5807,-4.5807,-4.5807,-4.5807,0.0,0.0,0.0,0.0,0.0,0.0,0.0,0.0,0.0,0.0,0.0,0.0,0.0,0.0,0.0,0.0,0.0,0.0,0.0,0.0,0.0,-3.7345,-3.8132,-3.8418,-3.8135,-3.8135,-3.8118,-3.8101,-3.8118,-3.8135,-3.8135,-3.8135,-3.8135,-3.8118,-3.8101,-3.8281,-3.8594,-3.8594,-3.8594,-3.8594,-3.8594,-3.8163,-3.7452,-3.6738,0.0,0.0,0.0,0.0,0.0,-3.6954,-3.6919,-3.6884,-3.6884,-3.7391,-3.7865,-3.7253,-3.8093,-3.9091,-3.8462,-3.8813,-3.955,-4.0362,-4.0555,-4.0748,-4.1446,-4.1604,-4.1604,-4.1604,-4.1604,-4.156,-4.1426,-4.1403,-4.1818,-4.3093,-4.4585,-4.5554,-4.5423,-4.6724,-4.7121,-4.5587,-4.5432,-4.5759,-4.6544,0.0,0.0,-4.5818,0.0,-4.7527,-4.692,-4.7568,-4.7622,-4.6949,-4.7589,-4.7622,-4.6914,-4.7605,-4.7589,-4.6846,-4.6156,-4.5844,-4.5807,-4.5807,-4.5807,-4.5807,-4.5807,-4.5807,-4.5807,-4.5807,-4.5807,-4.5807,-4.5807,-4.5807,-4.5807,-4.5807,-4.5807,-4.5807,0.0,0.0,0.0,0.0,0.0,0.0,0.0,0.0,0.0,0.0,0.0,0.0,0.0,0.0,0.0,0.0,0.0,0.0,0.0,0.0,0.0,0.0,0.0,0.0,0.0,0.0,0.0,0.0,-3.8346,-3.8455,-3.8455,-3.8455,-3.8455,-3.8455,-3.82,-3.8281,-3.8594,-3.8594,-3.8594,-3.8594,0.0,-3.8328,-3.7895,0.0,0.0,0.0,0.0,0.0,-3.6919,-3.6303,-3.5741,-3.5303,-3.5303,-3.5794,-3.6564,-3.7549,-3.8111,-3.8743,-4.0288,-4.0463,-4.0379,-4.113,-4.1323,-4.1358,-4.1569,-4.1604,-4.1604,-4.1604,-4.1604,-4.1582,-4.156,-4.1471,-4.1869,-4.3358,-4.4711,0.0,-4.5537,-4.6805,-4.7121,-4.5587,-4.5914,-4.6362,-4.6596,-4.7569,0.0,0.0,-4.7865,-4.7977,-4.8346,-4.8534,-4.8572,-4.8366,-4.8541,-4.8555,-4.8366,-4.8541,-4.8288,-4.7622,-4.6896,-4.6282,-4.5807,-4.5807,-4.5807,-4.5807,-4.5807,-4.5807,-4.5807,-4.5807,-4.5807,-4.5807,-4.5807,-4.5807,-4.5807,-4.5807,-4.5807,-4.5807,0.0,0.0,0.0,0.0,0.0,0.0,0.0,0.0,0.0,0.0,0.0,0.0,0.0,0.0,0.0,0.0,0.0,0.0,0.0,0.0,0.0,0.0,0.0,0.0,0.0,0.0,0.0,0.0,0.0,0.0,-3.8083,-3.8083,-3.8342,-3.8807,-3.8628,-3.8459,-3.8305,-3.8305,0.0,0.0,0.0,0.0,0.0,0.0,0.0,0.0,0.0,0.0,-3.5936,-3.5478,-3.5267,-3.5249,-3.5583,-3.6461,-3.7512,-3.8374,-3.9111,-3.9849,-4.0849,-4.1042,-4.1078,-4.1499,-4.1604,-4.1604,-4.1604,-4.1604,-4.1604,-4.1604,-4.1604,-4.1604,-4.1604,-4.1538,-4.1873,-4.3034,-4.4341,-4.5181,-4.5147,-4.6331,-4.6786,-4.5535,-4.6104,-4.6734,-4.7034,-4.8103,-4.8947,0.0,-4.8985,-4.895,-4.9359,-4.9376,-4.9222,-4.8914,-4.9192,-4.9376,-4.9376,-4.9053,-4.8697,-4.8319,-4.7605,-4.6931,-4.6246,-4.6246,-4.61,-4.5807,0.0,-4.5807,-4.5807,-4.5807,-4.5807,-4.5807,-4.5807,-4.5807,-4.5807,-4.5807,-4.5807,-4.5807,0.0,0.0,0.0,0.0,0.0,0.0,0.0,0.0,0.0,0.0,0.0,0.0,0.0,0.0,0.0,0.0,0.0,0.0,0.0,0.0,0.0,0.0,0.0,0.0,0.0,0.0,0.0,0.0,0.0,0.0,0.0,0.0,0.0,0.0,0.0,0.0,0.0,0.0,0.0,0.0,0.0,0.0,0.0,0.0,0.0,0.0,0.0,0.0,-3.4706,-3.4706,-3.5056,-3.5652,-3.6549,-3.783,-3.9041,-3.9231,-4.0323,-4.1341,-4.0801,-4.1095,-4.1604,-4.1604,-4.1604,-4.1604,-4.1604,-4.1604,-4.1604,-4.1604,-4.1604,-4.1639,-4.1745,-4.1674,-4.1858,-4.2637,-4.3951,-4.4804,-4.4549,-4.5822,-4.6424,-4.55,-4.6199,-4.701,-4.7648,-4.8476,-4.9269,-4.9959,-5.0011,-5.0011,-5.0011,-5.0011,-4.9696,-4.907,-4.9666,-5.0011,-5.0011,-4.9274,-4.889,-4.8883,-4.8087,-4.7457,-4.6949,-4.6749,-4.6381,-4.5936,-4.5844,0.0,-4.5807,-4.5807,-4.5807,-4.5807,-4.5807,-4.5807,-4.5807,-4.5807,-4.5807,-4.5807,0.0,0.0,0.0,0.0,0.0,0.0,0.0,0.0,0.0,0.0,-3.4643,-3.4197,0.0,0.0,0.0,0.0,0.0,0.0,0.0,0.0,0.0,0.0,0.0,0.0,0.0,0.0,0.0,0.0,0.0,0.0,0.0,0.0,0.0,0.0,0.0,0.0,0.0,0.0,0.0,0.0,0.0,0.0,0.0,0.0,0.0,0.0,0.0,-3.6183,0.0,0.0,-3.4337,-3.416,-3.5547,-3.6654,-3.7637,-3.8936,-3.9954,-4.0801,-4.1271,-4.1499,-4.1604,-4.1604,-4.1604,-4.1604,-4.1604,-4.1604,-4.1604,-4.1604,-4.1604,-4.1797,-4.2482,-4.2061,-4.2078,-4.3459,-4.4865,-4.5503,-4.4769,-4.6395,-4.7111,-4.5579,-4.6756,-4.7682,-4.77,-4.9072,0.0,0.0,-5.0011,-5.0011,-5.0011,-5.0011,-4.9935,-4.9801,-4.9935,-5.0011,-5.0011,-4.9206,-4.8834,-4.8866,-4.7511,-4.7132,-4.7671,-4.6449,-4.6175,-4.6601,-4.6028,0.0,-4.5807,-4.5807,-4.5807,-4.5807,-4.5807,-4.5807,-4.5807,-4.5807,-4.5807,-4.5728,0.0,0.0,0.0,0.0,0.0,0.0,0.0,-3.5212,-3.5343,-3.6588,-3.637,-3.5962,-3.5535,-3.5497,-3.533,0.0,0.0,0.0,0.0,0.0,0.0,0.0,0.0,0.0,0.0,0.0,0.0,0.0,0.0,0.0,0.0,0.0,0.0,0.0,0.0,0.0,0.0,0.0,0.0,0.0,0.0,0.0,0.0,0.0,0.0,0.0,0.0,0.0,0.0,0.0,-3.4887,-3.4553,-3.5499,-3.6619,-3.7865,-3.9445,-4.0463,-4.1148,-4.1499,-4.1604,-4.1604,-4.1604,-4.1604,-4.1604,-4.1604,-4.1604,-4.1604,-4.1604,-4.1604,-4.1727,-4.2113,-4.1868,-4.185,-4.2587,-4.3874,-4.467,-4.423,-4.564,-4.6403,-4.5615,-4.6913,-4.7847,-4.7717,-4.9221,-5.0132,-4.9993,-5.0011,-5.0011,-5.0011,-5.0011,-5.0011,-5.0011,-4.9597,-4.939,-4.939,-4.8982,-4.8822,-4.8839,-4.8104,-4.7984,-4.8398,-4.7283,-4.6799,-4.6777,-4.6477,0.0,-4.5807,-4.5807,-4.5807,-4.5776,-4.5396,-4.5476,-4.5728,-4.5001,-4.5191,-4.5649,0.0,0.0,0.0,0.0,0.0,0.0,0.0,-3.6614,-3.6652,-3.8223,-3.8265,-3.7986,-3.7554,-3.7182,-3.6569,0.0,0.0,0.0,0.0,0.0,0.0,0.0,0.0,0.0,0.0,0.0,0.0,0.0,0.0,0.0,0.0,0.0,0.0,0.0,0.0,0.0,0.0,0.0,0.0,0.0,0.0,0.0,0.0,0.0,0.0,0.0,0.0,0.0,-3.6346,-3.5944,-3.5526,-3.5259,-3.5661,-3.674,-3.8234,-4.0186,-4.1025,-4.1394,-4.1569,-4.1604,-4.1604,-4.1604,-4.1604,-4.1604,-4.1604,-4.1604,-4.1604,-4.1604,-4.1604,-4.1657,-4.1832,-4.1727,-4.1657,-4.1832,-4.3057,-4.3931,-4.3733,-4.4985,-4.5858,-4.5624,-4.702,-4.7912,-4.7755,-4.9288,0.0,-5.0051,-5.004,-5.0011,-5.0011,-5.0011,-4.9924,-4.9752,-4.9292,-4.8965,-4.8792,-4.8637,-4.8723,-4.9034,-4.8379,-4.8346,-4.8859,-4.7945,-4.7352,-4.7026,-4.685,0.0,0.0,-4.588,-4.5713,-4.5523,-4.4938,-4.4986,-4.5238,-4.4132,-4.4417,-4.5191,0.0,0.0,0.0,0.0,0.0,0.0,0.0,-3.8094,-3.8546,-3.9979,-3.9472,-3.925,-3.9974,-3.8706,-3.7169,0.0,0.0,0.0,0.0,0.0,0.0,0.0,0.0,0.0,0.0,0.0,0.0,-3.4197,0.0,0.0,0.0,0.0,0.0,0.0,0.0,0.0,0.0,0.0,0.0,0.0,0.0,0.0,0.0,0.0,0.0,0.0,0.0,-3.7214,-3.6346,-3.5944,-3.5526,-3.5259,-3.5661,-3.6408,-3.7692,-4.0621,-4.106,-4.0748,-4.1411,-4.1604,-4.1604,-4.1604,-4.1604,-4.1604,-4.1604,-4.1604,-4.1604,-4.1604,-4.1604,-4.1832,-4.257,-4.2096,-4.185,-4.2587,-4.3968,-4.4657,-4.3803,-4.5631,-4.6699,-4.5719,-4.7178,-4.8154,-4.7929,-4.9503,-5.0464,-5.0189,-5.008,-5.0011,-5.0011,-5.0011,-4.9683,-4.893,-4.9562,-4.9545,-4.881,-4.8137,-4.851,-4.9873,-4.7034,-4.68,-4.8776,-4.7342,-4.7085,-4.7676,-4.7044,0.0,0.0,-4.6064,-4.5412,-4.4796,-4.4733,-4.4385,-4.3861,-4.3737,-4.3785,-4.3782,0.0,0.0,0.0,0.0,0.0,0.0,-3.9055,-3.8689,-3.8796,-4.0221,-4.0085,-3.9807,-3.964,-3.9491,-3.8557,-3.642,0.0,0.0,0.0,0.0,0.0,0.0,0.0,0.0,0.0,0.0,-3.499,-3.499,-3.499,0.0,0.0,0.0,0.0,0.0,0.0,0.0,0.0,0.0,0.0,0.0,0.0,0.0,0.0,0.0,0.0,0.0,0.0,0.0,-3.7677,-3.7307,-3.6751,-3.642,-3.7488,-3.7462,-3.7429,-3.9585,-4.0656,-4.1218,-4.1516,-4.1604,-4.1604,-4.1604,-4.1604,-4.1604,-4.1604,-4.1604,-4.1604,-4.1604,-4.1604,-4.171,-4.2026,-4.1832,-4.171,-4.2026,-4.3377,-4.4249,-4.3869,-4.5355,-4.6322,-4.5881,-4.7308,-4.8233,0.0,0.0,-5.0492,-5.0217,-5.0132,-5.008,-4.9993,-4.9545,-4.912,-4.881,-4.8241,-4.7803,-4.7465,-4.7172,-4.7579,-4.8614,-4.6941,-4.7052,-4.8775,-4.7729,-4.7476,-4.7804,-4.7985,0.0,0.0,-4.6496,-4.5709,-4.467,-4.4275,-4.3908,-4.3592,-4.2742,-4.2963,-4.3529,0.0,0.0,0.0,0.0,0.0,-3.8906,-4.0008,-3.9577,-3.9521,-4.0607,-4.0564,-4.016,-3.9547,-3.9788,-3.9212,-3.7238,-3.6835,0.0,0.0,0.0,0.0,0.0,0.0,0.0,0.0,0.0,-3.5863,-3.5863,-3.5621,-3.5306,0.0,0.0,0.0,0.0,0.0,0.0,0.0,0.0,0.0,0.0,0.0,0.0,0.0,0.0,0.0,0.0,0.0,0.0,0.0,0.0,0.0,-3.743,-3.8536,0.0,0.0,-3.9397,-4.0496,-4.1323,-4.1552,-4.1604,-4.1604,-4.1604,-4.1604,-4.1604,-4.1604,-4.1604,-4.1604,-4.1604,-4.1604,-4.1604,-4.1604,-4.1604,-4.1604,-4.1604,-4.271,-4.3658,-4.3869,-4.4949,-4.5803,-4.598,0.0,-4.8312,-4.818,-4.9639,-5.0519,-5.0341,-5.0228,-5.016,-5.008,-4.9252,-4.8689,-4.8482,-4.7476,-4.6837,-4.6613,-4.6837,-4.732,-4.8,-4.7286,-4.7569,-4.8775,-4.8258,-4.7929,-4.7814,-4.8348,0.0,0.0,-4.6264,-4.5349,-4.4069,-4.3595,-4.3279,-4.2979,-4.1968,-4.2236,-4.2947,0.0,0.0,0.0,0.0,0.0,0.0,-4.1008,-4.1075,-4.1191,-4.1547,-4.0899,-4.0416,-4.0383,-3.9621,-3.8785,-3.7949,-3.7164,0.0,0.0,0.0,0.0,0.0,0.0,0.0,0.0,0.0,-3.6686,-3.6686,-3.59,-3.59,-3.6649,-3.5863,-3.5491,-3.5529,0.0,0.0,0.0,0.0,0.0,0.0,0.0,0.0,0.0,0.0,0.0,0.0,0.0,0.0,0.0,0.0,0.0,0.0,0.0,0.0,0.0,0.0,-4.0766,-4.0678,-4.1394,-4.1604,-4.1604,-4.1604,-4.1604,-4.1604,-4.1604,-4.1604,-4.1604,-4.1604,-4.1604,-4.1604,-4.1604,-4.1604,-4.1604,-4.1604,-4.2289,-4.3079,-4.3799,-4.4606,-4.5348,0.0,-4.7489,-4.8443,-4.8312,-4.9693,-5.0585,-5.0585,-5.0341,0.0,-5.0189,-4.932,-4.8465,-4.7724,-4.7689,-4.7355,-4.6613,-4.7338,-4.8051,-4.8775,-4.8034,-4.8068,-4.8792,-4.8792,-4.8379,-4.7713,0.0,0.0,0.0,-4.5,-4.3922,-4.271,-4.2695,-4.2252,-4.1604,-4.1588,-4.1604,-4.1604,0.0,0.0,0.0,0.0,0.0,0.0,0.0,-3.9654,-3.9783,-3.9156,-3.9324,-3.951,-3.951,-3.9268,-3.8785,-3.7968,-3.7164,0.0,0.0,0.0,0.0,0.0,0.0,0.0,0.0,0.0,-3.7522,-3.7522,-3.7262,-3.6983,-3.6686,-3.6439,-3.6328,-3.6328,-3.6588,0.0,0.0,0.0,0.0,0.0,0.0,0.0,0.0,0.0,0.0,0.0,0.0,0.0,0.0,0.0,0.0,0.0,0.0,0.0,0.0,0.0,0.0,-4.1354,-4.1871,-4.1809,-4.1653,-4.1941,-4.1809,-4.1604,-4.1604,-4.1604,-4.1604,-4.1604,-4.1604,-4.1604,-4.1604,-4.1604,-4.1604,-4.1604,-4.2289,-4.3254,-4.4536,0.0,0.0,-4.6821,-4.7916,-4.8969,0.0,0.0,-5.0747,-5.0612,-5.0519,-5.0436,-5.0341,-4.959,-4.8688,-4.7734,-4.7217,-4.6855,-4.6613,-4.6837,-4.7338,-4.8034,-4.732,-4.731,-4.8034,-4.8034,-4.7913,0.0,0.0,0.0,0.0,-4.6082,-4.4957,-4.3314,-4.3314,-4.2619,-4.1588,-4.1588,-4.1588,-4.1588,0.0,0.0,0.0,0.0,0.0,0.0,0.0,-3.8766,-3.8871,-3.8417,-3.8785,-3.9101,-3.9101,-3.9101,-3.8897,-3.8395,-3.7615,0.0,0.0,0.0,0.0,0.0,0.0,0.0,-3.8339,-3.8339,-3.8339,-3.8339,-3.8042,-3.7801,-3.7596,-3.7281,-3.7151,-3.7169,-3.7466,-3.7262,0.0,0.0,0.0,0.0,0.0,0.0,-3.8339,0.0,0.0,0.0,0.0,0.0,0.0,0.0,0.0,0.0,0.0,0.0,0.0,0.0,0.0,0.0,-4.2157,-4.2026,-4.192,-4.232,-4.2133,-4.1831,-4.1831,-4.1831,-4.1831,-4.1831,-4.1831,-4.1831,-4.1831,-4.1697,-4.1604,-4.1604,-4.2289,-4.3237,-4.4466,0.0,0.0,-4.7204,0.0,0.0,0.0,-5.0715,-5.0846,-5.0729,-5.0657,-5.0557,-5.0481,-4.999,-4.9271,-4.8332,-4.724,-4.6512,-4.6165,-4.6734,-4.7269,-4.7689,-4.7838,-4.8131,-4.8579,-4.8241,-4.8103,0.0,0.0,0.0,0.0,-4.5911,-4.4936,-4.3563,-4.3563,-4.3036,-4.2317,-4.2317,-4.2317,-4.2317,0.0,0.0,0.0,0.0,0.0,0.0,0.0,-3.8328,-3.8428,-3.8882,-3.9027,-3.9082,-3.9027,-3.9008,-3.899,-3.8934,0.0,0.0,0.0,0.0,0.0,0.0,0.0,0.0,-3.9082,-3.9101,-3.9101,-3.9101,-3.8339,-3.8377,-3.9082,-3.8339,-3.7986,-3.8024,-3.8767,-3.8265,-3.6922,-3.7671,-3.7986,-3.8042,-3.8804,-3.9101,0.0,0.0,0.0,0.0,0.0,0.0,0.0,0.0,0.0,0.0,0.0,0.0,0.0,0.0,0.0,0.0,0.0,-4.2259,-4.234,-4.2735,-4.2541,-4.2239,-4.2198,-4.2218,0.0,-4.2216,-4.2218,-4.2218,-4.2216,-4.1899,-4.1648,-4.1604,-4.2324,-4.3131,0.0,-4.4589,0.0,0.0,-4.8012,0.0,-4.9706,-5.0452,-5.0891,-5.0891,-5.0729,-5.0612,-5.0612,-5.0509,-5.0095,-4.9346,-4.7732,-4.649,-4.5596,-4.6958,-4.7638,-4.7707,-4.9166,-4.9838,-4.9821,-4.9051,-4.8689,0.0,0.0,0.0,0.0,-4.4846,-4.4157,-4.3571,-4.3571,-4.3542,-4.3512,-4.3512,-4.3512,-4.3512,0.0,0.0,0.0,0.0,0.0,0.0,0.0,0.0,0.0,0.0,-3.8339,-3.8859,-3.8247,-3.8172,-3.7931,0.0,0.0,0.0,0.0,0.0,0.0,0.0,0.0,0.0,-3.9101,-3.9101,-3.9101,-3.9101,-3.8915,-3.8915,-3.9101,-3.8915,-3.8822,-3.8822,-3.9027,-3.8897,-3.8544,-3.8729,-3.8822,-3.8822,-3.9027,-3.9101,0.0,0.0,0.0,0.0,-3.9863,-4.0215,0.0,0.0,0.0,0.0,0.0,0.0,0.0,0.0,-4.3171,0.0,-4.3141,0.0,-4.2772,-4.3159,-4.2959,-4.258,0.0,0.0,0.0,-4.2259,-4.2442,-4.256,-4.2259,-4.2133,-4.1963,-4.1653,-4.2745,-4.3693,-4.3869,-4.4589,0.0,-4.7204,-4.7538,-4.8433,-5.0417,-5.0785,-5.0891,-5.0891,-5.0846,-5.0846,-5.0846,-5.0792,-5.0369,-4.9474,-4.846,-4.7752,-4.7338,-4.7013,-4.7121,-4.7689,-4.8079,-4.8252,-4.8224,-4.8034,-4.7638,0.0,0.0,0.0,-4.5434,-4.5262,-4.4807,-4.4243,-4.4243,-4.3939,-4.3512,-4.3512,-4.3512,-4.3512,0.0,0.0,0.0,0.0,0.0,0.0,0.0,0.0,0.0,0.0,0.0,-3.7917,-3.7445,-3.7407,0.0,0.0,0.0,0.0,0.0,0.0,0.0,0.0,0.0,-3.9101,-3.9101,-3.9101,-3.9101,-3.9101,-3.9101,-3.9101,-3.9101,-3.9101,-3.9101,-3.9101,-3.9101,-3.9101,-3.9101,-3.9101,-3.9101,-3.9101,-3.9101,0.0,0.0,0.0,0.0,0.0,-4.0215,-4.0866,0.0,-4.25,-4.3039,-4.3429,0.0,0.0,0.0,0.0,-4.3677,-4.3677,-4.3677,-4.3388,-4.3177,-4.3559,-4.3371,-4.3032,-4.281,0.0,0.0,-4.281,-4.2904,-4.2959,-4.2541,0.0,0.0,-4.2092,-4.2552,0.0,0.0,0.0,-4.6326,-4.68,-4.7485,-4.8398,0.0,-5.0469,-5.0891,-5.0891,-5.0891,-5.0891,-5.0891,-5.0891,-5.067,-5.0161,-4.8933,-4.8032,-4.7489,-4.6948,-4.6884,-4.7299,-4.7917,-4.8017,-4.7689,-4.7689,-4.7465,0.0,0.0,0.0,-4.5914,-4.5552,-4.5194,-4.4906,-4.4906,-4.468,-4.4367,-4.4367,-4.4367,-4.4367,0.0,0.0,0.0,0.0,0.0,0.0,0.0,0.0,0.0,0.0,0.0,0.0,0.0,0.0,0.0,0.0,0.0,0.0,0.0,0.0,0.0,0.0,-3.9101,-3.9101,-3.9101,-3.9101,-3.9101,-3.9101,-3.9231,-3.9305,-3.9305,-3.9305,-3.9231,-3.9101,-3.9101,-3.9101,-3.9101,-3.9101,-3.9101,-3.9101,-3.9101,0.0,0.0,0.0,0.0,0.0,0.0,0.0,0.0,-4.2946,-4.3448,-4.4005,-4.4005,0.0,0.0,0.0,0.0,0.0,-4.4005,-4.3761,-4.3577,-4.3908,-4.3744,-4.3474,-4.3423,0.0,0.0,0.0,-4.3457,-4.3354,0.0,-4.2109,0.0,0.0,0.0,0.0,-4.4641,-4.594,-4.6537,-4.6091,-4.7179,0.0,-4.846,-4.9855,-5.0662,-5.0539,-5.075,-5.0838,-5.0715,-5.082,-5.0891,-5.0891,-4.9363,-4.8094,-4.7239,-4.683,-4.6689,-4.6801,-4.7955,-4.8165,-4.7517,-4.7517,-4.7476,-4.7276,0.0,0.0,-4.6372,-4.5673,-4.5397,-4.5397,-4.5423,-4.5423,-4.5397,-4.5423,-4.5423,-4.5397,0.0,0.0,0.0,0.0,0.0,0.0,0.0,0.0,0.0,0.0,0.0,0.0,0.0,0.0,0.0,0.0,0.0,0.0,0.0,0.0,0.0,-3.9064,-3.9101,-3.9101,-3.9101,-3.9101,-3.9101,-3.9101,-3.9844,-4.0197,-4.0197,-4.0197,-3.9807,-3.9101,-3.9101,-3.9101,-3.9101,-3.9101,-3.9101,-3.9101,-3.9101,0.0,0.0,0.0,0.0,0.0,0.0,0.0,0.0,-4.3596,-4.3893,-4.4005,-4.4005,0.0,0.0,0.0,0.0,0.0,-4.4005,-4.3955,-4.3923,-4.3971,-4.3939,-4.3809,-4.3474,-4.366,-4.3809,0.0,0.0,0.0,0.0,-4.3223,-4.3394,0.0,0.0,-4.3658,0.0,0.0,-4.3939,-4.5133,0.0,-4.6397,-4.8398,-4.9363,-4.9592,-4.8924,-5.0136,-5.0592,-4.9934,-5.0549,-5.0891,-5.0891,-4.9995,-4.9109,-4.8268,-4.6733,-4.6257,-4.6784,-4.6999,-4.6998,-4.6786,-4.6786,-4.6397,-4.5742,0.0,-4.5466,-4.5569,-4.5449,-4.5397,-4.5397,-4.5528,-4.5502,-4.5423,-4.5528,-4.5502,-4.5397,0.0,0.0,0.0,0.0,0.0,0.0,0.0,0.0,0.0,0.0,0.0,0.0,0.0,0.0,0.0,0.0,0.0,0.0,0.0,0.0,-3.8061,-3.8432,-3.8859,-3.9101,-3.9101,-3.9101,-3.9324,-3.9788,-4.0197,-4.062,-4.1033,-4.0587,-3.9918,-3.9101,-3.9101,-3.9101,-3.9101,-3.9101,-3.9101,-3.9138,0.0,0.0,0.0,0.0,0.0,0.0,0.0,0.0,0.0,0.0,-4.4005,-4.4005,-4.4005,0.0,0.0,0.0,0.0,0.0,-4.4005,-4.4005,-4.4005,-4.4005,-4.4005,-4.3828,-4.3206,-4.3227,-4.329,0.0,0.0,0.0,0.0,0.0,-4.2487,-4.1687,0.0,-4.4711,-4.3483,-4.4056,-4.474,0.0,0.0,-4.6291,-4.7801,-4.8626,-4.8907,-4.8512,-4.9205,0.0,-4.9065,-4.9434,-4.9644,-4.9609,-4.8854,-4.8275,-4.7906,-4.6658,-4.6139,-4.6377,-4.6734,-4.6638,-4.6187,-4.654,-4.6272,-4.5502,0.0,-4.5397,-4.5397,-4.5476,-4.5502,-4.5528,-4.5658,-4.5667,-4.5615,-4.5684,-4.5615,-4.5528,0.0,0.0,0.0,0.0,0.0,0.0,0.0,0.0,0.0,0.0,0.0,0.0,0.0,0.0,0.0,0.0,0.0,0.0,0.0,-3.7069,-3.7721,-3.7894,-3.8674,-3.9101,-3.9101,-3.9305,-3.9733,-4.0416,-4.0773,-4.1181,-4.1571,-4.0773,-3.9918,-3.9101,-3.9101,-3.9101,-3.9101,-3.9324,-3.9398,-3.9472,0.0,0.0,0.0,0.0,0.0,0.0,0.0,0.0,0.0,0.0,0.0,0.0,0.0,0.0,0.0,-4.4005,-4.4005,-4.4005,-4.4005,-4.4005,-4.4005,-4.4005,-4.4005,-4.3782,-4.2983,-4.2946,-4.2965,-4.2593,0.0,0.0,0.0,-4.2629,0.0,-4.1406,-4.3921,-4.5126,-4.2851,-4.4495,-4.5653,-4.4904,-4.5484,-4.6249,-4.7046,-4.7801,-4.8144,-4.7969,0.0,0.0,-4.8257,-4.8451,-4.8556,-4.8495,-4.7959,-4.7573,-4.7397,-4.68,-4.634,-4.6015,-4.6524,-4.643,-4.583,-4.6335,-4.623,-4.5658,-4.5502,-4.545,-4.545,-4.5554,-4.5607,-4.5632,-4.577,-4.5846,-4.5846,-4.5795,-4.5736,-4.5641,0.0,0.0,0.0,0.0,0.0,0.0,0.0,0.0,0.0,0.0,0.0,0.0,0.0,0.0,0.0,0.0,0.0,0.0,0.0,-3.6937,-3.7179,-3.787,-3.8674,-3.9101,-3.9101,-3.9881,-4.0341,-4.0416,-4.1887,-4.2259,-4.1571,-4.0773,-3.9918,-3.9101,-3.9101,-3.9101,-3.9157,-3.9955,-4.0323,-4.0378,-4.1181,0.0,0.0,0.0,0.0,0.0,0.0,0.0,0.0,0.0,0.0,0.0,0.0,0.0,-4.4005,-4.4005,-4.4005,-4.4005,-4.4005,-4.4005,-4.4005,-4.4005,-4.4005,-4.3782,-4.2983,-4.3373,-4.3485,-4.198,0.0,0.0,0.0,-4.3928,-4.4235,-4.3733,-4.4518,-4.436,-4.2026,0.0,-4.4887,-4.4079,-4.4694,-4.5484,-4.6214,-4.7011,-4.7169,0.0,0.0,0.0,-4.752,-4.8135,-4.8495,-4.8495,-4.8442,-4.8099,-4.7397,-4.7345,-4.6866,-4.5998,-4.6067,-4.5992,-4.5795,-4.5865,-4.5839,-4.577,-4.5641,-4.5581,-4.5581,-4.5607,-4.5607,-4.5632,-4.5871,-4.5972,-4.5972,-4.5846,-4.5795,-4.5787,0.0,0.0,0.0,0.0,0.0,0.0,0.0,0.0,0.0,0.0,0.0,0.0,0.0,0.0,0.0,0.0,0.0,0.0,0.0,-3.7399,-3.7893,-3.8667,-3.8961,-3.9101,-3.9101,-3.9937,-4.0899,-4.1887,-4.25,-4.2389,-4.1571,-4.0773,-3.9918,-3.912,-3.9658,-3.99,-3.9955,-4.0791,-4.1144,-4.1219,-4.2017,-4.2352,0.0,0.0,0.0,0.0,0.0,0.0,0.0,0.0,-4.4005,-4.4005,-4.4005,-4.4005,-4.4005,-4.4005,-4.4005,-4.4005,-4.4005,-4.3633,-4.3373,-4.3875,-4.3615,0.0,0.0,-4.2686,-4.2946,-4.1832,-4.2356,0.0,0.0,0.0,-4.2988,-4.3752,-4.415,-4.3711,-4.1868,-4.3184,-4.4237,-4.3939,-4.4167,-4.4852,-4.6074,-4.6477,0.0,0.0,0.0,0.0,-4.6653,-4.6916,-4.7074,-4.7074,-4.7074,-4.6933,-4.6653,-4.6635,-4.647,-4.6122,-4.6122,-4.6097,-4.6048,-4.5947,-4.5922,-4.5922,-4.577,-4.5718,-4.5718,-4.5718,-4.577,-4.5871,-4.6048,-4.6073,-4.5998,-4.6023,-4.5998,-4.5922,0.0,0.0,0.0,0.0,0.0,0.0,0.0,0.0,0.0,0.0,0.0,0.0,0.0,0.0,0.0,0.0,0.0,0.0,-3.7182,-3.7704,-3.8273,-3.8787,-3.9026,-3.9259,-3.9538,-4.0128,-4.1099,-4.2407,-4.2407,-4.1999,-4.12,-4.0383,-3.9807,-3.9528,-4.0123,-4.0531,-4.0843,-4.1627,-4.198,-4.2054,-4.2853,-4.3188,0.0,0.0,0.0,0.0,0.0,0.0,0.0,0.0,-4.4005,-4.4005,-4.4005,-4.4005,-4.4005,-4.4005,-4.4005,-4.4005,-4.4005,-4.3596,-4.3318,-4.3856,0.0,0.0,-4.1776,-4.2222,-4.25,-4.1441,-4.2482,-4.3837,-4.4609,0.0,0.0,0.0,-4.3821,-4.336,-4.1815,-4.3149,-4.4097,-4.3605,-4.3763,-4.4308,-4.5354,0.0,0.0,0.0,0.0,0.0,0.0,-4.6074,-4.6196,-4.6196,-4.6196,-4.6091,-4.5846,-4.5846,-4.5846,-4.5846,-4.6091,-4.6196,-4.6214,-4.6097,-4.6073,-4.6048,-4.5922,-4.5871,-4.5871,-4.5871,-4.5947,-4.6073,-4.6147,-4.6147,-4.6073,-4.6172,-4.6147,-4.6073,0.0,0.0,0.0,0.0,0.0,0.0,0.0,0.0,0.0,0.0,0.0,0.0,0.0,0.0,0.0,0.0,0.0,0.0,-3.7101,-3.7711,-3.8083,-3.8018,-3.8782,-3.9606,-4.0463,-4.0514,-4.0863,-4.159,-4.159,-4.1181,-4.0378,-3.951,-3.9565,-4.0416,-4.0416,-4.0861,-4.1664,-4.2463,-4.2816,-4.2872,-4.367,-4.4005,-4.4005,0.0,0.0,0.0,0.0,0.0,0.0,0.0,-4.4005,-4.4005,-4.4005,-4.4005,-4.4005,-4.4005,-4.4005,-4.4005,-4.4005,-4.3986,-4.3986,-4.3986,0.0,0.0,-4.1757,-4.2222,-4.2352,-4.0769,-4.302,-4.5018,-4.4175,-4.4713,0.0,-4.3635,-4.3713,-4.3377,-4.1832,-4.3623,-4.4518,-4.2991,-4.3447,-4.3886,-4.3904,0.0,0.0,0.0,0.0,0.0,0.0,-4.5793,-4.6196,-4.6196,-4.6196,-4.5846,-4.5115,-4.5098,-4.5098,-4.5098,-4.5828,-4.6196,-4.6196,-4.6214,-4.6214,-4.6196,-4.6048,-4.5998,-4.5998,-4.5998,-4.6073,-4.6196,-4.6196,-4.6196,-4.6196,-4.6196,-4.6196,-4.6196,0.0,0.0,0.0,0.0,0.0,0.0,0.0,0.0,0.0,0.0,0.0,0.0,0.0,0.0,0.0,0.0,0.0,0.0,-3.818,-3.8732,-3.9082,-3.9057,-3.9242,-3.9458,-3.972,-4.028,-4.0901,-4.159,-4.1653,-4.1239,-4.0378,-3.9565,-3.9607,-4.042,-4.0977,-4.1683,-4.25,-4.3299,-4.3633,-4.3652,-4.3893,-4.4005,-4.4005,0.0,0.0,0.0,0.0,0.0,0.0,0.0,0.0,0.0,-4.4005,-4.4005,-4.4005,-4.4005,-4.4005,-4.4005,-4.4005,-4.3596,-4.315,-4.315,0.0,0.0,0.0,-4.224,0.0,0.0,-4.3906,-4.4227,-4.5022,-4.476,0.0,-4.4953,-4.5134,-4.4564,-4.2703,-4.35,-4.3886,-4.2921,-4.2991,-4.3325,0.0,0.0,0.0,0.0,0.0,0.0,0.0,-4.5793,-4.6196,-4.6196,-4.6196,-4.5846,-4.5115,-4.5098,-4.4817,-4.4273,-4.5062,-4.5688,-4.6214,-4.68,-4.6748,-4.6196,-4.6147,-4.6147,-4.6147,-4.6147,-4.6097,-4.6073,-4.6147,-4.6196,-4.6196,-4.6196,-4.6196,-4.6196,0.0,0.0,0.0,0.0,0.0,0.0,0.0,0.0,0.0,0.0,-3.8953,-3.9307,0.0,0.0,0.0,0.0,0.0,0.0,0.0,-3.9368,-3.9495,-3.9495,-3.9457,-3.9444,-3.9444,-4.0235,-4.0667,-4.0724,-4.1087,-4.0826,-3.9998,-3.9811,-4.0151,-4.0946,-4.1735,-4.2519,-4.3318,-4.3782,-4.4005,-4.4005,-4.4005,-4.4005,-4.4005,0.0,0.0,0.0,0.0,0.0,0.0,0.0,0.0,0.0,-4.4005,-4.4005,-4.4005,-4.4005,-4.4005,-4.4005,-4.4005,-4.3652,-4.328,-4.328,-4.2426,-4.1553,-4.1386,0.0,0.0,0.0,-4.4235,-4.4328,-4.492,-4.4894,0.0,-4.5012,-4.5465,-4.5098,-4.3077,-4.343,-4.3518,-4.2464,-4.2324,-4.2622,0.0,0.0,0.0,0.0,0.0,0.0,0.0,-4.5793,-4.6196,-4.6196,-4.6196,-4.5688,-4.4624,-4.4624,-4.4237,-4.3465,-4.4255,-4.5027,-4.5775,-4.6572,-4.6653,-4.6196,-4.6196,-4.6196,-4.6196,-4.6196,-4.6147,-4.6073,-4.6172,-4.6196,-4.6196,-4.6196,-4.6196,-4.6196,0.0,0.0,0.0,0.0,0.0,0.0,0.0,0.0,0.0,0.0,-3.9069,-3.9617,0.0,0.0,0.0,0.0,0.0,0.0,0.0,-3.9644,-3.9508,-3.9508,-3.9508,-3.9508,-3.9508,-4.0225,-4.0199,-3.9418,-4.0208,-4.0189,-3.9423,-4.0164,-4.0943,-4.1729,-4.2489,-4.3243,-4.4005,-4.4005,-4.4005,-4.4005,-4.4005,-4.4005,-4.4005,-4.4005,0.0,0.0,0.0,0.0,0.0,0.0,0.0,0.0,-4.4005,-4.4005,-4.4005,-4.402,-4.4005,-4.4005,-4.402,-4.4005,-4.3986,-4.3912,-4.2686,-4.1702,-4.25,-4.211,-4.1869,-4.2835,0.0,-4.4934,-4.4153,-4.5077,-4.5553,-4.4297,-4.5087,-4.5196,-4.327,-4.3518,-4.336,-4.1885,-4.178,0.0,0.0,0.0,0.0,0.0,0.0,0.0,0.0,-4.5793,-4.6196,-4.6196,-4.6196,-4.5442,-4.3921,-4.3904,-4.3483,-4.271,-4.3447,-4.422,-4.5027,-4.5828,-4.6196,-4.6196,-4.6196,-4.6196,-4.6196,-4.6196,-4.6196,-4.6196,-4.6196,-4.6196,-4.6196,-4.6196,-4.6196,-4.6196,0.0,0.0,0.0,0.0,0.0,0.0,0.0,0.0,0.0,0.0,0.0,0.0,0.0,0.0,0.0,0.0,0.0,0.0,0.0,-3.9614,-3.9583,-3.9583,-3.9583,-3.9583,-3.9583,-3.9752,-3.9752,-3.9571,-4.03,-4.0248,-3.9423,-4.0267,-4.1035,-4.1729,-4.253,-4.3304,-4.4005,-4.4005,-4.4005,-4.4005,-4.4005,-4.4005,-4.4005,-4.4005,-4.4005,0.0,0.0,0.0,0.0,0.0,0.0,0.0,-4.4005,-4.4005,-4.402,-4.4119,-4.407,-4.402,-4.4135,-4.407,-4.3856,-4.3225,-4.185,-4.0866,-4.1664,-4.172,-4.2203,-4.4321,-4.4506,-4.4228,-4.4023,-4.5296,-4.6024,-4.5044,-4.566,-4.5889,-4.4759,-4.4202,-4.3553,-4.2658,-4.3044,0.0,0.0,0.0,0.0,0.0,0.0,0.0,-4.5098,-4.5793,-4.6196,-4.6196,-4.6196,-4.5442,-4.3921,-4.3904,-4.3202,0.0,-4.2658,-4.343,-4.4202,-4.5565,-4.6196,-4.6196,-4.6196,-4.6196,-4.6196,-4.6196,-4.6196,-4.6196,-4.6196,-4.6196,-4.6196,-4.6196,-4.6196,-4.6196,0.0,0.0,0.0,0.0,0.0,0.0,0.0,0.0,0.0,0.0,0.0,0.0,0.0,0.0,0.0,0.0,0.0,0.0,0.0,0.0,-3.9589,-3.9589,-3.9589,-3.9589,-3.9589,-3.9589,-3.9589,-3.9589,-4.0002,-3.9946,-3.9527,-4.0725,-4.1445,-4.1805,-4.2988,-4.3691,-4.4005,-4.4005,-4.4005,-4.4042,-4.4451,-4.4618,-4.4655,-4.5045,-4.4952,-4.4618,-4.4618,0.0,0.0,0.0,0.0,0.0,0.0,0.0,-4.402,-4.4169,-4.4135,-4.4119,-4.4184,0.0,0.0,-4.3017,0.0,-4.1553,-4.159,-4.1887,-4.2537,-4.3838,-4.4042,-4.4005,-4.4005,-4.5064,-4.5699,-4.4984,-4.5564,-4.5749,-4.4718,-4.4365,-4.3837,-4.292,0.0,0.0,0.0,0.0,0.0,0.0,0.0,-4.5617,-4.5617,-4.5986,-4.6196,-4.6196,-4.6196,-4.5635,-4.4483,-4.4097,-4.3325,-4.2184,-4.2219,-4.2816,-4.3939,-4.5495,-4.6196,-4.6196,-4.6196,-4.6196,-4.6196,-4.6196,-4.6196,-4.6196,-4.6196,-4.6196,-4.6196,-4.6196,-4.6196,-4.6196,0.0,0.0,0.0,0.0,0.0,0.0,0.0,0.0,0.0,0.0,0.0,0.0,0.0,0.0,0.0,0.0,0.0,0.0,0.0,0.0,0.0,-3.9589,-3.9589,-3.9589,-3.9589,-3.9589,-3.9589,-3.9589,-3.9589,-3.9664,-3.9833,-4.1271,-4.1884,-4.1862,-4.3498,-4.4135,-4.4005,-4.4005,-4.4079,-4.4299,-4.504,-4.5319,-4.5427,-4.6227,-4.6041,-4.5353,-4.5483,-4.4981,-4.4256,-4.4256,0.0,0.0,0.0,0.0,-4.4085,-4.4195,-4.4229,0.0,0.0,-4.4214,-4.3964,-4.3032,-4.2797,0.0,-4.1962,-4.2314,-4.2835,-4.2983,-4.354,-4.4005,-4.4005,-4.4711,-4.5154,-4.469,-4.5168,-4.5278,-4.4332,-4.444,-4.4268,-4.3333,0.0,0.0,0.0,0.0,0.0,0.0,0.0,-4.6295,-4.6196,-4.6196,-4.6196,-4.6196,-4.6196,-4.5846,-4.5115,-4.429,-4.3535,-4.2775,-4.2131,-4.2535,-4.3939,-4.5354,-4.6074,-4.6196,-4.6196,-4.6196,-4.6196,-4.6196,-4.6196,-4.6196,-4.6196,-4.6196,-4.6196,-4.6196,-4.6196,-4.6196,0.0,0.0,0.0,0.0,0.0,0.0,0.0,0.0,0.0,0.0,-4.0739,-4.0797,0.0,0.0,0.0,0.0,0.0,0.0,0.0,0.0,0.0,-3.9589,-3.9589,-3.9589,-3.9589,-3.9589,-3.9589,-3.9589,-3.9589,-3.9965,-4.0666,-4.1573,-4.1924,-4.1876,-4.3538,-4.4177,-4.4005,-4.4005,-4.4479,-4.5211,-4.5342,-4.5426,-4.5562,-4.638,-4.6175,-4.5562,-4.6268,-4.5988,-4.5301,-4.5301,-4.4834,0.0,0.0,0.0,-4.4266,-4.434,-4.4329,0.0,0.0,0.0,-4.3964,0.0,-4.2797,-4.276,0.0,0.0,-4.3002,0.0,-4.3931,-4.4005,-4.4005,-4.4711,-4.5154,-4.469,-4.4746,-4.4858,-4.4928,-4.5048,-4.5048,-4.4891,0.0,0.0,0.0,0.0,0.0,0.0,-4.6812,-4.6625,-4.6221,-4.6196,-4.6196,-4.6196,-4.6196,-4.5846,-4.5115,-4.429,-4.3535,-4.2816,-4.2693,-4.3079,-4.3921,-4.4834,-4.5607,-4.6196,-4.6196,-4.6196,-4.6196,-4.6196,-4.6196,-4.6196,-4.6196,-4.6196,-4.6196,-4.6196,-4.6196,-4.6196,0.0,0.0,0.0,0.0,0.0,0.0,0.0,0.0,0.0,0.0,0.0,-4.0797,0.0,0.0,0.0,0.0,0.0,0.0,0.0,0.0,0.0,-3.9589,-3.9715,-3.9766,-3.9766,-3.9766,-3.9766,-3.9766,-3.9662,-4.0021,-4.0816,-4.161,-4.2214,-4.2623,-4.3791,-4.4226,-4.4138,-4.4603,-4.5028,-4.5432,-4.5926,-4.6159,-4.6209,-4.6564,-4.619,-4.5611,-4.6396,-4.5891,-4.4916,-4.535,-4.4972,-4.43,-4.43,0.0,0.0,0.0,-4.4368,0.0,-4.4358,-4.43,-4.4136,0.0,-4.3531,-4.3453,-4.2924,-4.315,-4.3448,-4.3355,-4.3689,-4.4005,-4.4005,-4.4302,-4.4514,-4.4299,-4.4282,-4.4343,-4.4468,-4.4693,-4.4766,-4.4543,0.0,0.0,0.0,0.0,0.0,0.0,-4.7066,-4.6794,-4.6602,-4.635,-4.6196,-4.6196,-4.6196,-4.6039,-4.5705,-4.4518,-4.3307,-4.2131,-4.2587,-4.3202,-4.3921,-4.4729,-4.5519,-4.6196,-4.6196,-4.6196,-4.6196,-4.6196,-4.6196,-4.6196,-4.6196,-4.6196,-4.6196,-4.6196,-4.6196,-4.6196,0.0,0.0,0.0,0.0,0.0,0.0,0.0,0.0,0.0,0.0,0.0,0.0,0.0,0.0,0.0,0.0,0.0,0.0,0.0,0.0,0.0,0.0,-3.9766,-3.9848,-3.9903,-3.9848,-3.9815,-3.9815,-3.9893,-4.0309,-4.1116,-4.1948,-4.2766,-4.3549,-4.4096,-4.4289,-4.4236,-4.4867,-4.5351,-4.5777,-4.6228,-4.6557,-4.6794,-4.6794,-4.627,-4.5653,-4.6476,-4.5859,-4.4751,-4.5354,-4.5017,-4.4358,-4.4358,-4.4358,0.0,0.0,0.0,0.0,0.0,0.0,-4.43,-4.4131,-4.415,-4.4046,0.0,0.0,-4.3869,0.0,-4.3612,-4.4005,-4.4005,-4.4005,-4.4005,-4.4005,-4.4005,-4.4005,-4.4005,-4.4449,-4.466,-4.4363,0.0,0.0,0.0,0.0,0.0,0.0,-4.7334,-4.7204,-4.7071,-4.6625,-4.6374,-4.6374,-4.627,-4.6196,-4.6196,-4.4676,-4.3131,-4.1604,-4.2219,-4.2991,-4.3921,-4.4518,-4.5326,-4.6196,-4.6196,-4.6196,-4.6196,-4.6196,-4.6196,-4.6196,-4.6196,-4.6196,-4.6196,-4.6196,-4.6196,-4.6196,0.0,0.0,0.0,0.0,0.0,0.0,0.0,0.0,0.0,0.0,0.0,0.0,-4.0797,-4.0605,-4.0417,-4.0223,-4.0,-3.9811,-3.9614,-3.9589,-3.9679,-3.9881,0.0,0.0,-3.9903,-3.9715,-3.9614,-3.9614,-4.0378,-4.1154,-4.1967,-4.2825,-4.367,-4.4426,-4.4407,-4.4329,-4.4199,-4.4311,-4.5253,-4.6579,-4.5926,-4.6188,-4.6978,-4.6978,-4.6453,-4.5796,-4.6678,-4.6396,-4.5627,-4.5683,-4.5158,-4.4487,-4.4487,-4.4487,-4.4501,0.0,0.0,0.0,0.0,-4.4397,0.0,-4.43,-4.4285,-4.4266,0.0,0.0,-4.4184,-4.4128,-4.4067,-4.4005,-4.4005,-4.4005,-4.4005,-4.4005,-4.4005,-4.4005,-4.4005,-4.4732,-4.5252,-4.5231,0.0,0.0,0.0,0.0,0.0,0.0,-4.7772,-4.8035,-4.7591,-4.7115,-4.6863,-4.6863,-4.6429,-4.6196,-4.6196,-4.4676,-4.3131,-4.1604,-4.1639,-4.2447,-4.3904,-4.3939,-4.4782,-4.6196,-4.6196,-4.6196,-4.6196,-4.6196,-4.6196,-4.6196,-4.6196,-4.6196,-4.6196,-4.6196,-4.6196,-4.6196,0.0,0.0,0.0,0.0,0.0,0.0,0.0,0.0,0.0,0.0,0.0,0.0,0.0,-4.0516,-4.033,-4.0381,-4.009,-3.9916,-3.9979,-3.9859,-3.9881,-4.009,-4.002,-4.002,-4.009,-3.9903,-3.98,-3.98,-4.0471,-4.121,-4.2023,-4.29,-4.3726,-4.4501,-4.4426,-4.4368,-4.4404,-4.5499,-4.63,-4.6806,-4.66,-4.6701,-4.688,-4.5796,-4.5195,-4.504,-4.5866,-4.5641,-4.5021,-4.5528,-4.5172,-4.4501,-4.4501,-4.4501,-4.4501,-4.4501,-4.4501,-4.4487,0.0,0.0,0.0,-4.4329,-4.4329,-4.434,-4.4314,-4.427,-4.4255,-4.4255,-4.4226,-4.4192,-4.4192,-4.4101,-4.4005,-4.4005,-4.4005,-4.4005,-4.4005,-4.4265,-4.4469,-4.4469,0.0,0.0,0.0,0.0,0.0,0.0,0.0,-4.7642,-4.8037,-4.7591,-4.7204,-4.6908,-4.6742,-4.6271,-4.5501,-4.4431,-4.3395,-4.2359,-4.185,-4.2166,-4.3219,-4.3676,-4.4483,-4.5536,-4.5986,-4.6196,-4.6196,-4.6196,-4.6196,-4.6196,-4.6196,-4.6196,-4.6196,-4.6196,-4.6196,-4.6196,0.0,0.0,0.0,0.0,0.0,0.0,0.0,0.0,0.0,-4.0797,0.0,0.0,0.0,0.0,-4.0304,-4.0304,-4.005,-3.9935,-3.9989,-3.987,-3.9892,-4.009,-4.003,-4.003,-4.01,-3.9903,-3.9932,-4.0197,-4.0867,-4.1642,-4.2455,-4.3313,-4.3989,-4.4501,-4.444,-4.4411,-4.4491,-4.5892,-4.6645,-4.6873,-4.6663,-4.6749,-4.6824,-4.5139,-4.4501,-4.4576,-4.5115,-4.4946,-4.4576,-4.5115,-4.4946,-4.4501,-4.4501,-4.4501,-4.4501,-4.4501,-4.4501,-4.4501,-4.4458,-4.4473,-4.4487,0.0,-4.4401,-4.4411,-4.4387,-4.4358,-4.4329,-4.4329,-4.4314,-4.43,-4.43,-4.4192,-4.4082,-4.407,-4.407,-4.4055,-4.4005,-4.4005,-4.4005,-4.4005,0.0,0.0,0.0,0.0,0.0,0.0,0.0,0.0,-4.8071,-4.7929,-4.7548,-4.6931,-4.6908,-4.6323,-4.5098,-4.429,-4.3535,-4.2775,-4.199,-4.2026,-4.2833,-4.357,-4.4343,-4.5133,-4.5881,-4.6196,-4.6196,-4.6196,-4.6196,-4.6196,-4.6196,-4.6196,-4.6196,-4.6196,-4.6196,-4.6196,0.0,0.0,0.0,0.0,0.0,0.0,0.0,0.0,-4.0797,-4.0797,0.0,0.0,0.0,0.0,0.0,-3.9948,-3.9914,-3.9834,-3.9626,-3.9614,-3.9703,-3.9903,-3.9715,-3.9722,-3.9941,-3.9741,-4.004,-4.0835,-4.1629,-4.2474,-4.3313,-4.412,-4.4501,-4.4501,-4.4501,-4.4473,-4.4505,-4.5368,-4.6198,-4.687,-4.6063,-4.6261,-4.6824,-4.5139,-4.4501,-4.4501,-4.4501,-4.4501,-4.4501,-4.4501,-4.4501,-4.4501,-4.4501,-4.4501,-4.4501,-4.4501,-4.4501,-4.4501,0.0,0.0,0.0,0.0,0.0,0.0,-4.4501,0.0,-4.4397,-4.4397,-4.4358,-4.43,-4.43,-4.43,-4.427,-4.4214,-4.4199,-4.4169,-4.402,-4.4005,-4.4005,0.0,0.0,0.0,0.0,0.0,0.0,0.0,-4.6754,-4.7646,-4.7701,-4.8071,-4.7895,-4.6976,-4.6931,-4.6363,-4.5157,-4.4366,-4.3594,-4.2833,-4.2026,-4.2043,-4.2798,-4.3553,-4.4325,-4.5115,-4.5863,-4.6196,-4.6196,-4.6196,-4.6196,-4.6196,-4.6196,-4.6196,-4.6196,-4.6196,-4.6196,-4.6196,0.0,0.0,0.0,0.0,0.0,0.0,-4.0797,-4.0797,-4.0797,0.0,0.0,0.0,-4.0784,-4.0631,-4.0457,-4.0339,-4.007,-3.9946,-4.003,-3.9903,-3.9914,-4.011,-3.9916,-4.011,-4.0753,-4.0577,-4.0854,-4.1667,-4.2524,-4.3069,-4.3313,-4.412,-4.4501,-4.4501,-4.4501,-4.482,-4.5387,-4.6265,-4.7091,-4.777,-4.6959,-4.6786,-4.6824,-4.5139,-4.4501,-4.4501,-4.4501,-4.4501,-4.4501,-4.4501,-4.4501,-4.4501,-4.4501,-4.4501,-4.4501,-4.4501,-4.4501,-4.4501,-4.4501,0.0,0.0,0.0,0.0,0.0,0.0,0.0,-4.4468,-4.4468,-4.4458,-4.4444,-4.4444,-4.4444,-4.443,-4.4358,-4.43,-4.4211,-4.402,-4.4085,-4.4119,0.0,0.0,0.0,0.0,0.0,0.0,0.0,-4.5714,-4.6475,-4.7646,-4.8071,-4.8172,-4.7915,-4.7569,-4.7074,-4.6399,-4.5658,-4.4696,-4.3588,-4.2833,-4.2289,-4.199,-4.3289,-4.4009,-4.4308,-4.5617,-4.6196,-4.6196,-4.6196,-4.6196,-4.6196,-4.6196,-4.6196,-4.6196,-4.6196,-4.6196,-4.6196,0.0,0.0,0.0,0.0,0.0,-4.0797,-4.0797,-4.0797,-4.0797,0.0,0.0,0.0,-4.1135,-4.13,-4.1337,-4.1255,-4.1047,-4.0907,-4.094,-4.0836,-4.0825,-4.0959,-4.0836,-4.1,-4.146,-4.1362,-4.1717,-4.253,-4.3132,-4.3546,-4.3801,-4.4374,-4.4587,-4.4501,-4.4501,-4.5153,-4.6279,-4.6786,-4.7462,-4.8119,-4.7331,-4.7012,-4.6824,-4.5139,-4.4501,-4.4501,-4.4501,-4.4501,-4.4501,-4.4501,-4.4501,-4.4501,-4.4501,-4.4501,-4.4501,-4.4501,-4.4501,-4.4501,-4.4501,-4.4501,-4.4501,-4.4501,0.0,0.0,-4.4501,-4.4501,-4.4501,0.0,-4.4501,-4.4501,-4.4501,-4.4501,-4.4487,-4.4411,-4.4401,-4.431,-4.4162,-4.4165,-4.4169,0.0,0.0,0.0,0.0,-4.4005,-4.4209,-4.4711,-4.5082,-4.5992,-4.7608,-4.792,-4.8126,-4.8288,-4.8035,-4.7671,-4.7204,-4.6275,-4.5334,-4.4422,-4.3496,-4.263,-4.1888,-4.3125,-4.3772,-4.3974,-4.522,-4.5916,-4.6196,-4.6196,-4.6196,-4.6196,-4.6196,-4.6196,-4.6196,-4.6196,-4.6196,-4.6196,0.0,0.0,-4.0797,-4.0797,-4.0797,-4.0797,-4.0797,-4.0874,-4.0932,0.0,-4.0991,-4.1259,-4.182,-4.2325,-4.255,-4.2389,-4.2363,-4.2278,-4.2102,-4.209,-4.209,-4.209,-4.209,-4.2114,-4.2221,-4.2221,-4.2635,-4.3514,-4.3679,-4.4033,-4.4537,-4.4714,-4.4688,-4.4501,-4.4501,-4.542,-4.7012,-4.7012,-4.7462,-4.8119,-4.7331,-4.6936,-4.6692,-4.5101,-4.4501,-4.4501,-4.4501,-4.4501,-4.4501,-4.4501,-4.4501,-4.4501,-4.4501,-4.4501,-4.4501,-4.4501,-4.4501,-4.4501,-4.4501,-4.4501,-4.4501,-4.4501,-4.4501,0.0,-4.4501,-4.4501,-4.4501,0.0,-4.4501,-4.4501,-4.4501,-4.4501,-4.4487,-4.4411,-4.4473,-4.4458,-4.4314,-4.4259,-4.4214,0.0,0.0,0.0,-4.402,-4.402,-4.402,-4.4005,-4.4896,-4.6048,-4.7497,-4.7738,-4.7991,-4.8364,-4.8363,-4.8134,-4.7674,-4.6608,-4.5773,-4.518,-4.4109,-4.3093,-4.2234,-4.3033,-4.3576,-4.3939,-4.4746,-4.5536,-4.6196,-4.6196,-4.6196,-4.6196,-4.6196,-4.6196,-4.6196,-4.6196,-4.6196,-4.6196,0.0,-4.0797,-4.0797,-4.0797,-4.0797,-4.0797,-4.0797,-4.1351,-4.1777,-4.1777,-4.2247,-4.2676,-4.296,-4.2789,-4.2728,-4.2839,-4.2719,-4.261,-4.2559,-4.2559,-4.2559,-4.2559,-4.2559,-4.2864,-4.3531,-4.3531,-4.3958,-4.4824,-4.4868,-4.4844,-4.4733,-4.4782,-4.4688,-4.4501,-4.4501,-4.542,-4.7012,-4.7012,-4.7462,-4.8119,-4.7331,-4.658,-4.5848,-4.4857,-4.4501,-4.4501,-4.4501,-4.4501,-4.4501,-4.4501,-4.4501,-4.4501,-4.4501,-4.4501,-4.4501,-4.4501,-4.4501,-4.4501,-4.4501,-4.4501,-4.4501,-4.4501,-4.4501,0.0,-4.4501,-4.4501,-4.4501,0.0,-4.4501,-4.4501,-4.4501,-4.4501,-4.4501,-4.4487,-4.4501,-4.4458,-4.4314,-4.4344,-4.4344,-4.4285,0.0,0.0,-4.4169,-4.4169,-4.4119,-4.4005,-4.5417,-4.6401,-4.6717,-4.7961,-4.8707,-4.8785,-4.8785,-4.8569,-4.8172,-4.7929,-4.693,-4.5198,-4.4955,-4.3924,-4.2234,-4.3033,-4.3576,-4.3939,-4.4746,-4.5536,-4.6196,-4.6196,-4.6196,-4.6196,-4.6196,-4.6196,-4.6196,-4.6196,-4.6196,-4.6196,-4.0797,-4.0797,-4.0797,-4.0797,-4.1126,-4.139,-4.139,-4.2106,-4.2647,-4.2647,-4.32,-4.3649,-4.3736,-4.3743,-4.3838,-4.4087,-4.3784,-4.3703,-4.3921,-4.3808,-4.3817,-4.3931,-4.396,-4.4152,-4.4543,-4.4543,-4.4753,-4.5201,-4.5201,-4.5063,-4.48,-4.495,-4.4814,-4.4496,-4.4595,-4.5523,-4.7012,-4.7012,-4.7237,-4.7575,-4.7162,-4.6486,-4.5604,-4.4801,-4.4745,-4.5097,-4.5097,-4.5097,-4.5097,-4.5097,-4.4834,0.0,-4.4501,-4.4501,-4.4501,0.0,-4.4501,-4.4501,-4.4501,-4.4501,-4.4501,-4.4501,-4.4501,0.0,0.0,-4.4501,-4.4501,-4.4501,-4.4501,-4.4501,-4.4501,-4.4501,-4.4501,-4.4501,-4.4501,-4.4487,-4.4416,-4.4397,-4.4383,-4.434,0.0,0.0,-4.4259,-4.4259,-4.4195,-4.4119,-4.4867,-4.5688,-4.6457,-4.7256,-4.8073,-4.8872,-4.8909,-4.8803,-4.8605,-4.8401,-4.7682,-4.6434,-4.5789,-4.4778,-4.3445,-4.3212,-4.3492,-4.4213,-4.4402,-4.515,-4.6196,-4.6196,-4.6196,-4.6196,-4.6196,-4.6196,-4.6196,-4.6196,-4.6196,-4.6196,-4.0835,-4.0913,-4.1029,-4.1029,-4.1699,-4.2241,-4.2241,-4.2995,-4.3614,-4.3769,-4.4172,-4.4468,-4.4501,-4.4754,-4.5044,-4.5294,-4.4962,-4.4879,-4.5243,-4.5099,-4.5058,-4.5244,-4.5284,-4.5333,-4.5333,-4.5333,-4.5333,-4.5333,-4.5283,-4.515,-4.4943,-4.5118,-4.4969,-4.456,-4.4739,-4.5525,-4.6749,-4.6749,-4.6749,-4.6749,-4.6749,-4.6242,-4.5416,-4.4928,-4.5134,-4.5716,-4.5885,-4.596,-4.596,-4.596,-4.5416,-4.4726,-4.4726,-4.4613,0.0,0.0,0.0,0.0,0.0,0.0,0.0,0.0,0.0,-4.4501,0.0,0.0,0.0,0.0,0.0,0.0,0.0,0.0,0.0,0.0,0.0,0.0,0.0,-4.4552,0.0,-4.4411,0.0,0.0,-4.4314,-4.43,-4.4289,-4.4229,-4.4363,-4.5003,-4.6229,-4.6583,-4.7347,-4.863,-4.8816,-4.8909,-4.8909,-4.8587,-4.8163,-4.7701,-4.6484,-4.5497,-4.4671,-4.347,-4.3525,-4.4621,-4.4195,-4.4906,-4.6326,-4.6246,-4.6246,-4.6326,-4.6246,-4.6196,-4.6196,-4.6196,-4.6196,-4.6196,-4.0951,-4.1371,-4.1854,-4.1854,-4.2589,-4.315,-4.315,-4.3885,-4.4717,-4.542,-4.5414,-4.5423,-4.5609,-4.55,-4.5507,-4.5715,-4.5681,-4.5591,-4.5472,-4.5591,-4.5626,-4.5463,-4.5634,-4.573,-4.573,-4.573,-4.573,-4.573,-4.5541,-4.5454,-4.5427,-4.5264,-4.5041,-4.477,-4.4776,-4.5198,-4.5848,-4.5848,-4.5848,-4.5848,-4.5848,-4.5359,0.0,-4.5341,-4.5622,-4.5791,-4.658,-4.6861,-4.6861,0.0,-4.6279,-4.5566,0.0,-4.5078,-4.4501,-4.4501,0.0,0.0,0.0,0.0,0.0,0.0,-4.4501,0.0,0.0,0.0,-4.4501,-4.4501,0.0,0.0,0.0,0.0,0.0,0.0,0.0,0.0,-4.5453,-4.4932,-4.4501,-4.4501,-4.4487,0.0,0.0,-4.4344,-4.43,-4.4285,-4.4942,-4.5397,-4.5525,-4.6887,-4.7711,-4.7831,-4.8537,-4.8909,-4.8909,-4.8838,-4.8448,-4.7683,-4.6815,-4.5813,-4.4671,-4.3756,-4.3999,-4.508,-4.4621,-4.5334,-4.6771,-4.6374,-4.6471,-4.6771,-4.635,-4.6196,-4.6196,-4.6196,-4.6196,-4.6196,-4.1661,-4.2183,-4.2744,-4.2744,-4.3479,-4.4052,-4.4052,-4.4755,-4.5413,-4.5768,-4.573,-4.5658,-4.5626,-4.556,-4.5524,-4.5618,-4.5516,-4.5526,-4.5658,-4.5642,-4.5642,-4.5665,-4.5752,-4.5807,-4.5807,-4.5807,-4.5807,-4.5807,-4.5602,-4.549,-4.549,-4.5409,-4.5254,-4.5041,-4.5163,-4.5487,-4.594,-4.594,-4.5832,0.0,0.0,-4.551,0.0,-4.5566,-4.6298,-4.7256,-4.8138,-4.8138,-4.7706,0.0,-4.7143,0.0,0.0,0.0,0.0,-4.4632,0.0,0.0,0.0,0.0,0.0,0.0,0.0,0.0,-4.4501,0.0,-4.4501,0.0,0.0,0.0,0.0,0.0,0.0,0.0,-4.4707,0.0,0.0,0.0,-4.4501,0.0,0.0,0.0,0.0,0.0,0.0,0.0,-4.4658,-4.504,-4.5435,-4.6491,-4.7297,-4.7731,-4.8499,-4.8909,-4.8909,-4.8909,-4.8723,-4.8389,-4.7107,-4.6242,-4.5683,-4.4115,-4.418,-4.553,-4.51,-4.5645,-4.6886,-4.6695,-4.6719,-4.6886,-4.6672,-4.6771,-4.6954,-4.6398,-4.6374,-4.6572,-4.2841,-4.3227,-4.3653,-4.3653,-4.4369,-4.4929,-4.4929,-4.5413,-4.5807,-4.5807,-4.5807,-4.5745,-4.5602,-4.5585,-4.5585,-4.5585,-4.5445,-4.5463,-4.5708,-4.5634,-4.5626,-4.5715,-4.5766,-4.5807,-4.5807,-4.5807,-4.5807,-4.5807,-4.5602,-4.5535,-4.5585,-4.5535,-4.5552,-4.5629,-4.5486,-4.5672,-4.607,-4.5843,-4.56,-4.5397,-4.5688,-4.6031,-4.6392,-4.6392,-4.7293,-4.8645,-4.9265,-4.9096,-4.8551,-4.8551,-4.8007,0.0,-4.6336,0.0,-4.5547,0.0,0.0,0.0,-4.4501,0.0,0.0,0.0,0.0,0.0,0.0,0.0,0.0,0.0,0.0,0.0,0.0,0.0,0.0,-4.4782,0.0,-4.4576,0.0,-4.4632,0.0,0.0,0.0,0.0,0.0,0.0,0.0,-4.4426,-4.4426,-4.4645,-4.517,-4.6122,-4.6914,-4.7462,-4.8438,-4.8945,-4.8909,-4.8909,-4.8909,-4.889,-4.7274,-4.6494,-4.6438,-4.445,-4.4444,-4.5973,-4.5549,-4.6085,-4.727,-4.7138,-4.716,-4.727,-4.7138,-4.7464,-4.784,-4.6913,-4.6794,-4.7026,-4.4516,-4.4536,-4.4555,-4.4555,-4.522,-4.5768,-4.5768,-4.5787,-4.5807,-4.5807,-4.5807,-4.58,-4.58,-4.58,-4.58,-4.58,-4.5773,-4.5688,-4.5516,-4.5692,-4.5715,-4.5526,-4.5708,-4.5807,-4.5807,-4.5807,-4.5807,-4.5807,-4.5602,-4.5602,-4.5793,-4.5594,-4.5951,-4.6692,-4.5677,-4.554,-4.6038,-4.5198,-4.4713,-4.4622,-4.5671,-4.689,-4.8119,0.0,-4.8683,-4.9471,-4.949,0.0,0.0,-4.9471,-4.887,0.0,0.0,0.0,0.0,0.0,0.0,0.0,0.0,0.0,0.0,-4.4501,0.0,0.0,0.0,0.0,-4.4501,0.0,0.0,0.0,0.0,0.0,-4.4745,-4.5528,-4.5021,0.0,0.0,0.0,0.0,0.0,0.0,0.0,0.0,0.0,-4.4501,-4.4501,-4.4501,-4.4473,-4.4435,-4.5937,-4.6744,-4.6643,-4.8245,-4.9032,-4.8909,-4.8909,-4.8909,-4.889,-4.7274,-4.6494,-4.6438,-4.4751,-4.4899,-4.6461,-4.5991,-4.6708,-4.8229,-4.7775,-4.7836,-4.821,-4.7736,-4.8097,-4.8749,-4.7879,-4.7569,-4.7569,-4.5394,-4.5394,-4.5394,-4.5394,-4.5633,-4.5807,-4.5807,-4.5807,-4.5807,-4.5807,-4.5807,-4.5745,-4.5618,-4.5723,-4.5745,-4.5618,-4.5723,-4.5766,-4.5688,-4.5759,-4.5759,-4.5708,-4.5759,-4.5807,-4.5807,-4.5807,-4.5807,-4.5807,-4.573,-4.5737,-4.5807,-4.573,-4.5862,-4.6125,-4.5615,-4.5515,0.0,0.0,0.0,0.0,0.0,-4.8282,-4.9002,0.0,-4.8739,-4.9509,-4.9509,-4.9509,0.0,-4.8833,-4.8438,-4.795,-4.658,-4.5941,-4.5547,-4.4726,-4.4501,0.0,0.0,0.0,-4.4632,-4.5172,0.0,0.0,0.0,0.0,0.0,0.0,0.0,0.0,0.0,0.0,-4.4576,-4.4857,-4.467,-4.4594,0.0,0.0,0.0,0.0,0.0,0.0,0.0,0.0,0.0,-4.4501,-4.4501,-4.4501,-4.4473,-4.5442,-4.6225,-4.6725,-4.7799,-4.8576,-4.9032,-4.9032,-4.8979,-4.889,-4.7274,-4.6494,-4.6438,-4.4766,-4.4915,-4.6494,-4.6323,-4.7038,-4.8287,-4.8132,-4.8152,-4.8287,-4.8132,-4.842,-4.8803,-4.7919,-4.7795,-4.8015,-4.5807,-4.5807,-4.5807,-4.5807,-4.5807,-4.5807,-4.5807,-4.5807,-4.5807,-4.5807,-4.5807,-4.5996,-4.6475,-4.665,-4.6904,-4.7373,-4.7268,-4.7192,-4.7192,-4.6619,-4.6271,-4.6271,-4.5981,-4.5807,-4.5807,-4.5807,-4.5807,-4.5807,-4.5807,-4.5807,-4.5807,-4.5807,-4.5981,-4.6245,-4.5728,-4.5671,-4.5951,-4.5822,-4.6049,0.0,0.0,-4.9447,0.0,0.0,-4.9865,-5.0353,0.0,-5.0353,-5.0278,-4.9715,-4.9321,-4.8795,-4.7124,-4.6392,-4.5941,-4.482,-4.4501,-4.4501,-4.4501,-4.4501,0.0,-4.5153,-4.4941,0.0,-4.5167,0.0,-4.4608,0.0,0.0,0.0,0.0,0.0,-4.4524,-4.4613,-4.4551,-4.4501,0.0,-4.4653,0.0,0.0,0.0,0.0,0.0,-4.4501,-4.4501,-4.4501,-4.4501,-4.4501,0.0,0.0,-4.5985,-4.6765,-4.7598,-4.8394,-4.9133,-4.9133,-4.9083,-4.896,-4.7622,-4.6806,-4.6457,-4.5379,-4.5472,-4.6513,-4.6791,-4.7527,-4.8513,-4.8513,-4.8513,-4.8513,-4.8513,-4.8678,-4.8838,-4.827,-4.8251,-4.8458,-4.5807,-4.5807,-4.5807,-4.5807,-4.5807,-4.5807,-4.5807,-4.5807,-4.5826,-4.5865,-4.5904,-4.6581,-4.8275,-4.8508,-4.9165,-5.0763,-5.021,-4.9765,-4.9765,-4.8217,-4.727,-4.7231,-4.6387,-4.5904,-4.5865,-4.5826,-4.5807,-4.5807,-4.5807,-4.5807,-4.5807,-4.5807,-4.6252,-4.6992,-4.596,-4.5979,-4.6796,-4.6787,-4.6753,-4.6893,-4.9049,-5.0437,-5.1291,-5.1792,-5.2003,-5.2022,-5.1931,-5.1912,-5.1893,-5.1818,-5.1273,-5.035,-4.8664,-4.7612,-4.6692,-4.5082,-4.4594,-4.4557,-4.4557,-4.4519,-4.4501,-4.4538,0.0,0.0,0.0,0.0,-4.4812,0.0,0.0,0.0,0.0,0.0,0.0,-4.477,-4.4642,-4.4524,-4.451,0.0,-4.5096,0.0,0.0,0.0,0.0,-4.4515,-4.4501,-4.4501,-4.4501,-4.4501,0.0,0.0,-4.5992,-4.6799,-4.7623,-4.8418,-4.9195,-4.9195,-4.9164,-4.9083,-4.8226,-4.7339,-4.651,-4.6494,-4.6494,-4.6531,-4.7348,-4.8166,-4.8909,-4.8909,-4.8909,-4.8909,-4.8909,-4.8909,-4.8909,-4.8909,-4.8909,-4.8909,-4.5807,-4.5807,-4.5807,-4.5807,-4.5807,-4.5807,-4.5807,-4.5807,-4.6039,-4.667,-4.7328,-4.814,-4.9243,-4.99,-5.0434,-5.0859,-5.0705,-5.0589,-5.0589,-5.0163,-4.9668,-4.9068,-4.8198,-4.7424,-4.6786,-4.6136,-4.5807,-4.5807,-4.5807,-4.5807,-4.5807,-4.5807,-4.5923,-4.6129,-4.569,-4.6067,-4.7009,-4.6868,-4.7856,-4.9643,-5.082,-5.2085,-5.3251,0.0,-5.3532,-5.3864,-5.2422,-5.1912,-5.1724,-5.0522,-4.9978,-4.9527,-4.7838,-4.7181,-4.6918,-4.6471,-4.5904,-4.5397,-4.5397,-4.4965,-4.4632,-4.5247,-4.5089,-4.4965,0.0,0.0,0.0,0.0,0.0,0.0,0.0,0.0,0.0,-4.4788,-4.4915,-4.4957,-4.4752,0.0,0.0,-4.4825,0.0,0.0,-4.4726,-4.46,-4.4501,-4.4501,-4.4501,0.0,0.0,0.0,0.0,-4.6892,-4.7155,-4.7912,-4.9257,-4.9276,-4.9228,-4.9164,-4.824,-4.7371,-4.6573,-4.6527,-4.6494,-4.6531,-4.7348,-4.8166,-4.8909,-4.8909,-4.8909,-4.8909,-4.8909,-4.8909,-4.8909,-4.8909,-4.8909,-4.8909,-4.5807,-4.5807,-4.5807,-4.5807,-4.5807,0.0,-4.5807,-4.6116,0.0,-4.7038,-4.8198,0.0,-5.0654,-5.1544,-5.2337,-5.3064,-5.2812,-5.2608,-5.2608,-5.1892,-5.1273,-5.0809,-4.9629,-4.874,-4.8256,-4.6999,-4.6368,-4.6368,-4.6,-4.5807,-4.5807,-4.5807,-4.5807,-4.58,-4.5673,-4.6183,-4.7173,-4.8163,-4.9646,-5.1392,-5.2492,-5.3437,0.0,-5.4274,-5.4585,-5.4829,-5.3741,-5.2971,-5.2325,-5.1424,-5.0616,-4.979,-4.8495,-4.7838,-4.7462,-4.7105,-4.6655,-4.6214,-4.5946,-4.5534,-4.524,-4.5432,-4.5285,-4.5203,-4.5616,-4.5505,-4.5323,0.0,0.0,0.0,0.0,0.0,0.0,-4.4966,-4.5182,-4.5254,0.0,0.0,0.0,0.0,-4.512,0.0,-4.4977,-4.4687,-4.4501,-4.4501,-4.4501,0.0,0.0,0.0,0.0,-4.6955,-4.7012,-4.777,-4.9355,-4.9374,-4.9155,-4.8723,-4.8511,-4.7774,-4.6624,-4.7252,-4.7367,-4.707,-4.7887,-4.8481,-4.8909,-4.8909,-4.8909,-4.8909,-4.8909,-4.8909,-4.8909,-4.8909,-4.8909,-4.8909,-4.5807,-4.5807,-4.5807,-4.5807,-4.5884,0.0,0.0,-4.6786,0.0,-4.756,0.0,-5.0809,-5.2356,-5.3304,-5.4407,-5.5877,-5.5354,-5.4967,-5.4967,-5.3536,-5.2647,-5.2558,-5.1041,-5.0094,-4.9861,-4.8275,-4.7328,-4.7096,-4.6348,-4.5904,-4.5807,-4.5807,-4.5807,-4.5807,-4.5923,0.0,0.0,-5.0035,-5.1563,-5.2484,-5.3899,-5.4513,-5.4666,-5.5085,-5.5256,-5.5243,-5.5218,-5.4387,-5.3279,-5.3166,-5.2062,-5.062,-4.9796,-4.8995,-4.8232,-4.7537,-4.7256,-4.7051,-4.6561,-4.6354,-4.6132,-4.553,-4.5525,-4.5589,-4.5312,-4.539,-4.5552,-4.5552,-4.5399,-4.5371,0.0,0.0,0.0,0.0,0.0,0.0,0.0,0.0,0.0,0.0,0.0,0.0,0.0,0.0,0.0,0.0,0.0,0.0,0.0,0.0,0.0,-4.6955,-4.7012,-4.78,-4.949,0.0,-4.9087,-4.8278,-4.8926,-4.8359,-4.6842,-4.8271,-4.8497,-4.7772,-4.8573,-4.8926,-4.8926,-4.8909,-4.8909,-4.8909,-4.8909,-4.8909,-4.8909,-4.8909,-4.8909,-4.8909,-4.5807,-4.5807,-4.5807,-4.5807,-4.6387,-4.7115,-4.7831,-4.8063,-4.8662,-5.0047,-5.1757,-5.3227,-5.4233,-5.5064,-5.5683,-5.5973,-5.5877,0.0,0.0,0.0,0.0,-5.4368,-5.3362,-5.2163,-5.0724,-4.9745,-4.8546,-4.7096,0.0,-4.6503,-4.5807,-4.5807,-4.5807,-4.5826,-4.6561,0.0,-4.9359,-5.1196,0.0,-5.3362,-5.4334,-5.5128,-5.5709,-5.5581,-5.5533,-5.55,-5.5281,-5.4594,-5.3688,-5.3015,-5.1993,-5.0875,-5.0024,-4.9531,-4.9246,-4.9096,-4.8551,-4.8025,-4.8132,-4.7675,-4.703,-4.6418,-4.6426,-4.6374,-4.5627,-4.561,-4.5745,-4.5745,-4.5723,-4.5677,-4.5577,0.0,0.0,0.0,0.0,0.0,0.0,0.0,0.0,0.0,0.0,-4.5418,0.0,0.0,0.0,0.0,0.0,0.0,0.0,0.0,0.0,0.0,-4.7012,0.0,0.0,0.0,-4.9418,-4.9252,-4.9268,-4.8771,-4.7872,-4.8749,-4.8716,-4.7988,-4.8746,-4.9049,-4.9068,-4.8962,-4.8909,-4.8909,-4.8909,-4.8909,-4.8909,-4.8909,-4.8909,-4.8909,-4.6561,-4.6844,-4.6999,-4.6561,0.0,0.0,0.0,-5.0074,-5.0654,-5.1467,-5.3091,-5.4329,-5.4755,-5.5528,-5.6012,-5.6012,-5.6012,-5.6012,-5.6012,-5.6012,-5.5838,-5.5451,-5.4619,-5.3788,-5.2937,-5.1207,-4.9919,-4.9068,0.0,0.0,-4.6484,0.0,0.0,-4.6542,0.0,-4.9146,0.0,0.0,0.0,-5.4252,-5.5084,-5.5644,-5.5995,-5.5865,-5.5808,-5.5741,-5.5197,-5.4425,-5.3595,-5.2908,-5.1783,-5.0564,-5.0146,-4.9849,-4.9669,-4.9669,-4.9367,-4.9003,-4.8815,-4.8579,-4.825,-4.7635,-4.7212,-4.6846,-4.6422,-4.6058,-4.5807,-4.5807,-4.5807,-4.5766,-4.5665,-4.565,0.0,0.0,0.0,0.0,0.0,0.0,-4.5759,0.0,0.0,0.0,0.0,0.0,0.0,0.0,0.0,-4.4501,0.0,0.0,0.0,0.0,0.0,0.0,0.0,0.0,0.0,-4.8833,-4.9602,-4.9533,-4.8765,-4.9938,-5.0036,-4.927,-4.9614,-4.9508,-4.9084,-4.8962,-4.8909,-4.8909,-4.8909,-4.8943,-4.9015,-4.8926,-4.8943,-4.8996,-4.7502,-4.7927,-4.8237,-4.7734,-4.8353,-4.9436,-5.0945,-5.2066,-5.2743,-5.2743,-5.4097,-5.5064,-5.5064,-5.5625,-5.6012,-5.6012,-5.6012,-5.6012,-5.6012,-5.6012,-5.6012,-5.6012,-5.5393,-5.4967,-5.4793,-5.2782,-5.1459,0.0,0.0,0.0,0.0,0.0,0.0,0.0,0.0,0.0,0.0,0.0,-5.344,-5.431,-5.5142,-5.547,-5.547,-5.547,-5.547,-5.5393,-5.4755,-5.3962,-5.3166,-5.2745,-5.1564,-5.0294,-5.0294,-5.0092,-4.9897,-4.9897,-4.9897,-4.9778,-4.9366,-4.9419,-4.9422,-4.8837,-4.8159,-4.7599,-4.7424,-4.6689,-4.6078,-4.6078,-4.5923,-4.5807,-4.5807,-4.5807,0.0,0.0,0.0,0.0,0.0,0.0,-4.5807,0.0,0.0,0.0,-4.5352,0.0,0.0,0.0,0.0,-4.4551,-4.4501,-4.5266,-4.6186,0.0,0.0,-4.8701,-4.9734,0.0,-4.9246,-4.8739,-5.0027,-5.0258,-4.964,-5.0904,-5.102,-5.02,-5.0183,-4.9778,-4.91,-4.9013,-4.896,-4.896,-4.896,-4.903,-4.9118,-4.8996,-4.9015,-4.9084,-4.8295,-4.8333,0.0,0.0,0.0,-5.1003,-5.1931,-5.3478,-5.4561,-5.4561,-5.5335,-5.5896,-5.5896,-5.5954,-5.6012,-5.6012,-5.6012,-5.6012,-5.6012,-5.6012,-5.6012,-5.6012,-5.5935,-5.5548,-5.4813,-5.4561,-5.3265,0.0,0.0,-4.9436,0.0,0.0,0.0,0.0,0.0,0.0,0.0,-5.1072,-5.166,-5.2519,-5.3382,-5.373,-5.373,-5.373,-5.373,-5.371,-5.3652,-5.3053,-5.2318,-5.2266,-5.1508,-5.0557,-5.0557,-5.0383,-5.0171,-5.0171,-5.0171,-5.0199,-5.0381,-5.0462,-5.0327,-4.9718,-4.9513,-4.9243,-4.8469,-4.7599,-4.698,-4.698,-4.6348,-4.5807,-4.5807,-4.5807,-4.5807,0.0,0.0,0.0,0.0,0.0,-4.5807,-4.5807,0.0,0.0,-4.5745,-4.5602,0.0,0.0,-4.5014,-4.4688,-4.4515,-4.5266,-4.643,-4.8044,0.0,-4.8964,-5.0576,-4.9865,-4.9828,-5.0482,-5.0616,-5.0654,-5.0579,-5.0713,-5.0356,-4.9571,-4.9455,-4.9319,-4.9197,-4.9181,-4.9162,-4.9162,-4.9162,-4.9181,-4.9181,-4.91,-4.9084,-4.9101,0.0,0.0,0.0,0.0,0.0,0.0,0.0,-5.4349,-5.4967,-5.547,-5.5799,-5.6012,-5.6012,-5.6012,-5.6012,-5.6012,-5.6012,-5.6012,-5.6012,-5.6012,-5.6012,-5.6012,-5.6012,-5.5857,-5.5528,-5.5045,-5.4039,0.0,0.0,0.0,0.0,0.0,0.0,0.0,0.0,-5.0113,-5.1679,-5.1679,-5.2182,-5.3014,-5.3362,-5.3498,-5.3498,-5.3498,-5.3498,-5.342,-5.2898,-5.25,-5.2132,-5.1602,-5.1128,-5.078,-5.078,-5.0625,-5.0436,-5.0436,-5.0436,-5.0457,-5.0567,-5.0691,-5.072,-5.0476,-5.0055,-4.961,-4.9262,-4.8508,-4.7734,-4.7212,-4.6406,-4.5807,-4.5807,-4.5807,-4.5807,0.0,0.0,0.0,0.0,0.0,0.0,-4.5807,0.0,-4.5752,-4.5634,-4.565,0.0,0.0,0.0,-4.477,-4.4675,-4.582,-4.6786,-4.7462,0.0,-4.9302,-4.9959,-4.9133,-4.9133,-4.9978,-5.0482,-5.0707,-5.0745,-5.174,-5.1477,-5.0185,-4.9565,-4.9273,-4.926,-4.9211,-4.9214,-4.9214,-4.9214,-4.9228,-4.9244,-4.9181,-4.92,-4.923,-5.1235,0.0,-5.2364,0.0,-5.3459,-5.4097,-5.4716,-5.5006,-5.5277,-5.5606,-5.5857,-5.6012,-5.6012,-5.6012,-5.6012,-5.6012,-5.6012,-5.6012,-5.6012,-5.6012,-5.6012,-5.6012,-5.578,0.0,-5.5644,-5.4832,-5.3981,-5.3111,-5.3111,0.0,0.0,0.0,0.0,0.0,-5.0055,-5.05,-5.1796,-5.1563,-5.195,-5.2743,-5.2743,-5.2743,-5.2743,-5.2743,-5.2743,-5.2647,-5.2047,-5.1815,-5.1718,-5.1111,-5.0898,-5.0898,-5.0898,-5.0797,-5.0691,-5.0691,-5.0691,-5.0691,-5.0691,-5.0789,-5.0898,-5.0898,-5.0473,-5.0055,-5.0055,-4.9397,-4.8527,-4.7657,-4.6786,-4.6174,-4.6174,-4.5981,-4.5807,-4.5807,0.0,0.0,0.0,-4.5807,0.0,-4.5807,-4.5807,-4.5745,-4.5602,-4.5723,0.0,0.0,0.0,0.0,-4.5899,-4.6668,0.0,0.0,0.0,0.0,0.0,-4.8889,-4.8889,-4.9509,-5.0316,-5.0707,-5.0745,-5.1684,-5.1461,-5.0297,-4.9652,-4.9358,-4.9358,-4.9311,-4.9279,-4.9279,-4.9279,-4.9311,-4.9358,-4.926,-4.926,-4.9308,-5.2008,-5.219,-5.2743,-5.4465,-5.4774,-5.4793,-5.4793,-5.547,-5.5702,-5.4929,-5.5509,-5.6012,-5.6012,-5.6012,-5.6012,-5.6012,-5.6012,-5.6012,-5.6012,-5.6012,-5.6012,0.0,0.0,-5.4813,-5.4813,-5.3962,-5.3091,-5.2229,0.0,0.0,-4.9707,0.0,-5.0152,-5.0859,-5.0055,-5.0152,-5.0859,-5.0074,-5.021,-5.0937,-5.0937,-5.0937,-5.0937,-5.0937,-5.0937,-5.0937,-5.0917,-5.0917,-5.0917,-5.0898,-5.0898,-5.0898,-5.0898,-5.0898,-5.0898,-5.0898,-5.0898,-5.0898,-5.0898,-5.0898,-5.0898,-5.0898,-5.0898,-5.0898,-5.0898,-5.026,-4.9436,-4.8566,-4.7695,-4.7076,-4.7076,-4.6387,-4.5807,-4.5807,0.0,0.0,0.0,-4.5807,0.0,-4.5807,-4.5807,-4.5807,-4.58,-4.5807,0.0,0.0,0.0,0.0,0.0,0.0,0.0,-5.0576,-4.9903,0.0,-4.9509,-4.949,-4.949,-4.9509,-5.0316,-5.0707,-5.067,-4.9903,-4.9527,-4.9509,-4.9509,-4.9509,-4.9509,-4.9509,-4.9509,-4.9509,-4.9509,-4.9509,-4.9474,-4.9358,-4.9308,-4.9308,-5.3672,-5.3962,-5.431,-5.5432,-5.5625,-5.5625,-5.5625,-5.5838,-5.5915,-5.5644,-5.5838,-5.6012,-5.6012,-5.6012,-5.6012,0.0,-5.6012,-5.578,0.0,-5.518,-5.4929,-5.431,-5.4039,-5.3904,-5.3904,-5.3633,-5.3072,-5.221,0.0,0.0,0.0,-5.0229,-5.0132,-5.0859,-5.0055,-5.0152,-5.0879,-5.0627,-5.0666,-5.0898,-5.0898,-5.0898,-5.0898,-5.0898,-5.0898,-5.0898,-5.0898,-5.0898,-5.0821,-5.026,-5.0074,-4.9977,-4.9378,-4.997,-5.0898,-5.0898,-5.0898,-5.0898,-5.0898,-5.0898,-5.0898,-5.0898,-5.0898,-5.0898,-5.0898,-5.0279,-4.9629,-4.9339,-4.8585,-4.7985,-4.7985,-4.727,-4.6689,-4.6689,-4.6194,0.0,-4.5807,0.0,-4.5807,-4.5807,-4.5807,-4.6039,-4.6639,-4.6689,0.0,0.0,0.0,0.0,0.0,0.0,0.0,0.0,-4.8739,0.0,-4.949,-4.8363,-4.8363,-4.9509,-4.9753,-5.0166,-5.067,-4.9865,-4.9509,-4.9509,-4.9509,-4.9509,-4.9509,-4.9509,-4.9509,-4.9509,-4.9509,-4.9509,-4.949,-4.9459,-4.9443,-4.9443,-5.4523,-5.4793,-5.5045,-5.5857,-5.6012,-5.6012,-5.6012,-5.6012,-5.6012,-5.6012,-5.6012,-5.6012,-5.6012,-5.5741,0.0,-5.5548,-5.5258,-5.4851,-5.4349,-5.431,-5.4078,-5.3517,-5.3188,-5.2859,-5.2531,-5.2221,0.0,-5.077,-5.1641,-5.1796,-5.1235,-5.05,-5.0415,-5.0879,-5.0376,-5.0434,-5.0898,-5.0898,-5.0898,-5.0898,-5.0898,-5.0898,-5.0898,-5.0898,-5.0898,-5.0898,-5.0898,-5.0898,-5.0782,-4.9977,-4.99,-4.9958,-4.8778,-4.9339,-5.0453,-5.0453,-5.0666,-5.0898,-5.0898,-5.0898,-5.0898,-5.0898,-5.0898,-5.0898,-5.0898,-5.0511,-5.0152,-5.0152,-4.9475,-4.8894,-4.8894,-4.8179,-4.7579,-4.7579,-4.7134,-4.6786,-4.6786,0.0,-4.6786,0.0,0.0,0.0,0.0,-4.7579,-4.8043,0.0,0.0,0.0,0.0,0.0,0.0,-4.88,-4.8419,0.0,-4.857,-4.7819,-4.7988,-4.902,-4.934,-4.9753,-5.0222,-4.9734,-4.9509,-4.9509,-4.9509,-4.9509,-4.9509,-4.9509,-4.9509,-4.9509,-4.9509,-4.9509,-4.9509,-4.9509,-4.9509,-4.9509,-5.4716,-5.4871,-5.5122,0.0,-5.6012,0.0,-5.6012,-5.6012,-5.6012,-5.6012,-5.5954,-5.5915,-5.5915,-5.5142,-5.4619,-5.4619,0.0,0.0,0.0,-5.3304,-5.3246,-5.3246,-5.2395,-5.1563,-5.0743,-4.9997,-4.9243,-4.8488,-4.9243,-4.9668,-4.9803,-5.0492,-5.084,-5.0898,-5.0898,-5.0898,-5.0898,-5.0898,-5.0898,-5.0898,-5.0898,-5.0898,-5.0898,-5.0898,-5.0898,-5.0898,-5.0898,-5.0898,-5.0782,-4.9977,-5.021,-5.0531,-4.8914,-4.8991,-4.9707,-4.9707,-5.0221,-5.0821,-5.0879,-5.0898,-5.0898,-5.0898,-5.0898,-5.0898,-5.0898,-5.0898,-5.0898,-5.0898,-5.0299,-4.9784,-4.9784,-4.9068,-4.8488,-4.8488,-4.843,-4.8392,-4.8392,-4.8392,-4.8392,0.0,0.0,0.0,0.0,-4.8488,-4.8508,0.0,0.0,0.0,0.0,0.0,-4.9172,-4.9703,-4.8691,-4.7781,-4.7087,-4.7838,-4.8232,-4.8288,-4.9114,-4.9509,-4.9509,-4.9509,-4.9509,-4.9509,-4.9509,-4.9509,-4.9509,-4.9509,-4.9509,-4.9509,-4.9509,-4.9509,-4.9509,-4.9509,-4.9509,-4.9509,0.0,0.0,-5.578,-5.5973,-5.6012,-5.6012,-5.6012,-5.6012,-5.6012,-5.6012,-5.547,-5.5084,-5.5084,-5.373,-5.2821,-5.2821,-5.2635,-5.2519,-5.2519,-5.1312,-5.0596,-5.0596,-4.9765,-4.9204,-4.901,-4.8817,-4.8933,-4.9397,-4.8933,-4.9359,-5.0608,-5.019,-5.0299,-5.0898,-5.0898,-5.0898,-5.0898,-5.0898,-5.0898,-5.0898,-5.0898,-5.0898,-5.0898,-5.0898,-5.0898,-5.0898,-5.0898,-5.0898,-5.0782,-4.9977,-4.9823,-4.9803,-4.874,-4.8991,-4.9707,-4.9707,-4.9842,-5.0132,-5.0724,-5.0898,-5.0898,-5.0898,-5.0898,-5.0898,-5.0898,-5.0898,-5.0898,-5.0898,-5.0743,-5.0608,-5.0608,-4.9958,-4.9397,-4.9397,-4.8836,-4.8392,-4.8392,-4.8392,-4.8392,0.0,-4.8392,-4.8662,-4.9339,-4.9397,-4.9649,0.0,0.0,0.0,0.0,-4.9355,-4.9119,-4.8888,-4.7829,-4.75,-4.7913,-4.8101,-4.8532,-4.9189,-4.9396,-4.9509,-4.9509,-4.9509,-4.9509,-4.9509,-4.9509,-4.9509,-4.9509,-4.9509,-4.9509,-4.9509,-4.9509,-4.9509,-4.9509,-4.9509,-4.9509,-4.9509,-5.596,-5.6057,-5.6037,-5.6012,-5.6012,-5.6012,-5.6012,-5.6012,-5.5877,-5.5509,-5.5064,-5.4658,-5.4252,-5.3014,-5.221,-5.221,-5.1834,-5.1602,-5.1602,-5.0751,-5.0241,-5.0241,-4.9436,-4.8817,-4.8411,-4.8005,-4.8043,-4.8508,-4.8043,-4.8488,-4.9765,-4.9726,-4.9939,-5.0376,-5.0743,-5.0898,-5.0898,-5.0898,-5.0898,-5.0898,-5.0898,-5.0898,-5.0898,-5.0898,-5.0898,-5.0898,-5.0898,-5.0898,-5.0782,-4.9977,-4.9707,-4.9552,-4.8662,-4.872,-4.9107,-4.9107,-4.9397,-4.9803,-5.0221,-5.0337,-5.0434,-5.0801,-5.0898,-5.0898,-5.0898,-5.0898,-5.0898,-5.0898,-5.0898,-5.0898,-5.0898,-5.0531,-5.0241,-5.0241,-4.9861,-4.9552,-4.9552,-4.9552,0.0,-4.9552,-4.9552,-4.9726,-5.0202,-4.9919,-4.9881,-5.0318,-4.9591,0.0,-4.9687,-4.9099,-4.8574,-4.8205,-4.7886,-4.7871,-4.8209,-4.8589,-4.9039,-4.9509,-4.9509,-4.9509,-4.9509,-4.9509,-4.9509,-4.9509,-4.9509,-4.9509,-4.9509,-4.9509,-4.9509,-4.9509,-4.9509,-4.9509,-4.9509,-4.9509,-4.9509,-4.9509,-5.6125,-5.6125,-5.6098,-5.6037,-5.6029,-5.6029,-5.602,-5.5904,-5.5576,-5.489,-5.4561,-5.4136,-5.3382,-5.2531,-5.1989,-5.1989,-5.1331,-5.0898,-5.0898,-5.0666,-5.0569,-5.0705,-4.9939,-4.9107,-4.8217,-4.7482,-4.7154,-4.7289,-4.7154,-4.7618,-4.8604,-4.9223,-4.9494,-4.9533,-5.0357,-5.0647,-5.0531,-5.0666,-5.0724,-5.0724,-5.084,-5.0898,-5.0898,-5.0898,-5.0898,-5.0898,-5.0898,-5.0898,-5.0801,-5.0113,-4.9803,-4.9571,-4.8836,-4.8508,-4.8372,-4.8237,-4.874,-4.9339,-4.9475,-4.961,-4.9861,-5.055,-5.0801,-5.0898,-5.0898,-5.0898,-5.0898,-5.0898,-5.0898,-5.0898,-5.0898,-5.0898,-5.0898,-5.0898,-5.0898,-5.0898,-5.0898,0.0,-5.0898,-5.0898,-5.0898,-5.084,-5.0724,-5.0113,-4.9707,-4.9707,-4.8894,-4.8778,-4.9649,-4.8844,-4.8222,-4.7941,-4.8377,-4.8559,-4.8438,-4.9172,-4.9548,-4.9548,-4.9505,-4.9509,-4.9509,-4.9509,-4.9509,-4.9509,-4.9509,-4.9509,-4.9509,-4.9509,-4.9509,-4.9509,-4.9509,-4.9509,-4.9509,-4.9509,-4.9509,-4.9509,-5.6191,-5.6191,-5.6184,-5.6164,-5.6157,-5.6149,-5.609,-5.547,-5.4931,-5.4821,-5.3517,-5.2558,-5.2422,-5.1621,-5.1091,-5.1091,-5.0975,-5.0898,-5.0898,-4.9571,-4.9126,-4.9861,-4.9068,-4.8198,-4.7308,-4.7173,-4.7463,-4.8198,-4.7463,-4.7927,-4.9494,-4.8875,-4.8604,-4.8643,-4.9494,-4.9475,-4.8836,-4.9571,-4.99,-4.9958,-5.0627,-5.0898,-5.0898,-5.0898,-5.0898,-5.0898,-5.0898,-5.0898,-5.0879,-5.0763,-5.026,-4.9687,-4.9533,-4.8991,-4.8256,-4.7521,-4.7405,-4.7657,-4.8392,-4.9146,-4.9726,-4.9861,-5.0395,-5.0898,-5.0898,-5.0898,-5.0898,-5.0898,-5.0898,-5.0898,-5.0898,-5.0898,-5.0898,-5.0898,-5.0898,-5.0898,-5.0898,0.0,-5.0898,-5.0898,-5.0898,-5.0627,-4.9958,-4.9765,-4.9707,-4.9707,-4.8894,-4.8778,-4.9649,-4.9548,-4.9335,-4.9067,-4.876,-4.8918,-4.9559,-4.9678,-4.9754,-4.9754,-4.9589,-4.9509,-4.9509,-4.9509,-4.9509,-4.9509,-4.9509,-4.9509,-4.9509,-4.9509,-4.9509,-4.9509,-4.9509,-4.9509,-4.9509,-4.9509,-4.9509,-4.9509,-5.619,-5.619,-5.6047,-5.5579,-5.5494,-5.5339,-5.4831,-5.4812,-5.4514,-5.3588,-5.3162,-5.262,-5.171,-5.1257,-5.1005,-5.1005,-5.0971,-5.0956,-5.0956,-5.0198,-4.9939,-5.0318,-4.9107,-4.7773,-4.6426,-4.6406,-4.7057,-4.8392,-4.7057,-4.7289,-4.8972,-4.8101,-4.7695,-4.7734,-4.8604,-4.8778,-4.8469,-4.9339,-4.9707,-4.9765,-5.0569,-5.0898,-5.0898,-5.0898,-5.0898,-5.084,-5.0415,-5.0531,-5.0763,-4.9861,-4.932,-4.8991,-4.8991,-4.8392,-4.7618,-4.7212,-4.7096,-4.7192,-4.7579,-4.8333,-4.9107,-4.9591,-4.9977,-5.0376,-5.0801,-5.0898,-5.0898,-5.0898,-5.0898,-5.0898,-5.0898,-5.0898,-5.0898,-5.0898,-5.0898,0.0,0.0,-5.0898,-5.0898,-5.0898,-5.0511,-5.0113,-4.9745,-4.9281,-4.9184,-4.9668,-4.8894,-4.8972,-5.0279,-4.9939,-4.9842,-5.0145,-4.9723,-4.9644,-5.0006,-5.0025,-4.993,-4.9803,-4.9703,-4.96,-4.9509,-4.9509,-4.9509,-4.9509,-4.9509,-4.9509,-4.9509,-4.9509,-4.9509,-4.9509,-4.9509,-4.9509,-4.9509,-4.9509,-4.9509,-4.9509,-5.5676,-5.5631,-5.541,-5.4735,-5.4612,-5.4398,-5.3732,-5.4016,-5.3841,-5.2477,-5.2729,-5.2535,-5.1236,-5.1101,-5.1101,-5.1101,-5.1053,-5.102,-5.102,-5.099,-5.0941,-5.0898,-4.9301,-4.7676,-4.6136,-4.631,-4.696,-4.8101,-4.696,-4.698,-4.8082,-4.7405,-4.7096,-4.7134,-4.7792,-4.8101,-4.814,-4.903,-4.9397,-4.9494,-5.0492,-5.0898,-5.0898,-5.0898,-5.0898,-5.0782,-4.9997,-5.0221,-5.0647,-4.8972,-4.8392,-4.8372,-4.8174,-4.7509,-4.6793,-4.682,-4.6813,-4.6806,-4.6806,-4.7424,-4.8314,-4.9184,-4.9552,-4.9919,-5.0724,-5.0898,-5.0898,-5.0898,-5.0898,-5.0898,-5.0898,-5.0743,-5.0608,-5.0608,0.0,0.0,0.0,-5.0782,-5.0821,-5.0647,-5.0241,-4.9842,-4.9436,-4.9146,-4.9184,-4.9668,-4.9243,-4.9552,-5.0821,-5.0299,-5.026,-5.0879,-5.0538,-5.0342,-5.0286,-5.0286,-5.0195,-4.9981,-4.9917,-4.9768,-4.9559,-4.9559,-4.9548,-4.9509,-4.9509,-4.9509,-4.9509,-4.9509,-4.9509,-4.9509,-4.9509,-4.9509,-4.9509,-4.9509,-4.9509,-4.9509,-5.4143,-5.3933,-5.3863,-5.3799,-5.3779,-5.3773,-5.3695,-5.3068,-5.2511,-5.2329,-5.1701,-5.1236,-5.112,-5.1101,-5.1101,-5.1101,-5.1094,-5.1094,-5.1094,-5.1094,-5.1039,-5.0906,-4.9301,-4.7966,-4.7018,-4.7792,-4.7869,-4.7192,-4.7869,-4.785,-4.7192,-4.7134,-4.7096,-4.7096,-4.7173,-4.7192,-4.725,-4.8121,-4.8508,-4.8643,-5.0241,-5.0898,-5.0898,-5.0898,-5.0898,-5.0782,-4.9997,-5.0221,-5.0647,-4.8972,-4.8392,-4.8263,-4.7525,-4.664,-4.591,-4.5964,-4.595,-4.5904,-4.5904,-4.6542,-4.7405,-4.8275,-4.9107,-4.9919,-5.0724,-5.0898,-5.0898,-5.0898,-5.0898,-5.0898,-5.0898,-5.0279,-4.9784,-4.9784,0.0,0.0,-4.9784,-5.0434,-5.0608,-4.9881,-5.0395,-5.0202,-4.8643,-4.9842,-5.0434,-4.9745,-5.0318,-5.0763,-5.0898,-5.084,-5.084,-5.0898,-5.0874,-5.0763,-5.0567,-5.0567,-5.0557,-5.0537,-5.0286,-5.0019,-4.9776,-4.9776,-4.9679,-4.9509,-4.9509,-4.9509,-4.9509,-4.9509,-4.9509,-4.9509,-4.9509,-4.9509,-4.9509,-4.9509,-4.9509,-4.9509,-5.456,-5.4149,-5.3599,-5.3059,-5.3372,-5.3358,-5.2311,-5.2757,-5.301,-5.2428,-5.2563,-5.2505,-5.1962,-5.1903,-5.1709,-5.1205,-5.1128,-5.1095,-5.1095,-5.1095,-5.0602,-4.9463,-4.8805,-4.7791,-4.6383,-4.7208,-4.7736,-4.7908,-4.7695,-4.7695,-4.7869,-4.6806,-4.6317,-4.6364,-4.6364,-4.6351,-4.6448,-4.7862,-4.8456,-4.8611,-5.0335,-5.1012,-5.0974,-5.0419,-5.0555,-5.0838,-4.9444,-4.9502,-4.9954,-4.823,-4.7655,-4.7499,-4.6668,-4.6157,-4.5867,-4.588,-4.588,-4.599,-4.6526,-4.648,-4.6631,-4.8043,-4.8643,-4.9243,-5.0589,-5.0898,-5.0898,-5.0898,-5.0898,-5.0898,-5.0898,-5.0647,-5.0434,-5.0434,0.0,-5.0434,-5.0434,-5.0279,-5.0221,-5.0415,-4.9803,-4.932,-4.9223,-4.9784,-5.0241,-5.0434,-5.0724,-5.113,-5.1679,-5.1188,-5.0898,-5.0898,-5.0898,-5.0866,-5.0789,-5.078,-5.0727,-5.0606,-5.0507,-5.0309,-5.0062,-5.0062,-4.991,-4.9693,-4.9693,-4.9615,-4.9509,-4.9509,-4.9509,-4.9509,-4.9509,-4.9509,-4.9509,-4.9509,-4.9509,-4.9509,-5.387,-5.3442,-5.2912,-5.2584,-5.2987,-5.3064,-5.2169,-5.3015,-5.3519,-5.2916,-5.3349,-5.3364,-5.2504,-5.2407,-5.2076,-5.128,-5.1165,-5.1133,-5.1133,-5.1128,-5.0345,-4.8574,-4.8496,-4.7676,-4.5932,-4.6745,-4.7333,-4.7615,-4.7286,-4.7305,-4.7596,-4.6402,-4.6009,-4.63,-4.6009,-4.6041,-4.639,-4.7882,-4.8496,-4.8651,-5.0396,-5.1101,-5.1042,-5.0441,-5.0577,-5.0868,-4.9136,-4.9065,-4.9491,-4.7475,-4.6978,-4.7055,-4.6197,-4.6125,-4.6338,-4.6312,-4.6312,-4.637,-4.67,-4.6319,-4.6325,-4.8331,-4.8621,-4.8873,-5.0569,-5.0956,-5.0956,-5.0956,-5.0956,-5.0956,-5.0941,-5.0921,-5.0914,-5.0898,-5.113,-5.1312,-5.1312,-5.108,-5.0887,-5.0898,-5.0364,-4.9919,-4.9726,-5.0422,-5.0906,-5.0898,-5.1149,-5.1447,-5.1776,-5.1215,-5.0898,-5.0898,-5.0898,-5.0898,-5.0898,-5.0898,-5.0822,-5.0681,-5.0681,-5.0558,-5.0339,-5.0339,-5.0183,-4.9936,-4.9936,-4.9795,-4.9585,-4.9585,-4.9563,-4.9509,-4.9509,-4.9509,-4.9509,-4.9509,-4.9509,-4.9509,-5.1582,-5.1358,-5.1591,-5.2452,-5.2628,-5.2903,-5.3762,-5.3852,-5.3818,-5.3818,-5.3754,-5.3384,-5.2504,-5.2413,-5.2076,-5.128,-5.1202,-5.1202,-5.1202,-5.1202,-5.0396,-4.86,-4.8496,-4.7689,-4.595,-4.6758,-4.6778,-4.5911,-4.6778,-4.6758,-4.5911,-4.5911,-4.6351,-4.7146,-4.6299,-4.637,-4.7243,-4.8134,-4.8496,-4.8632,-5.0403,-5.1101,-5.1101,-5.1101,-5.1101,-5.0868,-4.9136,-4.9065,-4.9395,-4.6784,-4.6487,-4.7055,-4.6257,-4.6593,-4.7286,-4.7217,-4.7204,-4.701,-4.6144,-4.5911,-4.6551,-4.9143,-4.9143,-4.8961,-5.0706,-5.1101,-5.1101,-5.112,-5.112,-5.1087,-5.1032,-5.1024,-5.099,-5.0925,-5.1641,-5.221,-5.221,-5.2945,-5.284,-5.1111,-5.2434,-5.2472,-4.9958,-5.2008,-5.2763,-5.1033,-5.1699,-5.1815,-5.0956,-5.0898,-5.0898,-5.0898,-5.0898,-5.0898,-5.0898,-5.0898,-5.0898,-5.0898,-5.0898,-5.0789,-5.0596,-5.0596,-5.0457,-5.0206,-5.0206,-5.0043,-4.9784,-4.9784,-4.9693,-4.9509,-4.9509,-4.9509,-4.9509,-4.9509,-4.949,-4.949,-5.3147,-5.2675,-5.2497,-5.3357,-5.3971,-5.4248,-5.3957,-5.4355,-5.4713,-5.4713,-5.47,-5.4355,-5.3472,-5.342,-5.2844,-5.133,-5.1196,-5.1211,-5.1208,-5.1202,-5.0685,-4.9528,-4.8901,-4.8035,-4.6911,-4.7144,-4.7112,-4.6816,-4.7068,-4.7068,-4.6797,-4.6202,-4.6059,-4.6348,-4.6096,-4.6108,-4.646,-4.793,-4.8221,-4.7872,-5.0221,-5.0803,-5.0266,-5.0266,-5.0266,-5.0188,-4.9664,-4.8862,-4.8027,-4.7853,-4.7142,-4.631,-4.6069,-4.6191,-4.6385,-4.6358,-4.6785,-4.7348,-4.7703,-4.78,-4.7963,-4.8703,-4.869,-4.8961,-5.0706,-5.1101,-5.1256,-5.1837,-5.1934,-5.2128,-5.2722,-5.2819,-5.2812,-5.2797,-5.301,-5.3185,-5.3185,-5.2349,-5.1784,-5.1861,-5.1258,-5.077,-5.055,-5.1227,-5.1459,-5.0937,-5.113,-5.1169,-5.0917,-5.0898,-5.0898,-5.0898,-5.0898,-5.0898,-5.0898,-5.0898,-5.0898,-5.0898,-5.0898,-5.0874,-5.0805,-5.0805,-5.069,-5.0477,-5.0477,-5.032,-5.0087,-5.0087,-5.0038,-4.9993,-4.9993,-4.9993,-4.9993,-4.9993,-4.9863,-4.9717,-5.3834,-5.3539,-5.3432,-5.429,-5.4863,-5.5136,-5.4999,-5.5366,-5.5653,-5.5653,-5.5622,-5.5153,-5.3966,-5.3874,-5.3186,-5.1397,-5.1241,-5.1234,-5.1201,-5.119,-5.0962,-5.0437,-4.9581,-4.8715,-4.7833,-4.7814,-4.7788,-4.7745,-4.7416,-4.7416,-4.7726,-4.651,-4.6152,-4.6494,-4.615,-4.6005,-4.6099,-4.7492,-4.7784,-4.7467,-4.9396,-4.9862,-4.9401,-4.9401,-4.9401,-4.9343,-4.9007,-4.8425,-4.7842,-4.8017,-4.7617,-4.7023,-4.7023,-4.7276,-4.7417,-4.671,-4.7123,-4.7784,-4.7628,-4.7582,-4.7753,-4.839,-4.8793,-4.9414,-5.0811,-5.1393,-5.1742,-5.2234,-5.2602,-5.3003,-5.3532,-5.3901,-5.4107,-5.4112,-5.4403,-5.4636,-5.4636,-5.3722,-5.3126,-5.3301,-5.2407,-5.1687,-5.1474,-5.1455,-5.1312,-5.0968,-5.0948,-5.0941,-5.0898,-5.0898,-5.0898,-5.0898,-5.0898,-5.0898,-5.0898,-5.0898,-5.0898,-5.0898,-5.0898,-5.0898,-5.0898,-5.0898,-5.0822,-5.0727,-5.0727,-5.0567,-5.0372,-5.0372,-5.0286,-5.0195,-5.0195,-5.0195,-5.0195,-5.0195,-5.0099,-4.9974,-5.3951,-5.4127,-5.4381,-5.5259,-5.5415,-5.5689,-5.6489,-5.6554,-5.6503,-5.6503,-5.6458,-5.5796,-5.4191,-5.394,-5.3237,-5.155,-5.1336,-5.1279,-5.1218,-5.1214,-5.1214,-5.1214,-5.0454,-4.9659,-4.887,-4.8679,-4.8602,-4.8612,-4.7805,-4.7824,-4.8573,-4.6985,-4.661,-4.7266,-4.6474,-4.609,-4.6066,-4.6945,-4.7275,-4.7285,-4.8227,-4.8558,-4.8499,-4.8588,-4.8563,-4.8402,-4.7678,-4.7844,-4.8282,-4.7558,-4.7844,-4.848,-4.849,-4.9024,-4.9363,-4.7766,-4.798,-4.8363,-4.6775,-4.6457,-4.6948,-4.855,-4.954,-5.0342,-5.113,-5.1863,-5.2445,-5.2601,-5.3261,-5.3838,-5.3922,-5.4537,-5.5028,-5.5038,-5.569,-5.6206,-5.6206,-5.6071,-5.5683,-5.4888,-5.4667,-5.3943,-5.2341,-5.2186,-5.1862,-5.107,-5.1012,-5.0971,-5.0914,-5.0906,-5.0906,-5.0906,-5.0906,-5.0906,-5.0898,-5.0906,-5.0906,-5.0898,-5.0898,-5.0898,-5.0898,-5.0898,-5.0898,-5.0898,-5.0898,-5.0797,-5.0635,-5.0635,-5.0477,-5.0264,-5.0264,-5.0264,-5.0264,-5.0264,-5.0252,-5.023,-5.4849,-5.5025,-5.5298,-5.6177,-5.6313,-5.6372,-5.6567,-5.6595,-5.658,-5.658,-5.6567,-5.6147,-5.5038,-5.4353,-5.3534,-5.2419,-5.1689,-5.1293,-5.1282,-5.1282,-5.1282,-5.1282,-5.1106,-5.0906,-5.072,-4.9383,-4.8681,-4.8677,-4.8486,-4.849,-4.8677,-4.8289,-4.7857,-4.7365,-4.7189,-4.674,-4.6209,-4.703,-4.7002,-4.6577,-4.8062,-4.8269,-4.7727,-4.8428,-4.8243,-4.7723,-4.823,-4.7668,-4.6796,-4.7228,-4.7509,-4.7665,-4.7663,-4.7755,-4.7796,-4.7473,-4.8441,-4.9547,-4.9157,-4.9601,-5.0413,-5.1402,-5.1837,-5.2042,-5.2122,-5.2271,-5.2795,-5.4155,-5.4582,-5.4932,-5.5605,-5.5871,-5.6006,-5.6,-5.6155,-5.6291,-5.6291,-5.5099,-5.4167,-5.398,-5.2743,-5.1779,-5.1411,-5.1353,-5.1287,-5.1087,-5.1087,-5.106,-5.1053,-5.1005,-5.0971,-5.0971,-5.0971,-5.0956,-5.0898,-5.0956,-5.0956,-5.0898,-5.0898,-5.0898,-5.0898,-5.0898,-5.0898,-5.0898,-5.0898,-5.0882,-5.0822,-5.0822,-5.0805,-5.0743,-5.0743,-5.0743,-5.0743,-5.0743,-5.0653,-5.0477,-5.5747,-5.5923,-5.6059,-5.6528,-5.6606,-5.6606,-5.6606,-5.6606,-5.6606,-5.6606,-5.6606,-5.6243,-5.5342,-5.4862,-5.4084,-5.2754,-5.1855,-5.1346,-5.1359,-5.1358,-5.1358,-5.1358,-5.1358,-5.1343,-5.1347,-5.0455,-4.9971,-4.9934,-4.993,-5.0147,-5.0541,-4.9703,-4.9292,-4.9212,-4.8392,-4.7787,-4.7395,-4.7406,-4.7157,-4.6827,-4.7306,-4.7234,-4.6886,-4.7322,-4.7221,-4.6883,-4.7332,-4.7196,-4.6963,-4.8213,-4.8647,-4.863,-4.8636,-4.89,-4.9055,-4.8242,-4.8942,-4.9856,-4.9447,-5.001,-5.0924,-5.1725,-5.2277,-5.2575,-5.2464,-5.3078,-5.3821,-5.4284,-5.5048,-5.5767,-5.6214,-5.6291,-5.6291,-5.6291,-5.6291,-5.6155,-5.5747,-5.5249,-5.4789,-5.4362,-5.3508,-5.2628,-5.1794,-5.136,-5.1121,-5.1108,-5.1108,-5.1101,-5.1101,-5.106,-5.1053,-5.1053,-5.1053,-5.102,-5.0998,-5.102,-5.102,-5.0998,-5.0941,-5.0898,-5.0898,-5.0898,-5.0898,-5.0898,-5.0898,-5.0898,-5.0898,-5.0898,-5.0898,-5.0898,-5.0898,-5.0898,-5.0898,-5.0898,-5.0822,-5.0708,-5.643,-5.6606,-5.6606,-5.6606,-5.6606,-5.6606,-5.6606,-5.6606,-5.6606,-5.6606,-5.6469,-5.6098,-5.5376,-5.5027,-5.4207,-5.2626,-5.1824,-5.1407,-5.1405,-5.1405,-5.1405,-5.1405,-5.1405,-5.14,-5.1394,-5.1399,-5.1367,-5.1315,-5.1312,-5.1762,-5.2586,-5.1142,-5.0772,-5.126,-4.9814,-4.8994,-4.8662,-4.7954,-4.7641,-4.7567,-4.6742,-4.6505,-4.6604,-4.6334,-4.6294,-4.6407,-4.6251,-4.6816,-4.7852,-4.9301,-4.9885,-5.0019,-5.0025,-5.0507,-5.0793,-4.9363,-4.9557,-5.0079,-4.9358,-4.9725,-5.0527,-5.1317,-5.2185,-5.2812,-5.2757,-5.3969,-5.4929,-5.4277,-5.5297,-5.6314,-5.629,-5.6309,-5.6309,-5.6309,-5.631,-5.6058,-5.532,-5.5592,-5.5631,-5.5068,-5.4737,-5.3922,-5.2348,-5.1591,-5.1171,-5.1127,-5.1127,-5.1108,-5.1121,-5.1114,-5.1107,-5.1107,-5.1107,-5.1107,-5.1101,-5.1107,-5.1107,-5.1094,-5.099,-5.0941,-5.0914,-5.0906,-5.0898,-5.0898,-5.0898,-5.0898,-5.0898,-5.0898,-5.0898,-5.0898,-5.0898,-5.0898,-5.0898,-5.0898,-5.0898,-5.0898,-5.643,-5.6606,-5.6606,-5.6606,-5.6606,-5.6606,-5.6606,-5.6606,-5.6606,-5.6606,-5.5942,-5.5435,-5.532,-5.3953,-5.2644,-5.1668,-5.1472,-5.1396,-5.1402,-5.1402,-5.1402,-5.1402,-5.1402,-5.14,-5.1394,-5.14,-5.1405,-5.139,-5.1386,-5.1835,-5.2679,-5.2443,-5.1994,-5.1389,-5.1135,-5.0198,-4.8774,-4.8652,-4.8611,-4.8541,-4.7675,-4.7773,-4.8281,-4.6848,-4.6715,-4.7226,-4.6464,-4.7246,-4.8652,-4.8878,-4.9469,-5.0098,-5.0087,-5.0137,-5.0139,-4.9955,-5.0524,-5.1171,-5.1074,-5.1128,-5.1429,-5.2226,-5.312,-5.3793,-5.373,-5.4439,-5.5257,-5.5825,-5.6175,-5.6371,-5.6308,-5.629,-5.629,-5.629,-5.6306,-5.6253,-5.6136,-5.4932,-5.4291,-5.4912,-5.3669,-5.2387,-5.1455,-5.126,-5.1196,-5.1196,-5.1196,-5.119,-5.119,-5.1121,-5.1108,-5.1108,-5.1108,-5.1095,-5.1101,-5.1095,-5.1095,-5.1101,-5.1087,-5.1046,-5.0978,-5.0941,-5.0898,-5.0898,-5.0898,-5.0898,-5.0898,-5.0898,-5.0898,-5.0898,-5.0898,-5.0898,-5.0898,-5.0898,-5.0898,-5.0898,-5.6528,-5.6606,-5.6606,-5.6606,-5.6606,-5.6606,-5.6606,-5.6606,-5.6606,-5.6606,-5.5845,-5.5493,-5.5962,-5.4908,-5.3795,-5.2936,-5.2858,-5.2448,-5.1453,-5.1863,-5.1902,-5.1414,-5.1394,-5.1394,-5.1394,-5.1394,-5.1648,-5.2136,-5.2133,-5.2561,-5.3424,-5.3424,-5.3229,-5.2839,-5.2331,-5.1433,-5.0225,-4.973,-4.9534,-4.9442,-4.858,-4.8467,-4.8719,-4.7985,-4.7637,-4.751,-4.712,-4.747,-4.827,-4.9214,-4.9783,-5.0182,-5.0676,-5.0808,-5.0799,-5.0818,-5.1093,-5.1396,-5.1396,-5.1758,-5.222,-5.2565,-5.3339,-5.4112,-5.4575,-5.4957,-5.5292,-5.5577,-5.6045,-5.6385,-5.6361,-5.6355,-5.6342,-5.6316,-5.6295,-5.6122,-5.5644,-5.4912,-5.4388,-5.4291,-5.3164,-5.2251,-5.1901,-5.1455,-5.1202,-5.1202,-5.1202,-5.1202,-5.1202,-5.1171,-5.1159,-5.1159,-5.1159,-5.1153,-5.116,-5.1153,-5.1153,-5.116,-5.1121,-5.1075,-5.1053,-5.1039,-5.0998,-5.0956,-5.0956,-5.0921,-5.0898,-5.0898,-5.0898,-5.0898,-5.0898,-5.0898,-5.0898,-5.0898,-5.0898,-5.0898]},{"header":{"parameterUnit":"m.s-1","parameterCategory":1,"la1":30.6,"la2":28.766,"lo1":-90.7593,"lo2":-88.6598,"dy":0.0162,"dx":0.0183,"nx":116,"ny":114,"refTime":"2023-03-03T18:00:00:Z","depth":0,"parameterNumber":3,"parameterNumberName":"V-component_of_WINDS"},"data":[0.0,0.0,0.0,0.0,0.0,0.0,0.0,0.0,0.0,0.0,0.0,0.0,0.0,0.0,0.0,0.0,0.0,0.0,0.0,0.0,0.0,0.0,0.0,0.0,0.0,0.0,0.0,0.0,0.0,0.0,0.0,0.0,0.0,0.0,0.0,0.0,0.0,0.0,0.0,0.0,0.0,0.0,0.0,0.0,0.0,0.0,0.0,0.0,0.0,0.0,0.0,0.0,0.0,0.0,0.0,0.0,0.0,0.0,0.0,0.0,0.0,0.0,0.0,0.0,0.0,0.0,0.0,0.0,0.0,0.0,0.0,0.0,0.0,0.0,0.0,0.0,0.0,0.0,0.0,0.0,0.0,0.0,0.0,0.0,0.0,0.0,0.0,0.0,0.0,0.0,0.0,0.0,0.0,0.0,0.0,0.0,0.0,0.0,0.0,0.0,0.0,0.0,0.0,0.0,0.0,0.0,0.0,0.0,0.0,0.0,0.0,0.0,0.0,0.0,0.0,0.0,0.0,0.0,0.0,0.0,0.0,0.0,0.0,0.0,0.0,0.0,0.0,0.0,0.0,0.0,0.0,0.0,0.0,0.0,0.0,0.0,0.0,0.0,0.0,0.0,0.0,0.0,0.0,0.0,0.0,0.0,0.0,0.0,0.0,0.0,0.0,0.0,0.0,0.0,0.0,0.0,0.0,0.0,0.0,0.0,0.0,0.0,0.0,0.0,0.0,0.0,0.0,0.0,0.0,0.0,0.0,0.0,0.0,0.0,0.0,0.0,0.0,0.0,0.0,0.0,0.0,0.0,0.0,0.0,0.0,0.0,0.0,0.0,0.0,0.0,0.0,0.0,0.0,0.0,0.0,0.0,0.0,0.0,0.0,0.0,0.0,0.0,0.0,0.0,0.0,0.0,0.0,0.0,0.0,0.0,0.0,0.0,0.0,0.0,0.0,0.0,0.0,0.0,0.0,0.0,0.0,0.0,0.0,0.0,0.0,0.0,0.0,0.0,0.0,0.0,0.0,0.0,0.0,0.0,0.0,0.0,0.0,0.0,0.0,0.0,0.0,0.0,0.0,0.0,0.0,0.0,0.0,0.0,0.0,0.0,0.0,0.0,0.0,0.0,0.0,0.0,0.0,0.0,0.0,0.0,0.0,0.0,0.0,0.0,0.0,0.0,0.0,0.0,0.0,0.0,0.0,0.0,0.0,0.0,0.0,0.0,0.0,0.0,0.0,0.0,0.0,0.0,0.0,0.0,0.0,0.0,0.0,0.0,0.0,0.0,0.0,0.0,0.0,0.0,0.0,0.0,0.0,0.0,0.0,0.0,0.0,0.0,0.0,0.0,0.0,0.0,0.0,0.0,0.0,0.0,0.0,0.0,0.0,0.0,0.0,0.0,0.0,0.0,0.0,0.0,0.0,0.0,0.0,0.0,0.0,0.0,0.0,0.0,0.0,0.0,0.0,0.0,0.0,0.0,0.0,0.0,0.0,0.0,0.0,0.0,0.0,0.0,0.0,0.0,0.0,0.0,0.0,0.0,0.0,0.0,0.0,0.0,0.0,0.0,0.0,0.0,0.0,0.0,0.0,0.0,0.0,0.0,0.0,0.0,0.0,0.0,0.0,0.0,0.0,0.0,0.0,0.0,0.0,0.0,0.0,0.0,0.0,0.0,0.0,0.0,0.0,0.0,0.0,0.0,0.0,0.0,0.0,0.0,0.0,0.0,0.0,0.0,0.0,0.0,0.0,0.0,0.0,0.0,0.0,0.0,0.0,0.0,0.0,0.0,0.0,0.0,0.0,0.0,0.0,0.0,0.0,0.0,0.0,0.0,0.0,0.0,0.0,0.0,0.0,0.0,0.0,0.0,0.0,0.0,0.0,0.0,0.0,0.0,0.0,0.0,0.0,0.0,0.0,0.0,0.0,0.0,0.0,0.0,0.0,0.0,0.0,0.0,0.0,0.0,0.0,0.0,0.0,0.0,0.0,0.0,0.0,0.0,0.0,0.0,0.0,0.0,0.0,0.0,0.0,0.0,0.0,0.0,0.0,0.0,0.0,0.0,0.0,0.0,0.0,0.0,0.0,0.0,0.0,0.0,0.0,0.0,0.0,0.0,0.0,0.0,0.0,0.0,0.0,0.0,0.0,0.0,0.0,0.0,0.0,0.0,0.0,0.0,0.0,0.0,0.0,0.0,0.0,0.0,0.0,0.0,0.0,0.0,0.0,0.0,0.0,0.0,0.0,0.0,0.0,0.0,0.0,0.0,0.0,0.0,0.0,0.0,0.0,0.0,0.0,0.0,0.0,0.0,0.0,0.0,0.0,0.0,0.0,0.0,0.0,0.0,0.0,0.0,0.0,0.0,0.0,0.0,0.0,0.0,0.0,0.0,0.0,0.0,0.0,0.0,0.0,0.0,0.0,0.0,0.0,0.0,0.0,0.0,0.0,0.0,0.0,0.0,0.0,0.0,0.0,0.0,0.0,0.0,0.0,0.0,0.0,0.0,0.0,0.0,0.0,0.0,0.0,0.0,0.0,0.0,0.0,0.0,0.0,0.0,0.0,0.0,0.0,0.0,0.0,0.0,0.0,0.0,0.0,0.0,0.0,0.0,0.0,0.0,0.0,0.0,0.0,0.0,0.0,0.0,0.0,0.0,0.0,0.0,0.0,0.0,0.0,0.0,0.0,0.0,0.0,0.0,0.0,0.0,0.0,0.0,0.0,0.0,0.0,0.0,0.0,0.0,0.0,0.0,0.0,0.0,0.0,0.0,0.0,0.0,0.0,0.0,0.0,0.0,0.0,0.0,0.0,0.0,0.0,0.0,0.0,0.0,0.0,0.0,0.0,0.0,0.0,0.0,0.0,0.0,0.0,0.0,0.0,0.0,0.0,0.0,0.0,0.0,0.0,0.0,0.0,0.0,0.0,0.0,0.0,0.0,0.0,0.0,0.0,0.0,0.0,0.0,0.0,0.0,0.0,0.0,0.0,0.0,0.0,0.0,0.0,0.0,0.0,0.0,0.0,0.0,0.0,0.0,0.0,0.0,0.0,0.0,0.0,0.0,0.0,0.0,0.0,0.0,0.0,0.0,0.0,0.0,0.0,0.0,0.0,0.0,0.0,0.0,0.0,0.0,0.0,0.0,0.0,0.0,0.0,0.0,0.0,0.0,0.0,0.0,0.0,0.0,0.0,0.0,0.0,0.0,0.0,0.0,0.0,0.0,0.0,0.0,0.0,0.0,0.0,0.0,0.0,0.0,0.0,0.0,0.0,0.0,0.0,0.0,0.0,0.0,0.0,0.0,0.0,0.0,0.0,0.0,0.0,0.0,0.0,0.0,0.0,0.0,0.0,0.0,0.0,0.0,0.0,0.0,0.0,0.0,0.0,0.0,0.0,0.0,0.0,0.0,0.0,0.0,0.0,0.0,0.0,0.0,0.0,0.0,0.0,0.0,0.0,0.0,0.0,0.0,0.0,0.0,0.0,0.0,0.0,0.0,0.0,0.0,0.0,0.0,0.0,0.0,0.0,0.0,0.0,0.0,0.0,0.0,0.0,0.0,0.0,0.0,0.0,0.0,0.0,0.0,0.0,0.0,0.0,0.0,0.0,0.0,0.0,0.0,0.0,0.0,0.0,0.0,0.0,0.0,0.0,0.0,0.0,0.0,0.0,0.0,0.0,0.0,0.0,0.0,0.0,0.0,0.0,0.0,0.0,0.0,0.0,0.0,0.0,0.0,0.0,0.0,0.0,0.0,0.0,0.0,0.0,0.0,0.0,0.0,0.0,0.0,0.0,0.0,0.0,0.0,0.0,0.0,0.0,0.0,0.0,0.0,0.0,0.0,0.0,0.0,0.0,0.0,0.0,0.0,0.0,0.0,0.0,0.0,0.0,0.0,0.0,0.0,0.0,0.0,0.0,0.0,0.0,0.0,0.0,0.0,0.0,0.0,0.0,0.0,0.0,0.0,0.0,0.0,0.0,0.0,0.0,0.0,0.0,0.0,0.0,0.0,0.0,0.0,0.0,0.0,0.0,0.0,0.0,0.0,0.0,0.0,0.0,0.0,0.0,0.0,0.0,0.0,0.0,0.0,0.0,0.0,0.0,0.0,0.0,0.0,0.0,0.0,0.0,0.0,0.0,0.0,0.0,0.0,0.0,0.0,0.0,0.0,0.0,0.0,0.0,0.0,0.0,0.0,0.0,0.0,0.0,0.0,0.0,0.0,0.0,0.0,0.0,0.0,0.0,0.0,0.0,0.0,0.0,0.0,0.0,0.0,0.0,0.0,0.0,0.0,0.0,0.0,0.0,0.0,0.0,0.0,0.0,0.0,0.0,0.0,0.0,0.0,0.0,0.0,0.0,0.0,0.0,0.0,0.0,0.0,0.0,0.0,0.0,0.0,0.0,0.0,0.0,0.0,0.0,0.0,0.0,0.0,0.0,0.0,0.0,0.0,0.0,0.0,0.0,0.0,0.0,0.0,0.0,0.0,0.0,0.0,0.0,0.0,0.0,0.0,0.0,0.0,0.0,0.0,0.0,0.0,0.0,0.0,0.0,0.0,0.0,0.0,0.0,0.0,0.0,0.0,0.0,0.0,0.0,0.0,0.0,0.0,0.0,0.0,0.0,0.0,0.0,0.0,0.0,0.0,0.0,0.0,0.0,0.0,0.0,0.0,0.0,0.0,0.0,0.0,0.0,0.0,0.0,0.0,0.0,0.0,0.0,0.0,0.0,0.0,0.0,0.0,0.0,0.0,0.0,0.0,0.0,0.0,0.0,0.0,0.0,0.0,0.0,0.0,0.0,0.0,0.0,0.0,0.0,0.0,0.0,0.0,0.0,0.0,0.0,0.0,0.0,0.0,0.0,0.0,0.0,0.0,0.0,0.0,0.0,0.0,0.0,0.0,0.0,0.0,0.0,0.0,0.0,0.0,0.0,0.0,0.0,0.0,0.0,0.0,0.0,0.0,0.0,0.0,0.0,0.0,0.0,0.0,0.0,0.0,0.0,0.0,0.0,0.0,0.0,0.0,0.0,0.0,0.0,0.0,0.0,0.0,0.0,0.0,0.0,0.0,0.0,0.0,0.0,0.0,0.0,0.0,0.0,0.0,0.0,0.0,0.0,0.0,0.0,0.0,0.0,0.0,0.0,0.0,0.0,0.0,0.0,0.0,0.0,0.0,0.0,0.0,0.0,0.0,0.0,0.0,0.0,0.0,0.0,0.0,0.0,0.0,0.0,0.0,0.0,0.0,0.0,0.0,0.0,0.0,0.0,0.0,0.0,0.0,0.0,0.0,0.0,0.0,0.0,0.0,0.0,0.0,0.0,0.0,0.0,0.0,0.0,0.0,0.0,0.0,0.0,0.0,0.0,0.0,0.0,0.0,0.0,0.0,0.0,0.0,0.0,0.0,0.0,0.0,0.0,0.0,0.0,0.0,0.0,0.0,0.0,0.0,0.0,0.0,0.0,0.0,0.0,0.0,0.0,0.0,0.0,0.0,0.0,0.0,0.0,0.0,0.0,0.0,0.0,0.0,0.0,0.0,0.0,0.0,0.0,0.0,0.0,0.0,0.0,0.0,0.0,0.0,0.0,0.0,0.0,0.0,0.0,0.0,0.0,0.0,0.0,0.0,0.0,0.0,0.0,0.0,0.0,0.0,0.0,0.0,0.0,0.0,0.0,0.0,0.0,0.0,0.0,0.0,0.0,0.0,0.0,0.0,0.0,0.0,0.0,0.0,0.0,0.0,0.0,0.0,0.0,0.0,0.0,0.0,0.0,0.0,0.0,0.0,0.0,0.0,0.0,0.0,0.0,0.0,0.0,0.0,0.0,0.0,0.0,0.0,0.0,0.0,0.0,0.0,0.0,0.0,0.0,0.0,0.0,0.0,0.0,0.0,0.0,0.0,0.0,0.0,0.0,0.0,0.0,0.0,0.0,0.0,0.0,0.0,0.0,0.0,0.0,0.0,0.0,0.0,0.0,0.0,0.0,0.0,0.0,0.0,0.0,0.0,0.0,0.0,0.0,0.0,0.0,0.0,0.0,0.0,0.0,0.0,0.0,0.0,0.0,0.0,0.0,0.0,0.0,0.0,0.0,0.0,0.0,0.0,-2.5337,0.0,0.0,0.0,0.0,0.0,0.0,0.0,0.0,0.0,0.0,0.0,0.0,0.0,0.0,0.0,0.0,0.0,0.0,0.0,0.0,0.0,0.0,0.0,0.0,0.0,0.0,0.0,0.0,0.0,0.0,0.0,0.0,0.0,0.0,0.0,0.0,0.0,0.0,0.0,0.0,0.0,0.0,0.0,0.0,0.0,0.0,0.0,0.0,0.0,0.0,0.0,0.0,0.0,0.0,0.0,0.0,0.0,0.0,0.0,0.0,0.0,0.0,0.0,0.0,0.0,0.0,0.0,0.0,0.0,0.0,0.0,0.0,0.0,0.0,0.0,0.0,0.0,0.0,0.0,0.0,0.0,0.0,0.0,0.0,0.0,0.0,0.0,0.0,0.0,0.0,0.0,0.0,0.0,0.0,0.0,0.0,0.0,0.0,0.0,0.0,0.0,0.0,0.0,0.0,0.0,0.0,0.0,0.0,0.0,0.0,0.0,0.0,0.0,0.0,0.0,0.0,-2.583,0.0,0.0,0.0,0.0,0.0,0.0,0.0,0.0,0.0,0.0,0.0,0.0,0.0,0.0,0.0,0.0,0.0,0.0,0.0,0.0,0.0,0.0,0.0,0.0,0.0,0.0,0.0,0.0,0.0,0.0,0.0,0.0,0.0,0.0,0.0,0.0,0.0,0.0,0.0,0.0,0.0,0.0,0.0,0.0,0.0,0.0,0.0,0.0,0.0,0.0,0.0,0.0,0.0,0.0,0.0,0.0,0.0,0.0,0.0,0.0,0.0,0.0,0.0,0.0,0.0,0.0,0.0,0.0,0.0,0.0,0.0,0.0,0.0,0.0,0.0,0.0,0.0,0.0,0.0,0.0,0.0,0.0,0.0,0.0,0.0,0.0,0.0,0.0,0.0,0.0,0.0,0.0,0.0,0.0,0.0,0.0,0.0,0.0,0.0,0.0,0.0,0.0,0.0,0.0,0.0,0.0,0.0,0.0,-2.6404,-2.6639,-2.6651,-2.7036,-2.719,-2.7144,-2.6296,-2.6411,-2.7156,-2.6772,0.0,0.0,0.0,0.0,0.0,0.0,0.0,0.0,0.0,0.0,0.0,0.0,0.0,0.0,0.0,0.0,0.0,0.0,0.0,0.0,0.0,0.0,-1.4386,-1.4565,-1.524,0.0,0.0,0.0,0.0,0.0,0.0,0.0,0.0,0.0,0.0,0.0,0.0,0.0,-1.6503,-1.7026,-1.7213,-1.702,-1.6196,0.0,0.0,0.0,0.0,0.0,0.0,0.0,0.0,0.0,0.0,0.0,0.0,0.0,0.0,0.0,0.0,0.0,0.0,0.0,0.0,0.0,0.0,0.0,0.0,0.0,0.0,0.0,0.0,0.0,0.0,0.0,0.0,0.0,0.0,0.0,0.0,0.0,0.0,0.0,0.0,0.0,0.0,0.0,-2.2581,-2.2581,0.0,0.0,0.0,0.0,0.0,0.0,0.0,0.0,0.0,0.0,0.0,0.0,0.0,-2.5853,-2.6398,-2.6409,-2.6588,-2.6984,-2.7052,-2.7128,-2.7087,-2.7156,-2.719,-2.7179,-2.7041,0.0,-2.7179,-2.7121,0.0,0.0,0.0,0.0,0.0,0.0,0.0,0.0,0.0,0.0,0.0,0.0,0.0,0.0,0.0,0.0,0.0,0.0,0.0,0.0,0.0,0.0,-1.4496,-1.5221,-1.5539,-1.5723,0.0,0.0,0.0,0.0,0.0,0.0,0.0,0.0,0.0,0.0,-1.6694,-1.675,-1.6782,-1.7029,-1.7107,-1.7015,-1.6613,-1.6627,-1.6987,-1.654,0.0,0.0,0.0,0.0,0.0,0.0,0.0,0.0,0.0,0.0,0.0,0.0,0.0,0.0,0.0,0.0,0.0,0.0,0.0,0.0,0.0,0.0,0.0,0.0,0.0,0.0,0.0,0.0,0.0,0.0,0.0,0.0,0.0,0.0,0.0,0.0,0.0,0.0,0.0,-2.2719,-2.2788,-2.3075,-2.3075,-2.3075,0.0,0.0,0.0,0.0,0.0,0.0,0.0,0.0,0.0,-2.6117,-2.6129,-2.6381,-2.6887,-2.6898,-2.7013,-2.719,-2.719,-2.719,-2.719,-2.719,-2.719,-2.719,-2.719,-2.719,-2.719,-2.719,-2.719,-2.719,0.0,0.0,0.0,0.0,-2.719,-2.719,0.0,0.0,0.0,0.0,0.0,0.0,0.0,0.0,0.0,0.0,0.0,0.0,-1.3499,-1.3792,-1.4402,-1.5655,-1.5554,-1.5619,-1.6041,0.0,0.0,0.0,0.0,0.0,0.0,0.0,0.0,-1.6609,-1.6763,-1.6931,-1.714,-1.7158,-1.7209,-1.7286,-1.7201,-1.7303,-1.7456,-1.6802,-1.6609,0.0,0.0,0.0,0.0,0.0,0.0,0.0,0.0,0.0,0.0,0.0,0.0,0.0,0.0,0.0,0.0,0.0,0.0,0.0,0.0,0.0,0.0,0.0,0.0,0.0,0.0,0.0,0.0,0.0,0.0,0.0,0.0,0.0,0.0,0.0,0.0,0.0,0.0,-2.3224,-2.3213,-2.3556,-2.3602,-2.3648,0.0,0.0,0.0,0.0,0.0,0.0,-2.5302,-2.5693,-2.614,-2.6645,-2.6657,-2.6841,-2.7179,-2.719,-2.719,-2.719,-2.719,-2.719,-2.719,-2.719,-2.719,-2.719,-2.719,-2.719,-2.719,-2.719,-2.719,-2.719,-2.719,-2.719,-2.719,-2.719,-2.719,-2.719,0.0,0.0,0.0,0.0,0.0,0.0,0.0,0.0,0.0,0.0,0.0,-1.2695,-1.376,-1.3886,-1.4351,-1.5502,-1.5235,-1.5533,-1.6766,0.0,0.0,0.0,0.0,0.0,0.0,0.0,0.0,-1.6609,-1.7178,-1.7549,-1.7739,-1.7897,-1.806,-1.8301,-1.806,-1.7775,-1.7454,-1.7047,-1.6893,-1.6893,0.0,0.0,0.0,0.0,0.0,0.0,0.0,0.0,0.0,0.0,0.0,0.0,0.0,0.0,0.0,0.0,0.0,0.0,0.0,0.0,0.0,0.0,0.0,0.0,0.0,0.0,0.0,0.0,0.0,0.0,0.0,0.0,0.0,0.0,0.0,0.0,0.0,0.0,0.0,-2.4154,-2.4154,0.0,0.0,0.0,0.0,-2.5601,-2.5658,-2.5876,-2.6398,-2.6455,-2.6668,-2.7133,-2.7144,-2.7167,-2.719,-2.719,-2.719,-2.719,-2.719,-2.719,-2.719,-2.719,-2.719,-2.719,-2.719,-2.719,-2.719,-2.719,-2.719,-2.719,-2.719,-2.719,-2.719,-2.719,-2.719,-2.719,0.0,0.0,0.0,0.0,0.0,0.0,0.0,0.0,0.0,-1.1739,-1.2245,-1.2761,-1.3322,-1.4038,-1.479,-1.5512,-1.5881,-1.6329,-1.686,0.0,0.0,0.0,0.0,0.0,0.0,0.0,-1.6983,-1.7386,-1.7579,-1.7918,-1.8378,-1.843,-1.8442,-1.8402,-1.8322,-1.8083,-1.7809,-1.7432,-1.6995,-1.6596,-1.6596,-1.6465,0.0,0.0,0.0,0.0,0.0,0.0,0.0,0.0,0.0,0.0,0.0,0.0,0.0,0.0,0.0,0.0,0.0,0.0,0.0,0.0,0.0,0.0,0.0,0.0,0.0,0.0,0.0,0.0,0.0,0.0,0.0,0.0,0.0,0.0,0.0,0.0,0.0,-2.4613,-2.4659,0.0,-2.5383,-2.5429,-2.5509,-2.5704,-2.6014,-2.6318,-2.6501,-2.6783,-2.7047,-2.7179,-2.719,-2.7392,-2.7713,-2.7713,-2.7874,-2.8184,-2.8184,-2.8184,-2.8184,-2.8184,-2.8184,-2.8184,-2.8184,-2.8184,-2.8184,-2.8184,-2.7763,-2.719,-2.719,-2.719,-2.719,-2.719,-2.719,-2.719,0.0,0.0,0.0,0.0,0.0,0.0,0.0,0.0,0.0,-1.1708,-1.2075,-1.2505,-1.3054,-1.3909,-1.4739,-1.5472,-1.6125,-1.6652,-1.7094,0.0,0.0,0.0,0.0,0.0,0.0,-1.709,-1.7374,-1.7718,-1.7966,-1.8325,-1.87,-1.87,-1.8652,-1.8603,-1.8482,-1.8322,-1.8103,-1.7806,-1.7342,-1.675,-1.663,-1.661,-1.6721,0.0,0.0,0.0,0.0,0.0,0.0,0.0,0.0,0.0,0.0,0.0,0.0,0.0,0.0,0.0,0.0,0.0,0.0,0.0,0.0,0.0,0.0,0.0,0.0,0.0,0.0,0.0,0.0,0.0,0.0,0.0,0.0,0.0,0.0,0.0,-2.4625,-2.5119,-2.5187,-2.5383,-2.5922,-2.5968,-2.6037,-2.617,-2.6531,-2.6726,-2.6726,-2.7208,-2.7483,-2.7483,-2.7603,-2.7885,-2.8218,-2.823,-2.8379,-2.87,-2.87,-2.87,-2.87,-2.87,-2.87,-2.87,-2.87,-2.87,-2.87,-2.87,-2.8322,-2.7725,-2.7725,-2.7725,-2.7725,-2.7725,-2.7725,-2.7725,0.0,0.0,0.0,0.0,0.0,0.0,0.0,0.0,0.0,-1.2164,-1.1828,-1.191,-1.2995,-1.3494,-1.42,-1.5323,-1.5873,-1.6562,-1.7427,-1.7132,0.0,0.0,0.0,0.0,-1.7238,-1.7992,-1.8082,-1.7523,-1.8316,-1.8718,-1.8718,-1.8727,-1.8847,-1.9038,-1.8638,-1.8428,-1.842,-1.8138,-1.7834,-1.7488,-1.7081,-1.715,-1.7505,0.0,0.0,0.0,0.0,0.0,0.0,0.0,0.0,0.0,0.0,0.0,0.0,0.0,0.0,0.0,0.0,0.0,0.0,0.0,0.0,0.0,0.0,0.0,0.0,0.0,0.0,0.0,0.0,0.0,0.0,0.0,0.0,0.0,-2.4889,-2.4923,-2.5142,-2.567,-2.5739,-2.5934,-2.6501,-2.6559,-2.6754,-2.7179,-2.7224,-2.7224,-2.7213,-2.7736,-2.8,-2.8,-2.8459,-2.8712,-2.8723,-2.8723,-2.8723,-2.8746,-2.8746,-2.8746,-2.8746,-2.8746,-2.8746,-2.8746,-2.8746,-2.8746,-2.8746,-2.8746,-2.8746,-2.8746,-2.8712,-2.87,-2.87,-2.87,-2.87,-2.87,0.0,0.0,0.0,0.0,0.0,0.0,0.0,0.0,-1.1259,-1.1656,-1.1766,-1.2234,-1.3427,-1.4371,-1.5292,-1.6239,-1.7033,-1.7479,-1.7492,0.0,0.0,0.0,0.0,0.0,-1.742,-1.7761,-1.8031,-1.8157,-1.8945,-1.9344,-1.9344,-1.9806,-1.9951,-1.9868,-1.9534,-1.9217,-1.883,-1.8566,-1.822,-1.7843,-1.7466,-1.742,-1.748,0.0,0.0,0.0,0.0,0.0,0.0,0.0,0.0,0.0,0.0,0.0,0.0,0.0,0.0,0.0,0.0,0.0,0.0,0.0,0.0,0.0,0.0,0.0,0.0,0.0,0.0,0.0,0.0,0.0,0.0,0.0,0.0,-2.4395,-2.4395,-2.5027,-2.5681,-2.6237,-2.6255,-2.66,-2.7483,-2.7605,-2.7621,-2.7759,-2.8103,-2.8149,-2.7793,-2.8241,-2.8505,-2.8505,-2.8632,-2.8884,-2.9274,-2.9274,-2.9458,-2.9802,-2.9802,-2.9802,-2.9802,-2.9802,-2.9802,-2.9802,-2.9802,-2.9802,-2.9802,-2.9802,-2.9802,-2.9722,-2.8987,-2.87,-2.87,-2.87,-2.87,-2.87,0.0,0.0,0.0,0.0,0.0,0.0,0.0,0.0,-1.1172,-1.1297,-1.1645,-1.2342,-1.342,-1.4632,-1.5666,-1.6378,-1.7264,-1.7569,-1.703,0.0,0.0,0.0,0.0,-1.7222,-1.7505,-1.7952,-1.8262,-1.8467,-1.9235,-1.9596,-1.9582,-1.9991,-2.015,-2.0032,-1.9759,-1.9518,-1.9181,-1.8962,-1.8708,-1.8477,-1.8091,-1.7843,-1.7663,-1.7287,-1.7381,-1.768,-1.7427,-1.7526,-1.7672,-1.7419,0.0,0.0,0.0,0.0,0.0,0.0,0.0,0.0,0.0,0.0,0.0,0.0,0.0,0.0,0.0,0.0,0.0,0.0,0.0,0.0,0.0,0.0,0.0,0.0,-2.474,-2.4832,-2.4832,-2.552,-2.6221,-2.6726,-2.6967,-2.7375,-2.792,-2.8161,-2.8287,-2.8287,-2.854,-2.8574,-2.8299,-2.8758,-2.9033,-2.9033,-2.9228,-2.9481,-2.9791,-2.9802,-2.994,-3.0216,-3.0216,-3.0216,-3.0216,-3.0216,-3.0216,-3.0216,-3.0216,-3.0216,-3.0216,-3.0216,-3.0216,0.0,0.0,0.0,0.0,0.0,-2.9332,-2.9332,0.0,0.0,0.0,0.0,0.0,0.0,0.0,0.0,-1.1111,-1.1111,-1.1582,-1.2267,-1.314,-1.451,-1.5546,-1.6095,-1.6828,-1.6992,0.0,0.0,0.0,-1.6436,-1.7393,-1.7834,-1.7574,-1.8311,-1.8679,-1.8588,-1.9315,-1.9671,-1.9565,-1.9831,-1.9943,-1.9943,-1.972,-1.96,-1.9565,-1.9316,-1.9213,-1.9187,-1.8793,-1.8434,-1.8017,-1.7629,-1.768,-1.7923,-1.7889,-1.7897,-1.7931,-1.7931,0.0,0.0,0.0,0.0,0.0,0.0,0.0,0.0,0.0,0.0,0.0,0.0,0.0,0.0,0.0,0.0,0.0,0.0,0.0,0.0,0.0,0.0,0.0,0.0,-2.5119,-2.5773,-2.5945,-2.6358,-2.6806,-2.7254,-2.7759,-2.8092,-2.8149,-2.854,-2.8792,-2.8792,-2.8838,-2.885,-2.8792,0.0,0.0,0.0,0.0,-3.0216,-3.0216,-3.0273,-3.0308,-3.0308,-3.0365,-3.0388,-3.0388,-3.0388,-3.0388,-3.0388,-3.0388,-3.0388,-3.0388,-3.0388,-3.0388,-3.0376,-3.0262,-3.0216,-3.0216,-3.0216,-3.0216,-3.0216,0.0,0.0,0.0,0.0,0.0,0.0,0.0,0.0,-1.1111,-1.1111,-1.1582,-1.2186,-1.2916,-1.4129,-1.5285,-1.619,-1.6146,-1.5996,0.0,0.0,-1.6687,-1.7227,-1.7458,-1.7689,-1.788,-1.8542,-1.8776,-1.8588,-1.9718,-2.0157,-1.9983,-2.0501,-2.0775,-2.0775,-2.0561,-2.0306,-1.9983,-1.972,-1.9453,-1.9213,-1.9136,-1.8828,-1.84,-1.7763,-1.7557,-1.7535,-1.7244,-1.7329,-1.7617,-1.7617,-1.7732,-1.7889,-1.7889,-1.7715,0.0,0.0,0.0,0.0,0.0,0.0,0.0,0.0,0.0,0.0,0.0,0.0,0.0,0.0,0.0,0.0,0.0,0.0,0.0,-2.5253,-2.5578,-2.614,-2.7369,-2.7621,-2.7725,-2.7828,-2.8264,-2.8723,-2.9171,-2.9286,-2.9343,-2.9343,-2.9711,-2.9757,-2.9366,-2.9814,-3.0078,-3.0078,-3.017,-3.0216,-3.0216,-3.0641,-3.0859,-3.0859,0.0,0.0,-3.1385,-3.1456,-3.1514,-3.1514,-3.1514,-3.1514,-3.1514,-3.1514,-3.1514,-3.1387,-3.0537,-3.0216,-3.0216,-3.0216,-3.0216,-3.0216,0.0,0.0,0.0,0.0,0.0,0.0,0.0,0.0,-1.1111,-1.1111,-1.1435,-1.2019,-1.2822,-1.3597,-1.4583,-1.5873,-1.6021,0.0,0.0,-1.6263,-1.6876,-1.748,-1.7655,-1.7929,-1.8305,-1.8668,-1.9003,-1.9162,-1.9896,-2.0228,-2.0205,-2.0513,-2.0645,-2.0645,-2.0555,-2.0369,-2.0197,-2.0063,-1.9906,-1.9718,-1.953,-1.9341,-1.9085,-1.8314,-1.8072,-1.802,-1.7572,-1.7595,-1.7749,-1.7749,-1.7749,-1.7749,-1.7749,-1.762,-1.7505,0.0,0.0,0.0,0.0,0.0,0.0,0.0,0.0,0.0,0.0,0.0,0.0,0.0,0.0,-2.1786,-2.2366,0.0,-2.4889,-2.5922,-2.6301,-2.6829,-2.7839,-2.8425,-2.8643,-2.8367,-2.8792,-2.9206,-2.947,-2.9711,-2.986,-2.986,-3.0078,-3.0112,-2.9871,-3.0089,-3.0216,-3.0216,-3.048,-3.0618,-3.0618,-3.1134,-3.1387,-3.1328,-3.1639,-3.1766,-3.1754,-3.1766,-3.1813,-3.1813,-3.1813,-3.1813,-3.1813,-3.1813,-3.1813,-3.1756,-3.118,-3.0985,-3.0996,-3.0996,-3.0985,-3.0973,0.0,0.0,0.0,0.0,0.0,0.0,0.0,0.0,0.0,0.0,-1.1321,-1.1774,-1.2462,-1.2913,-1.3712,0.0,0.0,0.0,0.0,-1.6278,-1.6991,-1.756,-1.7869,-1.8136,-1.8468,-1.8806,-1.9186,-1.9589,-1.9955,-2.0179,-2.0292,-2.0292,-2.0292,-2.0292,-2.0292,-2.0292,-2.0292,-2.0292,-2.0292,-2.0266,-1.9966,-1.9759,-1.9623,-1.8965,-1.8656,-1.8537,-1.8128,-1.8,-1.8,-1.8,-1.7834,-1.7617,-1.7617,-1.7565,-1.7462,-1.7201,-1.7478,0.0,0.0,0.0,0.0,0.0,0.0,0.0,0.0,-1.7996,-1.8825,-1.9259,-2.0558,-2.2043,-2.3476,-2.4226,-2.4997,-2.616,-2.6751,-2.7285,-2.7918,-2.8889,-2.9378,-2.9033,-2.9378,-2.9642,-2.9642,-2.9986,-3.0216,-3.0216,-3.0216,-3.0216,-3.0216,-3.0319,-3.0376,-3.0376,-3.0893,-3.1157,-3.1157,-3.1651,-3.1892,-3.188,-3.2007,-3.2112,-3.2112,-3.2112,-3.2112,-3.2112,-3.2112,-3.2112,-3.2112,-3.2112,-3.2112,-3.2112,-3.2041,-3.2041,-3.2089,-3.1882,-3.1754,-3.1683,0.0,0.0,0.0,0.0,0.0,0.0,0.0,0.0,0.0,0.0,0.0,0.0,0.0,0.0,0.0,0.0,0.0,0.0,-1.5096,-1.5762,-1.6691,-1.7874,-1.7974,-1.8017,-1.8059,-1.881,-1.9196,-1.9282,-1.9951,-2.0294,-2.0292,-2.0292,-2.0292,-2.0292,-2.0292,-2.0292,-2.0292,-2.0292,-2.0292,-2.0292,-2.0249,-2.0035,-1.9648,-1.9273,-1.8888,-1.8537,-1.8128,-1.8,-1.8,-1.8,-1.7965,-1.7931,-1.7931,-1.774,-1.7565,-1.7786,-1.7732,-1.7586,-1.7803,-1.7419,-1.6893,-1.6513,-1.6684,-1.6893,0.0,-1.7619,-1.879,-1.9374,-2.0186,-2.1458,-2.3487,-2.3692,-2.4043,-2.5541,-2.6264,-2.6986,-2.7887,-2.8868,-2.963,-2.9998,-3.0101,-3.0135,-3.0135,-3.0181,-3.0216,-3.0216,-3.0216,-3.0216,-3.0216,-3.0663,-3.0928,-3.0928,-3.1421,-3.1733,-3.1733,-3.2156,-3.2408,-3.2408,-3.2879,-3.312,-3.312,-3.312,-3.312,-3.312,-3.312,-3.312,-3.312,-3.312,-3.312,-3.312,-3.3109,-3.312,-3.3005,-3.2147,-3.1754,-3.1683,0.0,0.0,0.0,0.0,0.0,0.0,0.0,0.0,0.0,0.0,0.0,0.0,0.0,0.0,0.0,0.0,0.0,0.0,-1.427,-1.5268,-1.6276,-1.7212,-1.774,-1.8094,-1.8348,-1.8665,-1.899,-1.9213,-1.9487,-1.9641,-1.9641,-1.9872,-1.9975,-1.9984,-2.0198,-2.0292,-2.0292,-2.0292,-2.0163,-1.9975,-1.9975,-1.9744,-1.9367,-1.8982,-1.8767,-1.8537,-1.8128,-1.8,0.0,0.0,-1.8,-1.8,-1.8,-1.7889,-1.7783,-1.7723,-1.7749,-1.774,-1.7419,-1.712,-1.6846,-1.6675,-1.7086,-1.7487,-1.7364,-1.8262,-1.9119,-1.9128,-2.0058,-2.1265,-2.2605,-2.3155,-2.4022,0.0,-2.6682,-2.7272,-2.7905,-2.9083,-2.9568,-2.8577,-2.8945,-2.9566,-3.0125,-2.9658,-2.9566,-3.017,-2.9658,-2.9701,-3.0617,-3.0893,-3.1146,-3.1444,-3.1926,-3.2227,-3.2227,-3.2695,-3.2948,-3.2948,-3.3178,-3.3281,-3.3281,-3.3281,-3.3281,-3.3281,-3.3281,-3.3281,-3.3281,-3.3281,-3.3281,-3.3281,-3.3281,-3.3281,-3.3235,-3.281,-3.265,-3.2638,0.0,0.0,0.0,0.0,0.0,0.0,0.0,0.0,0.0,0.0,0.0,0.0,0.0,0.0,0.0,0.0,0.0,0.0,0.0,-1.4586,-1.5582,-1.6532,-1.7277,-1.7907,-1.8425,-1.8537,-1.8641,-1.8667,-1.8768,-1.881,-1.8818,-1.9043,-1.9309,-1.9554,-1.9864,-1.9841,-1.9608,-1.9608,-1.9457,-1.9178,-1.9178,-1.9125,-1.9007,-1.8588,-1.8434,-1.84,-1.8094,-1.8,0.0,0.0,-1.8,-1.8,-1.8,-1.8,-1.794,-1.7706,-1.7817,-1.788,-1.7342,-1.715,-1.7098,-1.7162,-1.7598,-1.8025,-1.8128,-1.8858,-1.9528,-1.9605,-2.0205,-2.1151,-2.2421,-2.2712,-2.346,-2.5597,-2.6411,-2.6923,-2.7289,-2.8604,-2.8948,-2.7389,-2.7851,-2.8574,-2.9314,-2.8713,-2.8713,-2.9703,-2.9274,-2.9506,-3.095,-3.1272,-3.1582,-3.1997,-3.2443,-3.2707,-3.2707,-3.3086,-3.3281,-3.3281,-3.3281,-3.3281,-3.3281,-3.3281,-3.3281,-3.3281,-3.3281,-3.3281,-3.3281,-3.3281,-3.3281,-3.3281,-3.3281,-3.3281,-3.3281,-3.3281,-3.3281,-3.3281,0.0,0.0,0.0,0.0,0.0,0.0,0.0,0.0,0.0,0.0,0.0,0.0,0.0,0.0,0.0,0.0,0.0,0.0,0.0,-1.3575,-1.4534,-1.6238,-1.6597,-1.7164,-1.8017,-1.84,-1.8171,-1.7347,-1.7658,-1.7818,-1.7826,-1.7834,-1.8335,-1.9239,-1.9247,-1.8714,-1.7893,-1.7893,-1.7893,-1.7877,-1.7877,-1.8148,-1.8562,-1.8153,-1.8017,-1.8017,-1.8,0.0,0.0,0.0,-1.8,-1.8,-1.8,-1.8,-1.8,-1.7983,-1.7991,-1.7991,-1.7965,-1.7732,-1.7574,-1.7871,-1.7983,-1.8094,-1.8485,-1.9039,-1.989,-2.1176,-2.0734,-2.0913,-2.3561,-2.241,-2.1807,-2.3999,-2.482,-2.5299,-2.5702,-2.6954,-2.7707,-2.7241,-2.7237,-2.7284,0.0,-2.7284,-2.7662,-2.8678,-2.9197,-2.9919,-3.0961,-3.1915,-3.2443,-3.2466,-3.2982,-3.3258,-3.3258,-3.3281,-3.3281,-3.3281,-3.3281,-3.3281,-3.3281,-3.3281,-3.3281,-3.3281,-3.3281,-3.3281,-3.3281,-3.3281,-3.3281,-3.3281,-3.3281,-3.3281,-3.3281,-3.3281,-3.3281,-3.3281,0.0,0.0,0.0,0.0,0.0,0.0,0.0,0.0,0.0,0.0,0.0,0.0,0.0,0.0,0.0,0.0,0.0,0.0,0.0,-1.2936,-1.3782,-1.4534,-1.5383,-1.6255,-1.7115,-1.727,-1.7466,-1.777,-1.7291,-1.709,-1.7048,-1.6726,-1.6698,-1.7021,-1.7297,-1.7224,-1.6961,-1.6961,-1.7136,-1.7448,-1.7448,-1.7753,-1.8211,-1.8042,-1.8,-1.8,0.0,0.0,0.0,0.0,0.0,-1.8,-1.8,-1.8,-1.8042,-1.8331,-1.8228,-1.8051,-1.834,-1.8305,-1.8237,-1.8365,-1.8785,-1.9161,-1.9281,-1.9685,-2.0163,-2.0597,-2.0454,-2.0542,-2.1632,-2.1392,-2.1699,-2.3835,-2.4699,-2.5233,-2.5635,-2.6936,-2.7144,-2.5391,-2.5781,0.0,0.0,0.0,0.0,-2.9077,-2.8775,-2.9187,-3.0754,-3.1196,-3.1517,-3.189,-3.2067,-3.2156,-3.2156,-3.2156,-3.2156,-3.2167,-3.2958,-3.3281,-3.3281,-3.3281,-3.3281,-3.3281,-3.3281,-3.3281,-3.3281,-3.3281,-3.3281,-3.3281,-3.3281,-3.3281,-3.3281,-3.3281,-3.3281,-3.3281,0.0,0.0,0.0,0.0,0.0,0.0,0.0,0.0,0.0,0.0,0.0,0.0,0.0,0.0,0.0,0.0,0.0,0.0,0.0,0.0,-1.308,-1.3648,-1.4476,-1.5304,-1.6206,-1.6247,-1.6501,-1.7082,-1.6501,-1.6247,-1.6214,-1.5878,-1.5729,-1.5736,-1.5999,-1.5915,-1.5612,-1.5612,-1.5791,-1.6117,-1.6117,-1.6698,-1.7521,-1.7396,-1.759,0.0,0.0,0.0,0.0,0.0,0.0,-1.8,-1.8,-1.8085,-1.8254,-1.8357,-1.8417,-1.8459,-1.8562,-1.8691,-1.8828,-1.8965,-1.9332,-1.9734,-1.9862,-2.0121,-2.0292,-2.0292,-2.0292,-2.0382,-2.0654,-2.0826,-2.1481,-2.3289,-2.4174,-2.4745,-2.5129,-2.6191,-2.6248,-2.4415,-2.4784,-2.4988,0.0,0.0,0.0,-2.8202,-2.8045,-2.8528,-3.012,-3.0362,-3.0801,-3.1564,-3.1216,-3.1165,-3.1575,-3.1216,-3.1216,-3.1626,-3.2745,-3.3281,-3.3281,-3.3281,-3.3281,-3.3281,-3.3281,-3.3281,-3.3281,-3.3281,-3.3281,-3.3281,-3.3281,-3.3281,-3.3281,-3.3281,-3.3281,-3.3281,0.0,0.0,0.0,0.0,0.0,0.0,0.0,0.0,0.0,0.0,0.0,0.0,0.0,0.0,0.0,0.0,0.0,0.0,0.0,0.0,0.0,-1.3547,-1.3785,-1.4364,-1.5311,-1.5311,-1.5352,-1.5394,-1.5352,-1.5311,-1.5311,-1.5311,-1.5311,-1.5352,-1.5394,-1.4887,-1.3999,-1.3999,-1.3999,-1.3999,-1.3999,-1.5081,-1.6577,-1.6261,0.0,0.0,0.0,0.0,0.0,-1.7974,-1.7957,-1.794,-1.794,-1.8237,-1.8468,-1.8119,-1.8579,-1.9119,-1.8759,-1.893,-1.929,-1.9631,-1.9725,-1.9819,-2.0215,-2.0292,-2.0292,-2.0292,-2.0292,-2.0382,-2.0654,-2.0699,-2.1135,-2.2373,-2.3271,-2.3904,-2.4152,-2.4909,-2.512,-2.4303,-2.422,-2.4395,-2.4748,0.0,0.0,-2.6187,0.0,-2.8066,-2.9106,-2.958,-3.0338,-3.137,-3.039,-3.0338,-3.1421,-3.0328,-3.039,-3.1524,-3.2695,-3.3231,-3.3281,-3.3281,-3.3281,-3.3281,-3.3281,-3.3281,-3.3281,-3.3281,-3.3281,-3.3281,-3.3281,-3.3281,-3.3281,-3.3281,-3.3281,-3.3281,0.0,0.0,0.0,0.0,0.0,0.0,0.0,0.0,0.0,0.0,0.0,0.0,0.0,0.0,0.0,0.0,0.0,0.0,0.0,0.0,0.0,0.0,0.0,0.0,0.0,0.0,0.0,0.0,-1.472,-1.4378,-1.4378,-1.4378,-1.4378,-1.4378,-1.5095,-1.4887,-1.3999,-1.3999,-1.3999,-1.3999,0.0,-1.4713,-1.5794,0.0,0.0,0.0,0.0,0.0,-1.7957,-1.7706,-1.7432,-1.7171,-1.7171,-1.7458,-1.7883,-1.8314,-1.8588,-1.8896,-1.965,-1.9735,-1.964,-2.0061,-2.0155,-2.0172,-2.0275,-2.0292,-2.0292,-2.0292,-2.0292,-2.0337,-2.0382,-2.0564,-2.0989,-2.1854,-2.3028,0.0,-2.3895,-2.4756,-2.512,-2.4303,-2.4477,-2.4716,-2.4776,-2.5359,0.0,0.0,-2.7012,-2.7839,-2.8407,-2.8589,-2.8754,-2.9061,-2.8807,-2.8744,-2.9061,-2.8807,-2.923,-3.0338,-3.1483,-3.2482,-3.3281,-3.3281,-3.3281,-3.3281,-3.3281,-3.3281,-3.3281,-3.3281,-3.3281,-3.3281,-3.3281,-3.3281,-3.3281,-3.3281,-3.3281,-3.3281,0.0,0.0,0.0,0.0,0.0,0.0,0.0,0.0,0.0,0.0,0.0,0.0,0.0,0.0,0.0,0.0,0.0,0.0,0.0,0.0,0.0,0.0,0.0,0.0,0.0,0.0,0.0,0.0,0.0,0.0,-1.3861,-1.3861,-1.3719,-1.3457,-1.3964,-1.3856,-1.3236,-1.3236,0.0,0.0,0.0,0.0,0.0,0.0,0.0,0.0,0.0,0.0,-1.7478,-1.7304,-1.7201,-1.7192,-1.7355,-1.7783,-1.8346,-1.8716,-1.9076,-1.9436,-1.9924,-2.0018,-2.0035,-2.024,-2.0292,-2.0292,-2.0292,-2.0292,-2.0292,-2.0292,-2.0292,-2.0292,-2.0292,-2.0428,-2.0763,-2.1456,-2.2593,-2.3395,-2.3502,-2.4441,-2.4876,-2.4275,-2.4578,-2.4849,-2.5074,-2.5644,-2.6094,0.0,-2.6805,-2.7273,-2.7501,-2.7511,-2.7707,-2.8169,-2.7761,-2.7511,-2.7511,-2.7965,-2.8542,-2.9177,-3.0328,-3.1432,-3.2533,-3.2533,-3.2807,-3.3281,0.0,-3.3281,-3.3281,-3.3281,-3.3281,-3.3281,-3.3281,-3.3281,-3.3281,-3.3281,-3.3281,-3.3281,0.0,0.0,0.0,0.0,0.0,0.0,0.0,0.0,0.0,0.0,0.0,0.0,0.0,0.0,0.0,0.0,0.0,0.0,0.0,0.0,0.0,0.0,0.0,0.0,0.0,0.0,0.0,0.0,0.0,0.0,0.0,0.0,0.0,0.0,0.0,0.0,0.0,0.0,0.0,0.0,0.0,0.0,0.0,0.0,0.0,0.0,0.0,0.0,-1.688,-1.688,-1.7098,-1.7437,-1.7826,-1.8451,-1.9042,-1.9187,-1.9667,-2.0163,-1.9845,-2.0043,-2.0292,-2.0292,-2.0292,-2.0292,-2.0292,-2.0292,-2.0292,-2.0292,-2.0292,-2.0309,-2.036,-2.0326,-2.0529,-2.12,-2.2153,-2.289,-2.3129,-2.4108,-2.4684,-2.4257,-2.4565,-2.4996,-2.5335,-2.5775,-2.6197,-2.6564,-2.6591,-2.6591,-2.6591,-2.6591,-2.7053,-2.7975,-2.7107,-2.6591,-2.6591,-2.7454,-2.8014,-2.8223,-2.9108,-3.0161,-3.137,-3.1458,-3.2101,-3.3069,-3.3231,0.0,-3.3281,-3.3281,-3.3281,-3.3281,-3.3281,-3.3281,-3.3281,-3.3281,-3.3281,-3.3281,0.0,0.0,0.0,0.0,0.0,0.0,0.0,0.0,0.0,0.0,-1.1256,-1.1111,0.0,0.0,0.0,0.0,0.0,0.0,0.0,0.0,0.0,0.0,0.0,0.0,0.0,0.0,0.0,0.0,0.0,0.0,0.0,0.0,0.0,0.0,0.0,0.0,0.0,0.0,0.0,0.0,0.0,0.0,0.0,0.0,0.0,0.0,0.0,-1.6729,0.0,0.0,-1.6747,-1.6707,-1.7385,-1.7877,-1.8357,-1.899,-1.9487,-1.9845,-2.0129,-2.024,-2.0292,-2.0292,-2.0292,-2.0292,-2.0292,-2.0292,-2.0292,-2.0292,-2.0292,-2.0386,-2.072,-2.0514,-2.0523,-2.1255,-2.2247,-2.2936,-2.2872,-2.4023,-2.4721,-2.4235,-2.4599,-2.502,-2.5362,-2.5818,0.0,0.0,-2.6591,-2.6591,-2.6591,-2.6591,-2.6691,-2.6899,-2.6691,-2.6591,-2.6591,-2.6439,-2.6999,-2.8213,-2.7708,-2.846,-3.0224,-3.0817,-3.1366,-3.1953,-3.2908,0.0,-3.3281,-3.3281,-3.3281,-3.3281,-3.3281,-3.3281,-3.3281,-3.3281,-3.3281,-3.3224,0.0,0.0,0.0,0.0,0.0,0.0,0.0,-1.1145,-1.1441,-1.1844,-1.1817,-1.1685,-1.1546,-1.1534,-1.1479,0.0,0.0,0.0,0.0,0.0,0.0,0.0,0.0,0.0,0.0,0.0,0.0,0.0,0.0,0.0,0.0,0.0,0.0,0.0,0.0,0.0,0.0,0.0,0.0,0.0,0.0,0.0,0.0,0.0,0.0,0.0,0.0,0.0,0.0,0.0,-1.664,-1.6158,-1.717,-1.786,-1.8468,-1.9239,-1.9735,-2.0069,-2.024,-2.0292,-2.0292,-2.0292,-2.0292,-2.0292,-2.0292,-2.0292,-2.0292,-2.0292,-2.0292,-2.0352,-2.054,-2.042,-2.0412,-2.0771,-2.1696,-2.2332,-2.2294,-2.3443,-2.422,-2.3999,-2.4552,-2.5041,-2.5372,-2.5828,-2.6236,-2.6582,-2.6591,-2.6591,-2.6591,-2.6591,-2.6591,-2.6591,-2.6371,-2.6261,-2.6261,-2.6113,-2.637,-2.7072,-2.6664,-2.7356,-2.9009,-2.9188,-3.0102,-3.1626,-3.2167,0.0,-3.3281,-3.3281,-3.3281,-3.3258,-3.2982,-3.304,-3.3224,-3.2695,-3.2833,-3.3166,0.0,0.0,0.0,0.0,0.0,0.0,0.0,-1.1107,-1.1644,-1.2373,-1.2433,-1.2343,-1.2157,-1.2036,-1.1838,0.0,0.0,0.0,0.0,0.0,0.0,0.0,0.0,0.0,0.0,0.0,0.0,0.0,0.0,0.0,0.0,0.0,0.0,0.0,0.0,0.0,0.0,0.0,0.0,0.0,0.0,0.0,0.0,0.0,0.0,0.0,0.0,0.0,-1.623,-1.7192,-1.666,-1.5837,-1.7105,-1.7969,-1.8648,-1.9546,-2.0009,-2.0189,-2.0275,-2.0292,-2.0292,-2.0292,-2.0292,-2.0292,-2.0292,-2.0292,-2.0292,-2.0292,-2.0292,-2.0317,-2.0403,-2.0352,-2.0317,-2.0403,-2.1233,-2.1844,-2.1804,-2.2921,-2.3745,-2.3814,-2.4347,-2.4875,-2.5258,-2.5658,0.0,-2.6473,-2.6537,-2.6591,-2.6591,-2.6591,-2.6545,-2.6454,-2.6278,-2.6104,-2.6012,-2.5929,-2.5975,-2.614,-2.5791,-2.6386,-2.7714,-2.7542,-2.8663,-3.0758,-3.1378,0.0,0.0,-3.3181,-3.3212,-3.3074,-3.265,-3.2684,-3.2868,-3.2064,-3.2271,-3.2833,0.0,0.0,0.0,0.0,0.0,0.0,0.0,-1.0923,-1.1464,-1.2846,-1.2825,-1.2753,-1.2988,-1.253,-1.2077,0.0,0.0,0.0,0.0,0.0,0.0,0.0,0.0,0.0,0.0,0.0,0.0,-1.1111,0.0,0.0,0.0,0.0,0.0,0.0,0.0,0.0,0.0,0.0,0.0,0.0,0.0,0.0,0.0,0.0,0.0,0.0,0.0,-1.5701,-1.623,-1.7192,-1.666,-1.5837,-1.7105,-1.7757,-1.8333,-1.9812,-2.0026,-1.9819,-2.0198,-2.0292,-2.0292,-2.0292,-2.0292,-2.0292,-2.0292,-2.0292,-2.0292,-2.0292,-2.0292,-2.0403,-2.0763,-2.0531,-2.0412,-2.0771,-2.1504,-2.1962,-2.1839,-2.2813,-2.3602,-2.38,-2.4038,-2.4403,-2.4884,-2.5155,-2.5505,-2.6127,-2.6418,-2.6591,-2.6591,-2.6591,-2.6417,-2.6085,-2.6353,-2.6344,-2.6021,-2.5663,-2.5793,-2.6518,-2.5074,-2.5015,-2.6208,-2.6785,-2.739,-2.8083,-3.0551,0.0,0.0,-3.2857,-3.2994,-3.2546,-3.25,-3.2248,-3.194,-3.1777,-3.1812,-3.1882,0.0,0.0,0.0,0.0,0.0,0.0,-1.0146,-1.0684,-1.1446,-1.2923,-1.3025,-1.2934,-1.288,-1.2831,-1.2482,-1.179,0.0,0.0,0.0,0.0,0.0,0.0,0.0,0.0,0.0,0.0,-1.1327,-1.1327,-1.1327,0.0,0.0,0.0,0.0,0.0,0.0,0.0,0.0,0.0,0.0,0.0,0.0,0.0,0.0,0.0,0.0,0.0,0.0,0.0,-1.4984,-1.5932,-1.5742,-1.5272,-1.6252,-1.7221,-1.8205,-1.9307,-1.9829,-2.0103,-2.0249,-2.0292,-2.0292,-2.0292,-2.0292,-2.0292,-2.0292,-2.0292,-2.0292,-2.0292,-2.0292,-2.0343,-2.0497,-2.0403,-2.0343,-2.0497,-2.1156,-2.1641,-2.1574,-2.249,-2.3221,-2.3314,-2.3781,-2.4246,0.0,0.0,-2.545,-2.6072,-2.6236,-2.6418,-2.6582,-2.6344,-2.6186,-2.6021,-2.5718,-2.5417,-2.5304,-2.5148,-2.5298,-2.5848,-2.4959,-2.5084,-2.6002,-2.605,-2.6588,-2.7669,-2.8975,0.0,0.0,-3.2106,-3.2379,-3.2454,-3.2167,-3.1974,-3.1744,-3.1054,-3.1215,-3.1698,0.0,0.0,0.0,0.0,0.0,-0.8225,-0.9883,-1.0466,-1.1332,-1.2998,-1.3131,-1.3049,-1.285,-1.2928,-1.2741,-1.2054,-1.1968,0.0,0.0,0.0,0.0,0.0,0.0,0.0,0.0,0.0,-1.1609,-1.1609,-1.1531,-1.1429,0.0,0.0,0.0,0.0,0.0,0.0,0.0,0.0,0.0,0.0,0.0,0.0,0.0,0.0,0.0,0.0,0.0,0.0,0.0,0.0,0.0,-1.5075,-1.557,0.0,0.0,-1.8844,-1.9533,-2.0155,-2.0266,-2.0292,-2.0292,-2.0292,-2.0292,-2.0292,-2.0292,-2.0292,-2.0292,-2.0292,-2.0292,-2.0292,-2.0292,-2.0292,-2.0292,-2.0292,-2.0831,-2.1293,-2.1396,-2.2166,-2.2774,-2.2987,0.0,-2.4088,-2.4351,-2.4884,-2.5395,-2.5789,-2.6008,-2.6181,-2.6418,-2.6188,-2.5957,-2.5846,-2.5243,-2.4904,-2.4785,-2.4904,-2.5161,-2.5589,-2.5142,-2.5359,-2.6002,-2.5727,-2.6091,-2.6983,-2.7703,0.0,0.0,-3.1059,-3.1533,-3.2018,-3.1674,-3.1444,-3.1226,-3.0491,-3.0686,-3.1203,0.0,0.0,0.0,0.0,0.0,0.0,-0.9987,-1.0289,-1.1085,-1.32,-1.3239,-1.3083,-1.3121,-1.2874,-1.2602,-1.233,-1.203,0.0,0.0,0.0,0.0,0.0,0.0,0.0,0.0,0.0,-1.192,-1.192,-1.1621,-1.1621,-1.1908,-1.1609,-1.1489,-1.1501,0.0,0.0,0.0,0.0,0.0,0.0,0.0,0.0,0.0,0.0,0.0,0.0,0.0,0.0,0.0,0.0,0.0,0.0,0.0,0.0,0.0,0.0,-1.901,-1.9785,-2.0189,-2.0292,-2.0292,-2.0292,-2.0292,-2.0292,-2.0292,-2.0292,-2.0292,-2.0292,-2.0292,-2.0292,-2.0292,-2.0292,-2.0292,-2.0292,-2.0626,-2.1011,-2.1362,-2.1756,-2.224,0.0,-2.3419,-2.3824,-2.4088,-2.4776,-2.5221,-2.5221,-2.5789,0.0,-2.6127,-2.6017,-2.5837,-2.5442,-2.5424,-2.5179,-2.4785,-2.517,-2.5617,-2.6002,-2.5607,-2.5626,-2.6012,-2.6012,-2.5791,-2.5503,0.0,0.0,0.0,-2.9785,-3.054,-3.1031,-3.1019,-3.0698,-3.0227,-3.0216,-3.0227,-3.0227,0.0,0.0,0.0,0.0,0.0,0.0,0.0,-1.0857,-1.1408,-1.2534,-1.2777,-1.2837,-1.2837,-1.2759,-1.2602,-1.2337,-1.203,0.0,0.0,0.0,0.0,0.0,0.0,0.0,0.0,0.0,-1.2192,-1.2192,-1.2107,-1.2017,-1.192,-1.1796,-1.176,-1.176,-1.1844,0.0,0.0,0.0,0.0,0.0,0.0,0.0,0.0,0.0,0.0,0.0,0.0,0.0,0.0,0.0,0.0,0.0,0.0,0.0,0.0,0.0,0.0,-2.0002,-1.9413,-1.9774,-2.0147,-1.9446,-1.9774,-2.0292,-2.0292,-2.0292,-2.0292,-2.0292,-2.0292,-2.0292,-2.0292,-2.0292,-2.0292,-2.0292,-2.0626,-2.1097,-2.1722,0.0,0.0,-2.2963,-2.3435,-2.395,0.0,0.0,-2.5026,-2.5165,-2.5395,-2.556,-2.5789,-2.5541,-2.5413,-2.5381,-2.5106,-2.4913,-2.4785,-2.4904,-2.517,-2.5607,-2.5161,-2.5221,-2.5607,-2.5607,-2.5543,0.0,0.0,0.0,0.0,-2.7895,-2.8779,-2.9978,-2.9978,-3.0051,-3.0216,-3.0216,-3.0216,-3.0216,0.0,0.0,0.0,0.0,0.0,0.0,0.0,-1.0842,-1.1468,-1.2344,-1.2602,-1.2705,-1.2705,-1.2705,-1.2638,-1.2475,-1.2222,0.0,0.0,0.0,0.0,0.0,0.0,0.0,-1.2457,-1.2457,-1.2457,-1.2457,-1.2361,-1.2282,-1.2216,-1.2113,-1.2071,-1.2077,-1.2174,-1.2107,0.0,0.0,0.0,0.0,0.0,0.0,-1.2457,0.0,0.0,0.0,0.0,0.0,0.0,0.0,0.0,0.0,0.0,0.0,0.0,0.0,0.0,0.0,-1.888,-1.9263,-1.9492,-1.8511,-1.898,-1.9729,-1.9729,-1.9729,-1.9729,-1.9729,-1.9729,-1.9729,-1.9729,-2.0056,-2.0292,-2.0292,-2.0626,-2.1088,-2.1687,0.0,0.0,-2.3023,0.0,0.0,0.0,-2.4735,-2.4868,-2.5017,-2.5119,-2.5276,-2.5514,-2.5403,-2.5308,-2.5294,-2.4854,-2.4601,-2.4546,-2.4849,-2.5133,-2.5424,-2.5436,-2.5592,-2.583,-2.5718,-2.5644,0.0,0.0,0.0,0.0,-2.6573,-2.7335,-2.8629,-2.8629,-2.8824,-2.9084,-2.9084,-2.9084,-2.9084,0.0,0.0,0.0,0.0,0.0,0.0,0.0,-1.0449,-1.1383,-1.2493,-1.2681,-1.2699,-1.2681,-1.2674,-1.2668,-1.265,0.0,0.0,0.0,0.0,0.0,0.0,0.0,0.0,-1.2699,-1.2705,-1.2705,-1.2705,-1.2457,-1.2469,-1.2699,-1.2457,-1.2343,-1.2355,-1.2596,-1.2433,-1.1952,-1.224,-1.2343,-1.2361,-1.2608,-1.2705,0.0,0.0,0.0,0.0,0.0,0.0,0.0,0.0,0.0,0.0,0.0,0.0,0.0,0.0,0.0,0.0,0.0,-1.865,-1.8465,-1.7429,-1.7948,-1.8696,-1.8788,-1.8742,0.0,-1.8796,-1.8742,-1.8742,-1.8796,-1.9538,-2.0201,-2.0292,-2.0643,-2.1037,0.0,-2.1747,0.0,0.0,-2.3417,0.0,-2.4176,-2.4607,-2.4821,-2.4821,-2.5017,-2.5165,-2.5165,-2.5459,-2.5456,-2.5075,-2.4584,-2.4265,-2.4244,-2.4968,-2.5396,-2.5433,-2.6142,-2.6499,-2.649,-2.6149,-2.5957,0.0,0.0,0.0,0.0,-2.5762,-2.6205,-2.7094,-2.7094,-2.7142,-2.7189,-2.7189,-2.7189,-2.7189,0.0,0.0,0.0,0.0,0.0,0.0,0.0,0.0,0.0,0.0,-1.2457,-1.2626,-1.2427,-1.2403,-1.2324,0.0,0.0,0.0,0.0,0.0,0.0,0.0,0.0,0.0,-1.2705,-1.2705,-1.2705,-1.2705,-1.2644,-1.2644,-1.2705,-1.2644,-1.2614,-1.2614,-1.2681,-1.2638,-1.2524,-1.2584,-1.2614,-1.2614,-1.2681,-1.2705,0.0,0.0,0.0,0.0,-1.2952,-1.3067,0.0,0.0,0.0,0.0,0.0,0.0,0.0,0.0,-1.5927,0.0,-1.6452,0.0,-1.739,-1.6405,-1.6922,-1.7855,0.0,0.0,0.0,-1.865,-1.818,-1.7902,-1.865,-1.898,-1.9401,-2.0147,-2.0848,-2.1311,-2.1396,-2.1747,0.0,-2.3023,-2.3186,-2.3622,-2.459,-2.477,-2.4821,-2.4821,-2.4868,-2.4868,-2.4868,-2.4979,-2.4908,-2.4734,-2.436,-2.4331,-2.4708,-2.4866,-2.512,-2.5424,-2.5564,-2.5656,-2.5708,-2.5607,-2.5396,0.0,0.0,0.0,-2.4669,-2.4575,-2.5157,-2.6061,-2.6061,-2.6532,-2.7189,-2.7189,-2.7189,-2.7189,0.0,0.0,0.0,0.0,0.0,0.0,0.0,0.0,0.0,0.0,0.0,-1.2046,-1.1986,-1.1974,0.0,0.0,0.0,0.0,0.0,0.0,0.0,0.0,0.0,-1.2705,-1.2705,-1.2705,-1.2705,-1.2705,-1.2705,-1.2705,-1.2705,-1.2705,-1.2705,-1.2705,-1.2705,-1.2705,-1.2705,-1.2705,-1.2705,-1.2705,-1.2705,0.0,0.0,0.0,0.0,0.0,-1.3067,-1.3278,0.0,-1.3809,-1.3984,-1.4111,0.0,0.0,0.0,0.0,-1.5092,-1.5092,-1.5092,-1.5846,-1.6358,-1.5371,-1.5893,-1.6734,-1.7296,0.0,0.0,-1.7296,-1.7008,-1.6922,-1.7948,0.0,0.0,-2.036,-2.0754,0.0,0.0,0.0,-2.2595,-2.2826,-2.316,-2.3605,0.0,-2.4616,-2.4821,-2.4821,-2.4821,-2.4821,-2.4821,-2.4821,-2.4782,-2.4668,-2.4331,-2.421,-2.4459,-2.457,-2.4732,-2.4951,-2.5411,-2.5598,-2.5424,-2.5424,-2.5304,0.0,0.0,0.0,-2.4477,-2.4284,-2.4538,-2.502,-2.502,-2.5343,-2.5809,-2.5809,-2.5809,-2.5809,0.0,0.0,0.0,0.0,0.0,0.0,0.0,0.0,0.0,0.0,0.0,0.0,0.0,0.0,0.0,0.0,0.0,0.0,0.0,0.0,0.0,0.0,-1.2705,-1.2705,-1.2705,-1.2705,-1.2705,-1.2705,-1.2747,-1.2771,-1.2771,-1.2771,-1.2747,-1.2705,-1.2705,-1.2705,-1.2705,-1.2705,-1.2705,-1.2705,-1.2705,0.0,0.0,0.0,0.0,0.0,0.0,0.0,0.0,-1.3954,-1.4117,-1.4298,-1.4298,0.0,0.0,0.0,0.0,0.0,-1.4298,-1.4908,-1.5378,-1.4532,-1.4956,-1.5609,-1.5751,0.0,0.0,0.0,-1.5656,-1.594,0.0,-1.7766,0.0,0.0,0.0,0.0,-2.1773,-2.2407,-2.2698,-2.2542,-2.3074,0.0,-2.3701,-2.4316,-2.471,-2.465,-2.4753,-2.4795,-2.4735,-2.4787,-2.4821,-2.4821,-2.4343,-2.4044,-2.3875,-2.4119,-2.4305,-2.4428,-2.5297,-2.561,-2.5332,-2.5332,-2.5243,-2.5203,0.0,0.0,-2.4656,-2.4349,-2.4202,-2.4202,-2.4152,-2.4152,-2.4202,-2.4152,-2.4152,-2.4202,0.0,0.0,0.0,0.0,0.0,0.0,0.0,0.0,0.0,0.0,0.0,0.0,0.0,0.0,0.0,0.0,0.0,0.0,0.0,0.0,0.0,-1.2693,-1.2705,-1.2705,-1.2705,-1.2705,-1.2705,-1.2705,-1.2946,-1.3061,-1.3061,-1.3061,-1.2934,-1.2705,-1.2705,-1.2705,-1.2705,-1.2705,-1.2705,-1.2705,-1.2705,0.0,0.0,0.0,0.0,0.0,0.0,0.0,0.0,-1.4165,-1.4262,-1.4298,-1.4298,0.0,0.0,0.0,0.0,0.0,-1.4298,-1.4388,-1.4484,-1.434,-1.4436,-1.4765,-1.5609,-1.514,-1.4765,0.0,0.0,0.0,0.0,-1.7628,-1.8587,0.0,0.0,-2.1293,0.0,0.0,-2.143,-2.2013,0.0,-2.2629,-2.3605,-2.4076,-2.4187,-2.3862,-2.4453,-2.4675,-2.4287,-2.4586,-2.4821,-2.4821,-2.4384,-2.4018,-2.3738,-2.362,-2.3824,-2.4419,-2.4597,-2.4727,-2.4876,-2.4876,-2.4735,-2.4385,0.0,-2.4238,-2.4293,-2.4229,-2.4202,-2.4202,-2.3954,-2.4003,-2.4152,-2.3954,-2.4003,-2.4202,0.0,0.0,0.0,0.0,0.0,0.0,0.0,0.0,0.0,0.0,0.0,0.0,0.0,0.0,0.0,0.0,0.0,0.0,0.0,0.0,-1.2367,-1.2487,-1.2626,-1.2705,-1.2705,-1.2705,-1.2777,-1.2928,-1.3061,-1.3149,-1.3332,-1.3188,-1.297,-1.2705,-1.2705,-1.2705,-1.2705,-1.2705,-1.2705,-1.2717,0.0,0.0,0.0,0.0,0.0,0.0,0.0,0.0,0.0,0.0,-1.4298,-1.4298,-1.4298,0.0,0.0,0.0,0.0,0.0,-1.4298,-1.4298,-1.4298,-1.4298,-1.4298,-1.4399,-1.4719,-1.4411,-1.4223,0.0,0.0,0.0,0.0,0.0,-1.7925,-1.994,0.0,-2.1807,-2.1208,-2.1547,-2.1882,0.0,0.0,-2.2578,-2.3314,-2.3717,-2.3853,-2.3727,-2.3999,0.0,-2.3931,-2.411,-2.4213,-2.4196,-2.3828,-2.3545,-2.3365,-2.3072,-2.3193,-2.3631,-2.4005,-2.4149,-2.4043,-2.4421,-2.4345,-2.4003,0.0,-2.4202,-2.4202,-2.4053,-2.4003,-2.3954,-2.3705,-2.3646,-2.3746,-2.3655,-2.3746,-2.3954,0.0,0.0,0.0,0.0,0.0,0.0,0.0,0.0,0.0,0.0,0.0,0.0,0.0,0.0,0.0,0.0,0.0,0.0,0.0,-1.1422,-1.2211,-1.2312,-1.2566,-1.2705,-1.2705,-1.2771,-1.291,-1.3083,-1.3248,-1.3381,-1.3507,-1.3248,-1.297,-1.2705,-1.2705,-1.2705,-1.2705,-1.2777,-1.2801,-1.2825,0.0,0.0,0.0,0.0,0.0,0.0,0.0,0.0,0.0,0.0,0.0,0.0,0.0,0.0,0.0,-1.4298,-1.4298,-1.4298,-1.4298,-1.4298,-1.4298,-1.4298,-1.4298,-1.4226,-1.3966,-1.3954,-1.396,-1.3839,0.0,0.0,0.0,-1.7223,0.0,-1.9805,-2.1422,-2.207,-2.09,-2.1762,-2.2328,-2.1901,-2.2184,-2.262,-2.2946,-2.3314,-2.3546,-2.3461,0.0,0.0,-2.3537,-2.3631,-2.3682,-2.3718,-2.3391,-2.3203,-2.3117,-2.2826,-2.2789,-2.3005,-2.3514,-2.3657,-2.3415,-2.3928,-2.4002,-2.3705,-2.4003,-2.4102,-2.4102,-2.3904,-2.3805,-2.3755,-2.3447,-2.3297,-2.3297,-2.3397,-2.3555,-2.3696,0.0,0.0,0.0,0.0,0.0,0.0,0.0,0.0,0.0,0.0,0.0,0.0,0.0,0.0,0.0,0.0,0.0,0.0,0.0,-1.1117,-1.1856,-1.2259,-1.2566,-1.2705,-1.2705,-1.2958,-1.3059,-1.3083,-1.361,-1.3731,-1.3507,-1.3248,-1.297,-1.2705,-1.2705,-1.2705,-1.2723,-1.2982,-1.3053,-1.3071,-1.3381,0.0,0.0,0.0,0.0,0.0,0.0,0.0,0.0,0.0,0.0,0.0,0.0,0.0,-1.4298,-1.4298,-1.4298,-1.4298,-1.4298,-1.4298,-1.4298,-1.4298,-1.4298,-1.4226,-1.3966,-1.4093,-1.4129,-1.364,0.0,0.0,0.0,-1.7916,-1.9926,-2.1094,-2.1713,-2.1636,-2.0497,0.0,-2.1893,-2.1499,-2.1799,-2.2184,-2.2603,-2.2929,-2.3006,0.0,0.0,0.0,-2.3177,-2.3477,-2.3718,-2.3718,-2.3692,-2.346,-2.3117,-2.3091,-2.3048,-2.2996,-2.3031,-2.3182,-2.3397,-2.3432,-2.3482,-2.3447,-2.3696,-2.3854,-2.3854,-2.3805,-2.3805,-2.3755,-2.3247,-2.3046,-2.3046,-2.3297,-2.3397,-2.3456,0.0,0.0,0.0,0.0,0.0,0.0,0.0,0.0,0.0,0.0,0.0,0.0,0.0,0.0,0.0,0.0,0.0,0.0,0.0,-1.1211,-1.1993,-1.2331,-1.2565,-1.2705,-1.2705,-1.2976,-1.3239,-1.361,-1.3809,-1.3773,-1.3507,-1.3248,-1.297,-1.2711,-1.2886,-1.2964,-1.2982,-1.3254,-1.3369,-1.3393,-1.3652,-1.3761,0.0,0.0,0.0,0.0,0.0,0.0,0.0,0.0,-1.4298,-1.4298,-1.4298,-1.4298,-1.4298,-1.4298,-1.4298,-1.4298,-1.4298,-1.4177,-1.4093,-1.4256,-1.4171,0.0,0.0,-1.387,-1.3954,-1.3592,-1.4121,0.0,0.0,0.0,-2.0389,-2.128,-2.1533,-2.1319,-2.042,-2.1062,-2.1576,-2.143,-2.1542,-2.1876,-2.2534,-2.2731,0.0,0.0,0.0,0.0,-2.2817,-2.2946,-2.3023,-2.3023,-2.3023,-2.2954,-2.2817,-2.2808,-2.2791,-2.2745,-2.2745,-2.2795,-2.2896,-2.3097,-2.3147,-2.3147,-2.3447,-2.3546,-2.3546,-2.3546,-2.3447,-2.3247,-2.2896,-2.2846,-2.2996,-2.2946,-2.2996,-2.3147,0.0,0.0,0.0,0.0,0.0,0.0,0.0,0.0,0.0,0.0,0.0,0.0,0.0,0.0,0.0,0.0,0.0,0.0,-1.0268,-1.1348,-1.2022,-1.2276,-1.2492,-1.2661,-1.2751,-1.2893,-1.3255,-1.3779,-1.3779,-1.3646,-1.3387,-1.3121,-1.2934,-1.2843,-1.3037,-1.3169,-1.3221,-1.3525,-1.364,-1.3664,-1.3924,-1.4032,0.0,0.0,0.0,0.0,0.0,0.0,0.0,0.0,-1.4298,-1.4298,-1.4298,-1.4298,-1.4298,-1.4298,-1.4298,-1.4298,-1.4298,-1.4165,-1.4075,-1.425,0.0,0.0,-1.3574,-1.3719,-1.3809,-1.3465,-1.3803,-1.4987,-1.7741,0.0,0.0,0.0,-2.1137,-2.1148,-2.0394,-2.1045,-2.1508,-2.1268,-2.1345,-2.161,-2.2182,0.0,0.0,0.0,0.0,0.0,0.0,-2.2534,-2.2594,-2.2594,-2.2594,-2.2542,-2.2422,-2.2422,-2.2422,-2.2422,-2.2542,-2.2594,-2.2603,-2.2795,-2.2846,-2.2896,-2.3147,-2.3247,-2.3247,-2.3247,-2.3097,-2.2846,-2.2695,-2.2695,-2.2846,-2.2644,-2.2695,-2.2846,0.0,0.0,0.0,0.0,0.0,0.0,0.0,0.0,0.0,0.0,0.0,0.0,0.0,0.0,0.0,0.0,0.0,0.0,-1.077,-1.1394,-1.178,-1.1987,-1.2228,-1.2535,-1.2806,-1.2774,-1.3031,-1.3513,-1.3513,-1.3381,-1.3071,-1.2837,-1.2856,-1.3083,-1.3083,-1.3227,-1.3538,-1.3797,-1.3912,-1.393,-1.4189,-1.4298,-1.4298,0.0,0.0,0.0,0.0,0.0,0.0,0.0,-1.4298,-1.4298,-1.4298,-1.4298,-1.4298,-1.4298,-1.4298,-1.4298,-1.4298,-1.4292,-1.4292,-1.4292,0.0,0.0,-1.3568,-1.3719,-1.3761,-1.3197,-1.3978,-1.5336,-1.7512,-1.8008,0.0,-1.9257,-2.05,-2.1156,-2.0403,-2.1276,-2.1713,-2.0968,-2.1191,-2.1405,-2.1413,0.0,0.0,0.0,0.0,0.0,0.0,-2.2397,-2.2594,-2.2594,-2.2594,-2.2422,-2.2004,-2.1996,-2.1996,-2.1996,-2.2414,-2.2594,-2.2594,-2.2603,-2.2603,-2.2594,-2.2896,-2.2996,-2.2996,-2.2996,-2.2846,-2.2594,-2.2594,-2.2594,-2.2594,-2.2594,-2.2594,-2.2594,0.0,0.0,0.0,0.0,0.0,0.0,0.0,0.0,0.0,0.0,0.0,0.0,0.0,0.0,0.0,0.0,0.0,0.0,-1.0096,-1.1106,-1.1716,-1.1801,-1.1997,-1.2158,-1.2238,-1.2411,-1.2847,-1.3513,-1.3383,-1.3201,-1.3071,-1.2665,-1.2726,-1.3133,-1.3314,-1.3544,-1.3809,-1.4069,-1.4177,-1.4183,-1.4262,-1.4298,-1.4298,0.0,0.0,0.0,0.0,0.0,0.0,0.0,0.0,0.0,-1.4298,-1.4298,-1.4298,-1.4298,-1.4298,-1.4298,-1.4298,-1.4165,-1.402,-1.402,0.0,0.0,0.0,-1.3725,0.0,0.0,-1.4904,-1.5825,-1.7001,-1.7519,0.0,-1.9897,-2.045,-2.0662,-2.0712,-2.1216,-2.1405,-2.0934,-2.0968,-2.1131,0.0,0.0,0.0,0.0,0.0,0.0,0.0,-2.2397,-2.2594,-2.2594,-2.2594,-2.2422,-2.2004,-2.1996,-2.1859,-2.1593,-2.1978,-2.2345,-2.2603,-2.2826,-2.28,-2.2594,-2.2695,-2.2695,-2.2695,-2.2695,-2.2795,-2.2846,-2.2695,-2.2594,-2.2594,-2.2594,-2.2594,-2.2594,0.0,0.0,0.0,0.0,0.0,0.0,0.0,0.0,0.0,0.0,-0.5474,-0.5481,0.0,0.0,0.0,0.0,0.0,0.0,0.0,-1.101,-1.1699,-1.1699,-1.1828,-1.1871,-1.1871,-1.2157,-1.2482,-1.2889,-1.2905,-1.2824,-1.2659,-1.26,-1.2756,-1.3156,-1.351,-1.3815,-1.4075,-1.4226,-1.4298,-1.4298,-1.4298,-1.4298,-1.4298,0.0,0.0,0.0,0.0,0.0,0.0,0.0,0.0,0.0,-1.4298,-1.4298,-1.4298,-1.4298,-1.4298,-1.4298,-1.4298,-1.4183,-1.4063,-1.4063,-1.3785,-1.3501,-1.3447,0.0,0.0,0.0,-1.4908,-1.548,-1.5797,-1.6618,0.0,-1.9223,-1.9946,-2.0434,-2.0836,-2.1182,-2.1225,-2.0711,-2.0643,-2.0788,0.0,0.0,0.0,0.0,0.0,0.0,0.0,-2.2397,-2.2594,-2.2594,-2.2594,-2.2345,-2.1764,-2.1764,-2.1576,-2.1199,-2.1585,-2.1961,-2.2388,-2.2715,-2.2817,-2.2594,-2.2594,-2.2594,-2.2594,-2.2594,-2.2695,-2.2846,-2.2644,-2.2594,-2.2594,-2.2594,-2.2594,-2.2594,0.0,0.0,0.0,0.0,0.0,0.0,0.0,0.0,0.0,0.0,-0.5491,-0.5524,0.0,0.0,0.0,0.0,0.0,0.0,0.0,-1.1041,-1.1656,-1.1656,-1.1656,-1.1656,-1.1656,-1.1915,-1.2003,-1.1957,-1.2245,-1.2239,-1.2006,-1.2519,-1.2909,-1.3207,-1.3652,-1.4051,-1.4298,-1.4298,-1.4298,-1.4298,-1.4298,-1.4298,-1.4298,-1.4298,0.0,0.0,0.0,0.0,0.0,0.0,0.0,0.0,-1.4298,-1.4298,-1.4298,-1.425,-1.4298,-1.4298,-1.425,-1.4298,-1.4292,-1.4268,-1.387,-1.355,-1.3809,-1.3682,-1.3604,-1.3918,0.0,-1.46,-1.4346,-1.5466,-1.6806,-1.7785,-1.9197,-2.0359,-2.0929,-2.1225,-2.1148,-2.0429,-2.0377,0.0,0.0,0.0,0.0,0.0,0.0,0.0,0.0,-2.2397,-2.2594,-2.2594,-2.2594,-2.2225,-2.1422,-2.1413,-2.1208,-2.0831,-2.1191,-2.1567,-2.1961,-2.2414,-2.2594,-2.2594,-2.2594,-2.2594,-2.2594,-2.2594,-2.2594,-2.2594,-2.2594,-2.2594,-2.2594,-2.2594,-2.2594,-2.2594,0.0,0.0,0.0,0.0,0.0,0.0,0.0,0.0,0.0,0.0,0.0,0.0,0.0,0.0,0.0,0.0,0.0,0.0,0.0,-1.1219,-1.1397,-1.1397,-1.1397,-1.1397,-1.1397,-1.1446,-1.1446,-1.144,-1.1937,-1.2113,-1.2006,-1.2119,-1.2546,-1.3207,-1.3461,-1.3862,-1.4298,-1.4298,-1.4298,-1.4298,-1.4298,-1.4298,-1.4298,-1.4298,-1.4298,0.0,0.0,0.0,0.0,0.0,0.0,0.0,-1.4298,-1.4298,-1.425,-1.407,-1.416,-1.425,-1.4022,-1.416,-1.425,-1.4045,-1.3598,-1.3278,-1.3538,-1.3556,-1.3713,-1.4401,-1.4461,-1.437,-1.4304,-1.4936,-1.6072,-1.7971,-1.8738,-1.9656,-2.1529,-2.1559,-2.1242,-2.0805,-2.0994,0.0,0.0,0.0,0.0,0.0,0.0,0.0,-2.1996,-2.2397,-2.2594,-2.2594,-2.2594,-2.2225,-2.1422,-2.1413,-2.1071,0.0,-2.0805,-2.1182,-2.1559,-2.2285,-2.2594,-2.2594,-2.2594,-2.2594,-2.2594,-2.2594,-2.2594,-2.2594,-2.2594,-2.2594,-2.2594,-2.2594,-2.2594,-2.2594,0.0,0.0,0.0,0.0,0.0,0.0,0.0,0.0,0.0,0.0,0.0,0.0,0.0,0.0,0.0,0.0,0.0,0.0,0.0,0.0,-1.1305,-1.1305,-1.1305,-1.1305,-1.1305,-1.1305,-1.1305,-1.1305,-1.1565,-1.169,-1.1661,-1.2015,-1.2473,-1.3031,-1.3502,-1.3933,-1.4298,-1.4298,-1.4298,-1.431,-1.4443,-1.4497,-1.4509,-1.4636,-1.4606,-1.4497,-1.4497,0.0,0.0,0.0,0.0,0.0,0.0,0.0,-1.425,-1.3979,-1.4022,-1.407,-1.3931,0.0,0.0,-1.3925,0.0,-1.3501,-1.3513,-1.361,-1.3821,-1.4244,-1.431,-1.4298,-1.4298,-1.4642,-1.5457,-1.7155,-1.7662,-1.831,-1.9851,-2.0394,-2.0325,-1.9278,0.0,0.0,0.0,0.0,0.0,0.0,0.0,-2.2311,-2.2311,-2.2491,-2.2594,-2.2594,-2.2594,-2.2319,-2.1696,-2.1508,-2.1131,-2.0574,-2.0591,-2.0883,-2.143,-2.2251,-2.2594,-2.2594,-2.2594,-2.2594,-2.2594,-2.2594,-2.2594,-2.2594,-2.2594,-2.2594,-2.2594,-2.2594,-2.2594,-2.2594,0.0,0.0,0.0,0.0,0.0,0.0,0.0,0.0,0.0,0.0,0.0,0.0,0.0,0.0,0.0,0.0,0.0,0.0,0.0,0.0,0.0,-1.1305,-1.1305,-1.1305,-1.1305,-1.1305,-1.1305,-1.1305,-1.1305,-1.1327,-1.1375,-1.2029,-1.2506,-1.2848,-1.3507,-1.4022,-1.4298,-1.4298,-1.4322,-1.434,-1.4526,-1.4616,-1.4596,-1.4853,-1.4793,-1.4572,-1.4614,-1.4453,-1.422,-1.422,0.0,0.0,0.0,0.0,-1.4112,-1.3829,-1.3786,0.0,0.0,-1.3835,-1.3914,-1.3878,-1.3906,0.0,-1.3634,-1.3749,-1.3918,-1.3966,-1.4147,-1.4298,-1.4298,-1.4527,-1.5054,-1.6211,-1.6552,-1.6985,-1.7855,-1.8921,-1.9076,-1.7618,0.0,0.0,0.0,0.0,0.0,0.0,0.0,-2.2392,-2.2594,-2.2594,-2.2594,-2.2594,-2.2594,-2.2422,-2.2004,-2.1602,-2.1234,-2.0921,-2.0549,-2.0746,-2.143,-2.2182,-2.2534,-2.2594,-2.2594,-2.2594,-2.2594,-2.2594,-2.2594,-2.2594,-2.2594,-2.2594,-2.2594,-2.2594,-2.2594,-2.2594,0.0,0.0,0.0,0.0,0.0,0.0,0.0,0.0,0.0,0.0,-0.568,-0.5688,0.0,0.0,0.0,0.0,0.0,0.0,0.0,0.0,0.0,-1.1305,-1.1305,-1.1305,-1.1305,-1.1305,-1.1305,-1.1305,-1.1305,-1.1413,-1.1661,-1.197,-1.2369,-1.2803,-1.3311,-1.3823,-1.4298,-1.4298,-1.4291,-1.4309,-1.4351,-1.4214,-1.4038,-1.4235,-1.4172,-1.4038,-1.4201,-1.4115,-1.3958,-1.3958,-1.3814,0.0,0.0,0.0,-1.3534,-1.3292,-1.3394,0.0,0.0,0.0,-1.3914,0.0,-1.3906,-1.3894,0.0,0.0,-1.3972,0.0,-1.4274,-1.4298,-1.4298,-1.4527,-1.5054,-1.6211,-1.6342,-1.6772,-1.8152,-1.8429,-1.8429,-1.8194,0.0,0.0,0.0,0.0,0.0,0.0,-2.1148,-2.1556,-2.2544,-2.2594,-2.2594,-2.2594,-2.2594,-2.2422,-2.2004,-2.1602,-2.1234,-2.0883,-2.0823,-2.1011,-2.1422,-2.1867,-2.2244,-2.2594,-2.2594,-2.2594,-2.2594,-2.2594,-2.2594,-2.2594,-2.2594,-2.2594,-2.2594,-2.2594,-2.2594,-2.2594,0.0,0.0,0.0,0.0,0.0,0.0,0.0,0.0,0.0,0.0,0.0,-0.5688,0.0,0.0,0.0,0.0,0.0,0.0,0.0,0.0,0.0,-1.1305,-1.0781,-1.0516,-1.0516,-1.0516,-1.0516,-1.0516,-1.1046,-1.1429,-1.1704,-1.1981,-1.2354,-1.2828,-1.3284,-1.3732,-1.4076,-1.4224,-1.4305,-1.4325,-1.4315,-1.4222,-1.4127,-1.4236,-1.4122,-1.3945,-1.4185,-1.403,-1.3679,-1.3865,-1.3696,-1.3491,-1.3491,0.0,0.0,0.0,-1.3195,0.0,-1.3298,-1.3491,-1.3757,0.0,-1.3987,-1.3909,-1.3895,-1.402,-1.4117,-1.4087,-1.4195,-1.4298,-1.4298,-1.4395,-1.4625,-1.5145,-1.5194,-1.5377,-1.602,-1.6766,-1.696,-1.6157,0.0,0.0,0.0,0.0,0.0,0.0,-2.0526,-2.114,-2.1607,-2.2232,-2.2594,-2.2594,-2.2594,-2.2517,-2.2354,-2.1713,-2.1122,-2.0549,-2.0771,-2.1071,-2.1422,-2.1816,-2.2201,-2.2594,-2.2594,-2.2594,-2.2594,-2.2594,-2.2594,-2.2594,-2.2594,-2.2594,-2.2594,-2.2594,-2.2594,-2.2594,0.0,0.0,0.0,0.0,0.0,0.0,0.0,0.0,0.0,0.0,0.0,0.0,0.0,0.0,0.0,0.0,0.0,0.0,0.0,0.0,0.0,0.0,-1.0516,-1.012,-0.9903,-1.012,-1.025,-1.025,-1.1017,-1.1558,-1.179,-1.2078,-1.2414,-1.2797,-1.3219,-1.3593,-1.3895,-1.4039,-1.419,-1.4269,-1.4133,-1.4123,-1.4083,-1.4083,-1.3926,-1.374,-1.3988,-1.3802,-1.3415,-1.365,-1.3549,-1.3298,-1.3298,-1.3298,0.0,0.0,0.0,0.0,0.0,0.0,-1.3491,-1.3968,-1.3973,-1.3782,0.0,0.0,-1.4148,0.0,-1.4118,-1.4298,-1.4298,-1.4298,-1.4298,-1.4298,-1.4298,-1.4298,-1.4298,-1.5251,-1.5596,-1.4522,0.0,0.0,0.0,0.0,0.0,0.0,-1.9546,-2.0158,-2.0467,-2.1556,-2.2182,-2.2182,-2.2443,-2.2594,-2.2594,-2.179,-2.1037,-2.0292,-2.0591,-2.0968,-2.1422,-2.1713,-2.2107,-2.2594,-2.2594,-2.2594,-2.2594,-2.2594,-2.2594,-2.2594,-2.2594,-2.2594,-2.2594,-2.2594,-2.2594,-2.2594,0.0,0.0,0.0,0.0,0.0,0.0,0.0,0.0,0.0,0.0,0.0,0.0,-0.5688,-0.6567,-0.7536,-0.8412,-0.9419,-1.0342,-1.1219,-1.1305,-1.0911,-0.999,0.0,0.0,-0.9903,-1.0781,-1.1219,-1.1219,-1.1531,-1.1801,-1.2083,-1.228,-1.2522,-1.2791,-1.2996,-1.3394,-1.3883,-1.3653,-1.3781,-1.4185,-1.3713,-1.3517,-1.3526,-1.3526,-1.3375,-1.3186,-1.344,-1.3359,-1.3137,-1.3153,-1.3002,-1.2861,-1.2861,-1.2861,-1.2813,0.0,0.0,0.0,0.0,-1.3098,0.0,-1.3491,-1.3539,-1.3534,0.0,0.0,-1.3931,-1.3913,-1.4106,-1.4298,-1.4298,-1.4298,-1.4298,-1.4298,-1.4298,-1.4298,-1.4298,-1.4588,-1.4758,-1.4696,0.0,0.0,0.0,0.0,0.0,0.0,-1.7565,-1.8199,-1.9228,-2.0364,-2.0987,-2.0987,-2.2021,-2.2594,-2.2594,-2.179,-2.1037,-2.0292,-2.0309,-2.0703,-2.1413,-2.143,-2.1841,-2.2594,-2.2594,-2.2594,-2.2594,-2.2594,-2.2594,-2.2594,-2.2594,-2.2594,-2.2594,-2.2594,-2.2594,-2.2594,0.0,0.0,0.0,0.0,0.0,0.0,0.0,0.0,0.0,0.0,0.0,0.0,0.0,-0.7098,-0.7885,-0.7621,-0.9026,-0.9767,-0.9506,-1.0077,-0.999,-0.9026,-0.9331,-0.9331,-0.9026,-0.9903,-1.0386,-1.0386,-1.1271,-1.1817,-1.21,-1.2301,-1.2538,-1.2813,-1.3001,-1.3195,-1.3417,-1.364,-1.3825,-1.3976,-1.3638,-1.3502,-1.3443,-1.3186,-1.3013,-1.2915,-1.3152,-1.3087,-1.291,-1.3055,-1.2953,-1.2813,-1.2813,-1.2813,-1.2813,-1.2813,-1.2813,-1.2861,0.0,0.0,0.0,-1.3394,-1.3394,-1.3292,-1.3443,-1.3588,-1.3636,-1.3636,-1.3732,-1.3775,-1.3775,-1.4064,-1.4298,-1.4298,-1.4298,-1.4298,-1.4298,-1.4383,-1.4449,-1.4449,0.0,0.0,0.0,0.0,0.0,0.0,0.0,-1.7576,-1.814,-1.9228,-2.0158,-2.0885,-2.1302,-2.1761,-2.2192,-2.167,-2.1165,-2.066,-2.0412,-2.0566,-2.1079,-2.1302,-2.1696,-2.221,-2.2491,-2.2594,-2.2594,-2.2594,-2.2594,-2.2594,-2.2594,-2.2594,-2.2594,-2.2594,-2.2594,-2.2594,0.0,0.0,0.0,0.0,0.0,0.0,0.0,0.0,0.0,-0.5688,0.0,0.0,0.0,0.0,-0.8017,-0.8017,-0.92,-0.9772,-0.9462,-1.0033,-0.9946,-0.9026,-0.9288,-0.9288,-0.8982,-0.9903,-1.042,-1.0489,-1.1381,-1.1941,-1.2224,-1.242,-1.2614,-1.2813,-1.2953,-1.305,-1.3126,-1.3485,-1.3762,-1.3885,-1.3491,-1.3405,-1.3427,-1.2997,-1.2813,-1.2835,-1.2937,-1.2888,-1.2835,-1.2937,-1.2888,-1.2813,-1.2813,-1.2813,-1.2813,-1.2813,-1.2813,-1.2813,-1.2958,-1.291,-1.2861,0.0,-1.3152,-1.305,-1.3201,-1.3298,-1.3394,-1.3394,-1.3443,-1.3491,-1.3491,-1.3775,-1.4058,-1.416,-1.416,-1.4208,-1.4298,-1.4298,-1.4298,-1.4298,0.0,0.0,0.0,0.0,0.0,0.0,0.0,0.0,-1.6905,-1.8039,-1.9332,-2.0834,-2.0885,-2.1233,-2.1996,-2.1602,-2.1234,-2.0921,-2.048,-2.0497,-2.0891,-2.1251,-2.1627,-2.2013,-2.2439,-2.2594,-2.2594,-2.2594,-2.2594,-2.2594,-2.2594,-2.2594,-2.2594,-2.2594,-2.2594,-2.2594,0.0,0.0,0.0,0.0,0.0,0.0,0.0,0.0,-0.5688,-0.5688,0.0,0.0,0.0,0.0,0.0,-0.9637,-0.9859,-1.0255,-1.1176,-1.1219,-1.0824,-0.9903,-1.0781,-1.0829,-0.9912,-1.0835,-1.1434,-1.1709,-1.1986,-1.2229,-1.242,-1.2651,-1.2813,-1.2813,-1.2813,-1.291,-1.3077,-1.3116,-1.3411,-1.3828,-1.3317,-1.3265,-1.3427,-1.2997,-1.2813,-1.2813,-1.2813,-1.2813,-1.2813,-1.2813,-1.2813,-1.2813,-1.2813,-1.2813,-1.2813,-1.2813,-1.2813,-1.2813,0.0,0.0,0.0,0.0,0.0,0.0,-1.2813,0.0,-1.3098,-1.3098,-1.3298,-1.3491,-1.3491,-1.3491,-1.3588,-1.3835,-1.3883,-1.3979,-1.425,-1.4298,-1.4298,0.0,0.0,0.0,0.0,0.0,0.0,0.0,-1.5191,-1.5481,-1.5499,-1.6846,-1.8565,-2.0731,-2.0834,-2.119,-2.1963,-2.1579,-2.1203,-2.0891,-2.0497,-2.0506,-2.0874,-2.1242,-2.1619,-2.2004,-2.2431,-2.2594,-2.2594,-2.2594,-2.2594,-2.2594,-2.2594,-2.2594,-2.2594,-2.2594,-2.2594,-2.2594,0.0,0.0,0.0,0.0,0.0,0.0,-0.5688,-0.5688,-0.5688,0.0,0.0,0.0,-0.5777,-0.6526,-0.7316,-0.7841,-0.9113,-0.9728,-0.9288,-0.9903,-0.9859,-0.8938,-0.9767,-1.028,-1.0208,-1.111,-1.1715,-1.1997,-1.2194,-1.235,-1.242,-1.2651,-1.2813,-1.2813,-1.2813,-1.2905,-1.3122,-1.3321,-1.3559,-1.3811,-1.3521,-1.3416,-1.3427,-1.2997,-1.2813,-1.2813,-1.2813,-1.2813,-1.2813,-1.2813,-1.2813,-1.2813,-1.2813,-1.2813,-1.2813,-1.2813,-1.2813,-1.2813,-1.2813,0.0,0.0,0.0,0.0,0.0,0.0,0.0,-1.2856,-1.2856,-1.2958,-1.3007,-1.3007,-1.3007,-1.3055,-1.3298,-1.3491,-1.3781,-1.425,-1.4112,-1.407,0.0,0.0,0.0,0.0,0.0,0.0,0.0,-1.4853,-1.5101,-1.5481,-1.6846,-1.7891,-1.8513,-1.928,-2.0164,-2.1206,-2.0808,-2.0842,-2.1259,-2.0891,-2.0626,-2.048,-2.1114,-2.1465,-2.161,-2.2311,-2.2594,-2.2594,-2.2594,-2.2594,-2.2594,-2.2594,-2.2594,-2.2594,-2.2594,-2.2594,-2.2594,0.0,0.0,0.0,0.0,0.0,-0.5688,-0.5688,-0.5688,-0.5688,0.0,0.0,0.0,-0.6469,-0.7375,-0.8129,-0.8534,-0.9571,-1.0152,-1.0018,-1.0513,-1.0558,-1.0023,-1.0513,-1.089,-1.1061,-1.1568,-1.1962,-1.2245,-1.1911,-1.2025,-1.256,-1.2254,-1.2365,-1.2813,-1.2813,-1.2947,-1.327,-1.3416,-1.361,-1.3798,-1.3572,-1.348,-1.3427,-1.2997,-1.2813,-1.2813,-1.2813,-1.2813,-1.2813,-1.2813,-1.2813,-1.2813,-1.2813,-1.2813,-1.2813,-1.2813,-1.2813,-1.2813,-1.2813,-1.2813,-1.2813,-1.2813,0.0,0.0,-1.2813,-1.2813,-1.2813,0.0,-1.2813,-1.2813,-1.2813,-1.2813,-1.2861,-1.305,-1.3152,-1.3389,-1.3871,-1.3925,-1.3979,0.0,0.0,0.0,0.0,-1.4298,-1.4364,-1.4527,-1.4648,-1.4944,-1.5469,-1.6267,-1.6983,-1.7575,-1.8199,-1.9079,-2.0158,-2.0241,-2.0243,-2.0127,-2.0225,-2.0049,-1.97,-2.0282,-2.0878,-2.1448,-2.2055,-2.2457,-2.2594,-2.2594,-2.2594,-2.2594,-2.2594,-2.2594,-2.2594,-2.2594,-2.2594,-2.2594,0.0,0.0,-0.5688,-0.5688,-0.5688,-0.5688,-0.5688,-0.5699,-0.5707,0.0,-0.5852,-0.6304,-0.7233,-0.8467,-0.9482,-1.0177,-1.0366,-1.0786,-1.1676,-1.1722,-1.1722,-1.1722,-1.1722,-1.1778,-1.1759,-1.1759,-1.1874,-1.2067,-1.1144,-1.1336,-1.2613,-1.1668,-1.1765,-1.2813,-1.2813,-1.3078,-1.348,-1.348,-1.361,-1.3798,-1.3572,-1.3459,-1.3389,-1.2986,-1.2813,-1.2813,-1.2813,-1.2813,-1.2813,-1.2813,-1.2813,-1.2813,-1.2813,-1.2813,-1.2813,-1.2813,-1.2813,-1.2813,-1.2813,-1.2813,-1.2813,-1.2813,-1.2813,0.0,-1.2813,-1.2813,-1.2813,0.0,-1.2813,-1.2813,-1.2813,-1.2813,-1.2861,-1.305,-1.291,-1.2958,-1.3443,-1.369,-1.3835,0.0,0.0,0.0,-1.425,-1.425,-1.425,-1.4298,-1.4588,-1.4962,-1.5433,-1.5511,-1.6116,-1.7364,-1.7424,-1.7937,-1.902,-1.9664,-1.943,-1.8311,-1.8951,-1.913,-1.8804,-1.9216,-2.0146,-2.143,-2.1824,-2.221,-2.2594,-2.2594,-2.2594,-2.2594,-2.2594,-2.2594,-2.2594,-2.2594,-2.2594,-2.2594,0.0,-0.5688,-0.5688,-0.5688,-0.5688,-0.5688,-0.5688,-0.5812,-0.5871,-0.5871,-0.6691,-0.7094,-0.642,-0.8027,-0.8839,-0.8182,-0.8788,-0.93,-0.9532,-0.9532,-0.9532,-0.9532,-0.9532,-0.9601,-0.975,-0.975,-0.9896,-1.0143,-0.9947,-1.0405,-1.1517,-1.1321,-1.1765,-1.2813,-1.2813,-1.3078,-1.348,-1.348,-1.361,-1.3798,-1.3572,-1.3357,-1.3147,-1.2916,-1.2813,-1.2813,-1.2813,-1.2813,-1.2813,-1.2813,-1.2813,-1.2813,-1.2813,-1.2813,-1.2813,-1.2813,-1.2813,-1.2813,-1.2813,-1.2813,-1.2813,-1.2813,-1.2813,0.0,-1.2813,-1.2813,-1.2813,0.0,-1.2813,-1.2813,-1.2813,-1.2813,-1.2813,-1.2861,-1.2813,-1.2958,-1.3443,-1.3346,-1.3346,-1.3539,0.0,0.0,-1.3979,-1.3979,-1.407,-1.4298,-1.4757,-1.5077,-1.5179,-1.5584,-1.5943,-1.6205,-1.6205,-1.6783,-1.7891,-1.8039,-1.8191,-1.8319,-1.8449,-1.8588,-1.8804,-1.9216,-2.0146,-2.143,-2.1824,-2.221,-2.2594,-2.2594,-2.2594,-2.2594,-2.2594,-2.2594,-2.2594,-2.2594,-2.2594,-2.2594,-0.5688,-0.5688,-0.5688,-0.5688,-0.5734,-0.5817,-0.5817,-0.5918,-0.5994,-0.5994,-0.7036,-0.7549,-0.7025,-0.885,-0.9719,-0.862,-0.9958,-1.0391,-0.9336,-0.9762,-0.9814,-0.9288,-0.9244,-0.9284,-0.9417,-0.9417,-0.9462,-0.9608,-0.9608,-1.0145,-1.117,-1.0636,-1.1277,-1.2759,-1.2262,-1.2571,-1.348,-1.348,-1.3545,-1.3642,-1.3523,-1.333,-1.3077,-1.2899,-1.2883,-1.2931,-1.2931,-1.2931,-1.2931,-1.2931,-1.2856,0.0,-1.2813,-1.2813,-1.2813,0.0,-1.2813,-1.2813,-1.2813,-1.2813,-1.2813,-1.2813,-1.2813,0.0,0.0,-1.2813,-1.2813,-1.2813,-1.2813,-1.2813,-1.2813,-1.2813,-1.2813,-1.2813,-1.2813,-1.2861,-1.3104,-1.3098,-1.3147,-1.3292,0.0,0.0,-1.369,-1.369,-1.3829,-1.407,-1.4362,-1.468,-1.5095,-1.5354,-1.562,-1.5879,-1.5891,-1.6152,-1.6736,-1.7318,-1.7355,-1.6901,-1.7348,-1.7526,-1.7498,-1.8065,-1.9194,-2.0676,-2.1417,-2.2021,-2.2594,-2.2594,-2.2594,-2.2594,-2.2594,-2.2594,-2.2594,-2.2594,-2.2594,-2.2594,-0.5694,-0.5704,-0.5721,-0.5721,-0.586,-0.5937,-0.5937,-0.6043,-0.613,-0.6151,-0.7144,-0.7741,-0.7547,-0.936,-1.0141,-0.9061,-1.0587,-1.093,-0.941,-0.9895,-0.9989,-0.9308,-0.911,-0.8966,-0.8966,-0.8966,-0.8966,-0.8966,-0.9213,-0.9752,-1.0583,-0.9899,-1.0641,-1.2462,-1.157,-1.2039,-1.3405,-1.3405,-1.3405,-1.3405,-1.3405,-1.326,-1.3023,-1.2883,-1.2942,-1.3109,-1.3157,-1.3179,-1.3179,-1.3179,-1.3023,-1.2878,-1.2878,-1.2845,0.0,0.0,0.0,0.0,0.0,0.0,0.0,0.0,0.0,-1.2813,0.0,0.0,0.0,0.0,0.0,0.0,0.0,0.0,0.0,0.0,0.0,0.0,0.0,-1.2986,0.0,-1.305,0.0,0.0,-1.3443,-1.3491,-1.3593,-1.3786,-1.3881,-1.419,-1.4909,-1.5023,-1.5327,-1.5801,-1.5861,-1.5891,-1.5891,-1.6789,-1.6701,-1.5499,-1.6176,-1.6391,-1.6204,-1.6741,-1.7973,-1.9634,-2.0667,-2.1539,-2.2283,-2.2493,-2.2493,-2.2283,-2.2493,-2.2594,-2.2594,-2.2594,-2.2594,-2.2594,-0.571,-0.5814,-0.5882,-0.5882,-0.5986,-0.6064,-0.6064,-0.6168,-0.6285,-0.6333,-0.7294,-0.7601,-0.6664,-0.7614,-0.7922,-0.6883,-0.698,-0.7425,-0.812,-0.7425,-0.7329,-0.817,-0.7279,-0.6783,-0.6783,-0.6783,-0.6783,-0.6783,-0.7723,-0.8219,-0.8368,-0.9209,-1.0243,-1.137,-1.1268,-1.19,-1.3147,-1.3147,-1.3147,-1.3147,-1.3147,-1.3007,0.0,-1.3001,-1.3082,-1.313,-1.3357,-1.3437,-1.3437,0.0,-1.327,-1.3066,0.0,-1.2926,-1.2813,-1.2813,0.0,0.0,0.0,0.0,0.0,0.0,-1.2813,0.0,0.0,0.0,-1.2813,-1.2813,0.0,0.0,0.0,0.0,0.0,0.0,0.0,0.0,-1.3034,-1.2937,-1.2813,-1.2813,-1.2861,0.0,0.0,-1.3346,-1.3491,-1.3539,-1.3794,-1.4042,-1.4354,-1.484,-1.5215,-1.5541,-1.5771,-1.5891,-1.5891,-1.6045,-1.5917,-1.5493,-1.5381,-1.5607,-1.6204,-1.6034,-1.6889,-1.8557,-1.9634,-2.0481,-2.1191,-2.2182,-2.1979,-2.1191,-2.2232,-2.2594,-2.2594,-2.2594,-2.2594,-2.2594,-0.5855,-0.5928,-0.6007,-0.6007,-0.6111,-0.624,-0.624,-0.629,-0.6382,-0.6381,-0.6783,-0.7129,-0.7329,-0.7726,-0.7822,-0.7378,-0.7872,-0.7925,-0.7129,-0.7229,-0.7229,-0.708,-0.6634,-0.6387,-0.6387,-0.6387,-0.6387,-0.6387,-0.7478,-0.8021,-0.8021,-0.8467,-0.9258,-1.0243,-0.96,-1.0397,-1.2149,-1.2149,-1.2549,0.0,0.0,-1.305,0.0,-1.3066,-1.3276,-1.355,-1.3803,-1.3803,-1.368,0.0,-1.3518,0.0,0.0,0.0,0.0,-1.2851,0.0,0.0,0.0,0.0,0.0,0.0,0.0,0.0,-1.2813,0.0,-1.2813,0.0,0.0,0.0,0.0,0.0,0.0,0.0,-1.2872,0.0,0.0,0.0,-1.2813,0.0,0.0,0.0,0.0,0.0,0.0,0.0,-1.3387,-1.3609,-1.4054,-1.4603,-1.4969,-1.5279,-1.57,-1.5891,-1.5891,-1.5891,-1.5831,-1.5722,-1.5306,-1.5248,-1.5563,-1.573,-1.6409,-1.7477,-1.8508,-1.9729,-2.0936,-2.1404,-2.1353,-2.0936,-2.1454,-2.1191,-2.0783,-2.2131,-2.2182,-2.1717,-0.6021,-0.6075,-0.6135,-0.6135,-0.6236,-0.6314,-0.6314,-0.6382,-0.6387,-0.6387,-0.6387,-0.6684,-0.7478,-0.7577,-0.7577,-0.7577,-0.8269,-0.817,-0.6933,-0.7279,-0.7329,-0.6883,-0.6534,-0.6387,-0.6387,-0.6387,-0.6387,-0.6387,-0.7478,-0.7875,-0.7577,-0.7875,-0.8443,-0.918,-0.8687,-0.9552,-1.1487,-1.143,-1.2059,-1.3017,-1.2778,-1.2928,-1.3303,-1.3303,-1.3561,-1.3949,-1.4126,-1.4078,-1.3922,-1.3922,-1.3766,0.0,-1.3287,0.0,-1.306,0.0,0.0,0.0,-1.2813,0.0,0.0,0.0,0.0,0.0,0.0,0.0,0.0,0.0,0.0,0.0,0.0,0.0,0.0,-1.2894,0.0,-1.2835,0.0,-1.2851,0.0,0.0,0.0,0.0,0.0,0.0,0.0,-1.3001,-1.3001,-1.3224,-1.3649,-1.4211,-1.4623,-1.4965,-1.5505,-1.5844,-1.5891,-1.5891,-1.5891,-1.5885,-1.536,-1.5107,-1.5089,-1.5305,-1.5738,-1.6393,-1.7428,-1.8678,-2.0004,-2.0313,-2.0261,-2.0004,-2.0313,-1.9539,-1.8544,-2.0826,-2.114,-2.057,-0.6306,-0.6309,-0.6311,-0.6311,-0.6355,-0.6381,-0.6381,-0.6384,-0.6387,-0.6387,-0.6387,-0.6437,-0.6437,-0.6437,-0.6437,-0.6437,-0.6484,-0.693,-0.7872,-0.7033,-0.6883,-0.7925,-0.6933,-0.6387,-0.6387,-0.6387,-0.6387,-0.6387,-0.7478,-0.7478,-0.6487,-0.7528,-0.8102,-0.8286,-0.9138,-1.0252,-1.1372,-1.1269,-1.1824,-1.2743,-1.1865,-1.2454,-1.3798,0.0,-1.3959,-1.4186,-1.4191,0.0,0.0,-1.4186,-1.4013,0.0,0.0,0.0,0.0,0.0,0.0,0.0,0.0,0.0,0.0,-1.2813,0.0,0.0,0.0,0.0,-1.2813,0.0,0.0,0.0,0.0,0.0,-1.2883,-1.3055,-1.291,0.0,0.0,0.0,0.0,0.0,0.0,0.0,0.0,0.0,-1.2813,-1.2813,-1.2813,-1.291,-1.3109,-1.3607,-1.418,-1.4706,-1.5211,-1.5636,-1.5891,-1.5891,-1.5891,-1.5885,-1.536,-1.5107,-1.5089,-1.4594,-1.4643,-1.5208,-1.6343,-1.7174,-1.7793,-1.8819,-1.8662,-1.7786,-1.8864,-1.7923,-1.6252,-1.8499,-1.928,-1.928,-0.638,-0.638,-0.638,-0.638,-0.6363,-0.6387,-0.6387,-0.6387,-0.6387,-0.6387,-0.6387,-0.6684,-0.7378,-0.6833,-0.6684,-0.7378,-0.6833,-0.6534,-0.693,-0.6584,-0.6584,-0.6933,-0.6584,-0.6387,-0.6387,-0.6387,-0.6387,-0.6387,-0.6783,-0.6734,-0.6387,-0.6783,-0.6956,-0.7048,-0.8095,-0.8744,0.0,0.0,0.0,0.0,0.0,-1.2768,-1.4051,0.0,-1.3976,-1.4196,-1.4196,-1.4196,0.0,-1.4003,-1.389,-1.375,-1.3357,-1.3173,-1.306,-1.2878,-1.2813,0.0,0.0,0.0,-1.2851,-1.2953,0.0,0.0,0.0,0.0,0.0,0.0,0.0,0.0,0.0,0.0,-1.2835,-1.2916,-1.2862,-1.284,0.0,0.0,0.0,0.0,0.0,0.0,0.0,0.0,0.0,-1.2813,-1.2813,-1.2813,-1.291,-1.3353,-1.3802,-1.4174,-1.4671,-1.5199,-1.5636,-1.5636,-1.5737,-1.5885,-1.536,-1.5107,-1.5089,-1.4545,-1.4594,-1.5107,-1.55,-1.6427,-1.7635,-1.7996,-1.7943,-1.7635,-1.7996,-1.7206,-1.6152,-1.8394,-1.8767,-1.8251,-0.6387,-0.6387,-0.6387,-0.6387,-0.6387,-0.6387,-0.6387,-0.6387,-0.6387,-0.6387,-0.6387,-0.672,-0.7465,-0.6972,-0.6853,-0.7662,-0.7064,-0.6632,-0.6632,-0.65,-0.6452,-0.6452,-0.6411,-0.6387,-0.6387,-0.6387,-0.6387,-0.6387,-0.6387,-0.6387,-0.6387,-0.6387,-0.6411,-0.6499,-0.755,-0.8002,-0.8102,-0.8803,-0.9369,0.0,0.0,-1.2788,0.0,0.0,-1.4299,-1.4439,0.0,-1.4439,-1.4417,-1.4256,-1.4143,-1.3992,-1.3513,-1.3303,-1.3173,-1.2905,-1.2813,-1.2813,-1.2813,-1.2813,0.0,-1.2947,-1.2622,0.0,-1.2898,0.0,-1.2214,0.0,0.0,0.0,0.0,0.0,-1.2662,-1.2268,-1.2565,-1.2813,0.0,-1.2122,0.0,0.0,0.0,0.0,0.0,-1.2813,-1.2813,-1.2813,-1.2813,-1.2813,0.0,0.0,-1.3512,-1.3908,-1.4325,-1.4796,-1.5315,-1.5315,-1.5476,-1.5731,-1.5301,-1.5095,-1.5095,-1.4745,-1.4775,-1.5113,-1.5203,-1.5902,-1.7001,-1.7001,-1.7001,-1.7001,-1.7001,-1.6524,-1.6045,-1.7509,-1.7562,-1.71,-0.6387,-0.6387,-0.6387,-0.6387,-0.6387,-0.6387,-0.6387,-0.6387,-0.6389,-0.6395,-0.64,-0.6495,-0.6785,-0.6817,-0.691,-0.7191,-0.7056,-0.6994,-0.6994,-0.6777,-0.6643,-0.6638,-0.6468,-0.64,-0.6395,-0.6389,-0.6387,-0.6387,-0.6387,-0.6387,-0.6387,-0.6387,-0.6449,-0.6657,-0.7588,-0.8056,-0.8146,-0.8197,-0.8823,-0.9914,-1.155,-1.2459,-1.2907,-1.4302,-1.485,-1.4856,-1.4891,-1.4885,-1.488,-1.4859,-1.4702,-1.4378,-1.3954,-1.3653,-1.3389,-1.298,-1.284,-1.2829,-1.2829,-1.2818,-1.2813,-1.2824,0.0,0.0,0.0,0.0,-1.1121,0.0,0.0,0.0,0.0,0.0,0.0,-1.137,-1.2014,-1.2662,-1.271,0.0,-0.9998,0.0,0.0,0.0,0.0,-1.2764,-1.2813,-1.2813,-1.2813,-1.2813,0.0,0.0,-1.3351,-1.3862,-1.4106,-1.4515,-1.4982,-1.4982,-1.5148,-1.5476,-1.5206,-1.5096,-1.5056,-1.5107,-1.5107,-1.5119,-1.5384,-1.565,-1.5891,-1.5891,-1.5891,-1.5891,-1.5891,-1.5891,-1.5891,-1.5891,-1.5891,-1.5891,-0.6387,-0.6387,-0.6387,-0.6387,-0.6387,-0.6387,-0.6387,-0.6387,-0.6419,-0.6559,-0.6651,-0.6766,-0.6921,-0.7013,-0.7144,-0.7204,-0.7182,-0.7166,-0.7166,-0.7106,-0.698,-0.6896,-0.6774,-0.6665,-0.6575,-0.6433,-0.6387,-0.6387,-0.6387,-0.6387,-0.6387,-0.6387,-0.6403,-0.6483,-0.7543,-0.7657,-0.7078,-0.7843,-0.8546,-0.9201,-0.9706,-1.0656,-1.1927,0.0,-1.3844,-1.4118,-1.4661,-1.4885,-1.4832,-1.4487,-1.4331,-1.4202,-1.3717,-1.3529,-1.3453,-1.338,-1.3163,-1.3017,-1.3017,-1.2894,-1.2851,-1.2974,-1.2082,-1.1315,0.0,0.0,0.0,0.0,0.0,0.0,0.0,0.0,0.0,-1.1219,-1.0783,-1.069,-1.1521,0.0,0.0,-1.1072,0.0,0.0,-1.1619,-1.2316,-1.2813,-1.2813,-1.2813,0.0,0.0,0.0,0.0,-1.3612,-1.3689,-1.4022,-1.4708,-1.4713,-1.4874,-1.5148,-1.5094,-1.4993,-1.4796,-1.5005,-1.5107,-1.5119,-1.5384,-1.565,-1.5891,-1.5891,-1.5891,-1.5891,-1.5891,-1.5891,-1.5891,-1.5891,-1.5891,-1.5891,-0.6387,-0.6387,-0.6387,-0.6387,-0.6387,0.0,-0.6387,-0.643,0.0,-0.6611,-0.6774,0.0,-0.7119,-0.7244,-0.7355,-0.7517,-0.7481,-0.7394,-0.7394,-0.7293,-0.7206,-0.7141,-0.6975,-0.685,-0.6782,-0.6605,-0.6465,-0.6465,-0.6414,-0.6387,-0.6387,-0.6387,-0.6387,-0.6437,-0.703,-0.7057,-0.663,-0.7413,-0.7919,-0.8255,-0.902,-0.9844,0.0,-1.2094,-1.2665,-1.291,-1.3337,-1.4132,-1.5004,-1.4745,-1.4514,-1.4277,-1.3906,-1.3717,-1.361,-1.3507,-1.3378,-1.3143,-1.258,-1.2307,-1.2122,-1.1697,-1.0663,-0.9969,-1.0531,-0.9776,-0.8913,0.0,0.0,0.0,0.0,0.0,0.0,-1.0485,-0.9604,-0.9258,0.0,0.0,0.0,0.0,-0.9797,0.0,-1.0435,-1.1922,-1.2813,-1.2813,-1.2813,0.0,0.0,0.0,0.0,-1.3464,-1.348,-1.3811,-1.4444,-1.445,-1.4502,-1.4722,-1.4947,-1.4949,-1.47,-1.5239,-1.539,-1.5294,-1.5559,-1.5753,-1.5891,-1.5891,-1.5891,-1.5891,-1.5891,-1.5891,-1.5891,-1.5891,-1.5891,-1.5891,-0.6387,-0.6387,-0.6387,-0.6387,-0.6398,0.0,0.0,-0.6575,0.0,-0.6684,0.0,-0.7141,-0.7358,-0.7491,-0.7646,-0.7853,-0.778,-0.7725,-0.7725,-0.7524,-0.7399,-0.7328,-0.7173,-0.704,-0.7008,-0.6785,-0.6651,-0.6619,-0.6462,-0.64,-0.6387,-0.6387,-0.6387,-0.6387,-0.6403,0.0,0.0,-0.7032,-0.7247,-0.7434,-0.8778,-0.9367,-0.9516,-1.0895,-1.143,-1.1491,-1.1611,-1.2994,-1.4713,-1.4682,-1.4499,-1.4217,-1.4044,-1.3933,-1.383,-1.3631,-1.355,-1.327,-1.1933,-1.1557,-1.1235,-0.9937,-0.8798,-0.8244,-0.9167,-0.8566,-0.7776,-0.7776,-0.8517,-0.8665,0.0,0.0,0.0,0.0,0.0,0.0,0.0,0.0,0.0,0.0,0.0,0.0,0.0,0.0,0.0,0.0,0.0,0.0,0.0,0.0,0.0,-1.3464,-1.348,-1.3706,-1.4191,0.0,-1.4249,-1.4301,-1.4725,-1.4843,-1.4657,-1.5452,-1.5641,-1.5407,-1.5724,-1.5838,-1.5838,-1.5891,-1.5891,-1.5891,-1.5891,-1.5891,-1.5891,-1.5891,-1.5891,-1.5891,-0.6387,-0.6387,-0.6387,-0.6387,-0.6468,-0.6622,-0.6722,-0.6755,-0.6839,-0.7089,-0.7274,-0.7481,-0.7622,-0.7739,-0.7826,-0.7867,-0.7853,0.0,0.0,0.0,0.0,-0.7641,-0.75,-0.7331,-0.7185,-0.6991,-0.6823,-0.6619,0.0,-0.6484,-0.6387,-0.6387,-0.6387,-0.6389,-0.6492,0.0,-0.6937,-0.7195,0.0,-0.75,-0.7878,-0.8116,-0.8326,-0.9613,-1.0105,-1.0286,-1.131,-1.1916,-1.221,-1.1996,-1.2423,-1.3039,-1.2821,-1.3388,-1.4121,-1.4078,-1.3922,-1.3488,-1.2336,-1.1831,-1.1345,-1.0078,-0.8972,-0.8177,-0.8251,-0.7428,-0.6684,-0.6684,-0.6833,-0.7132,-0.7627,0.0,0.0,0.0,0.0,0.0,0.0,0.0,0.0,0.0,0.0,-0.8418,0.0,0.0,0.0,0.0,0.0,0.0,0.0,0.0,0.0,0.0,-1.348,0.0,0.0,0.0,-1.4229,-1.4239,-1.4535,-1.4562,-1.4294,-1.4904,-1.501,-1.4786,-1.5311,-1.5583,-1.5589,-1.5791,-1.5891,-1.5891,-1.5891,-1.5891,-1.5891,-1.5891,-1.5891,-1.5891,-0.6492,-0.6584,-0.6605,-0.6492,0.0,0.0,0.0,-0.7037,-0.7119,-0.7233,-0.7462,-0.7635,-0.7695,-0.7804,-0.7872,-0.7872,-0.7872,-0.7872,-0.7872,-0.7872,-0.7847,-0.7793,-0.7676,-0.7559,-0.744,-0.7254,-0.7016,-0.6896,0.0,0.0,-0.6481,0.0,0.0,-0.6489,0.0,-0.6907,0.0,0.0,0.0,-0.7625,-0.7741,-0.782,-0.7994,-0.8599,-0.8839,-0.8891,-0.9423,-0.9535,-0.9631,-1.0824,-1.1421,-1.1674,-1.1577,-1.2313,-1.3251,-1.3251,-1.317,-1.2787,-1.1607,-1.0714,-0.9817,-0.856,-0.7795,-0.7367,-0.7301,-0.6832,-0.6387,-0.6387,-0.6387,-0.6534,-0.708,-0.7179,0.0,0.0,0.0,0.0,0.0,0.0,-0.6584,0.0,0.0,0.0,0.0,0.0,0.0,0.0,0.0,-1.2813,0.0,0.0,0.0,0.0,0.0,0.0,0.0,0.0,0.0,-1.4003,-1.4575,-1.4672,-1.4445,-1.5089,-1.5238,-1.5005,-1.5346,-1.5491,-1.5535,-1.5791,-1.5891,-1.5891,-1.5891,-1.5785,-1.569,-1.5838,-1.5785,-1.5684,-0.6676,-0.6736,-0.6779,-0.6709,-0.6796,-0.6948,-0.716,-0.7317,-0.7413,-0.7413,-0.7603,-0.7739,-0.7739,-0.7818,-0.7872,-0.7872,-0.7872,-0.7872,-0.7872,-0.7872,-0.7872,-0.7872,-0.7785,-0.7725,-0.7701,-0.7418,-0.7289,0.0,0.0,0.0,0.0,0.0,0.0,0.0,0.0,0.0,0.0,0.0,-0.751,-0.7633,-0.775,-0.7796,-0.7796,-0.7796,-0.7796,-0.7785,-0.7695,-0.7584,-0.7768,-0.9716,-1.0374,-1.0347,-1.0347,-1.1105,-1.2037,-1.2037,-1.2037,-1.1778,-1.0493,-0.9438,-0.8437,-0.7135,-0.6768,-0.669,-0.6665,-0.6562,-0.6425,-0.6425,-0.6403,-0.6387,-0.6387,-0.6387,0.0,0.0,0.0,0.0,0.0,0.0,-0.6387,0.0,0.0,0.0,-0.8764,0.0,0.0,0.0,0.0,-1.2565,-1.2813,-1.298,-1.3243,0.0,0.0,-1.3965,-1.4261,0.0,-1.4121,-1.3976,-1.4582,-1.4768,-1.4586,-1.5199,-1.5355,-1.5168,-1.5223,-1.5278,-1.5422,-1.563,-1.5731,-1.5731,-1.5731,-1.5577,-1.5428,-1.5684,-1.569,-1.5535,-0.6787,-0.6793,0.0,0.0,0.0,-0.7168,-0.7298,-0.7516,-0.7668,-0.7668,-0.7777,-0.7856,-0.7856,-0.7864,-0.7872,-0.7872,-0.7872,-0.7872,-0.7872,-0.7872,-0.7872,-0.7872,-0.7861,-0.7807,-0.7703,-0.7668,-0.7486,0.0,0.0,-0.6948,0.0,0.0,0.0,0.0,0.0,0.0,0.0,-0.7235,-0.726,-0.7323,-0.7502,-0.7551,-0.7551,-0.7551,-0.7551,-0.7548,-0.754,-0.7456,-0.7353,-0.7578,-0.8273,-0.9085,-0.9085,-0.9908,-1.0836,-1.0836,-1.0836,-1.0613,-0.9395,-0.8954,-0.8591,-0.732,-0.6959,-0.6921,-0.6812,-0.669,-0.6603,-0.6603,-0.6462,-0.6387,-0.6387,-0.6387,-0.6387,0.0,0.0,0.0,0.0,0.0,-0.6387,-0.6387,0.0,0.0,-0.6684,-0.7478,0.0,0.0,-1.0186,-1.1765,-1.2764,-1.298,-1.3313,-1.3776,0.0,-1.404,-1.4443,-1.4299,-1.4288,-1.4416,-1.4514,-1.4525,-1.4503,-1.4602,-1.4499,-1.4331,-1.4591,-1.4843,-1.5041,-1.5095,-1.5089,-1.5089,-1.5089,-1.5095,-1.5095,-1.5422,-1.5535,-1.5482,0.0,0.0,0.0,0.0,0.0,0.0,0.0,-0.7638,-0.7725,-0.7796,-0.7842,-0.7872,-0.7872,-0.7872,-0.7872,-0.7872,-0.7872,-0.7872,-0.7872,-0.7872,-0.7872,-0.7872,-0.7872,-0.785,-0.7804,-0.7736,-0.7595,0.0,0.0,0.0,0.0,0.0,0.0,0.0,0.0,-0.7043,-0.7263,-0.7263,-0.7334,-0.7451,-0.75,-0.7519,-0.7519,-0.7519,-0.7519,-0.7508,-0.7434,-0.732,-0.7269,-0.7252,-0.7527,-0.7873,-0.7873,-0.8699,-0.9633,-0.9633,-0.9633,-0.9523,-0.903,-0.8426,-0.775,-0.7262,-0.7035,-0.6972,-0.6923,-0.6817,-0.6709,-0.6635,-0.647,-0.6387,-0.6387,-0.6387,-0.6387,0.0,0.0,0.0,0.0,0.0,0.0,-0.6387,0.0,-0.6634,-0.7279,-0.7179,0.0,0.0,0.0,-1.137,-1.1814,-1.2815,-1.3416,-1.361,0.0,-1.4137,-1.4326,-1.4089,-1.4089,-1.4331,-1.4416,-1.448,-1.4491,-1.4775,-1.47,-1.439,-1.4564,-1.4654,-1.4767,-1.4928,-1.4987,-1.4987,-1.4987,-1.4874,-1.4821,-1.5095,-1.5101,-1.4934,-0.7201,0.0,-0.7301,0.0,-0.7513,-0.7603,-0.769,-0.7731,-0.7769,-0.7815,-0.785,-0.7872,-0.7872,-0.7872,-0.7872,-0.7872,-0.7872,-0.7872,-0.7872,-0.7872,-0.7872,-0.7872,-0.7839,0.0,-0.782,-0.7706,-0.7587,-0.7464,-0.7464,0.0,0.0,0.0,0.0,0.0,-0.7035,-0.7097,-0.7279,-0.7247,-0.7301,-0.7413,-0.7413,-0.7413,-0.7413,-0.7413,-0.7413,-0.7399,-0.7315,-0.7282,-0.7269,-0.724,-0.721,-0.721,-0.721,-0.7762,-0.8426,-0.8426,-0.8426,-0.8426,-0.8426,-0.7817,-0.721,-0.721,-0.715,-0.7035,-0.7035,-0.6942,-0.682,-0.6698,-0.6575,-0.6438,-0.6438,-0.6411,-0.6387,-0.6387,0.0,0.0,0.0,-0.6387,0.0,-0.6387,-0.6387,-0.6684,-0.7478,-0.6833,0.0,0.0,0.0,0.0,-1.1444,-1.245,0.0,0.0,0.0,0.0,0.0,-1.4019,-1.4019,-1.4196,-1.4428,-1.448,-1.4491,-1.4759,-1.4756,-1.4422,-1.4472,-1.4504,-1.4504,-1.4665,-1.4773,-1.4773,-1.4773,-1.4665,-1.4504,-1.4767,-1.4767,-1.4606,-0.7309,-0.7277,-0.7413,-0.7655,-0.7698,-0.7701,-0.7701,-0.7796,-0.7828,-0.772,-0.7801,-0.7872,-0.7872,-0.7872,-0.7872,-0.7872,-0.7872,-0.7872,-0.7872,-0.7872,-0.7872,0.0,0.0,-0.7703,-0.7703,-0.7584,-0.7462,-0.7282,0.0,0.0,-0.6986,0.0,-0.7048,-0.7204,-0.7035,-0.7048,-0.7204,-0.7037,-0.7056,-0.7215,-0.7215,-0.7215,-0.7215,-0.7215,-0.7215,-0.7215,-0.7213,-0.7213,-0.7213,-0.721,-0.721,-0.721,-0.721,-0.721,-0.721,-0.721,-0.721,-0.721,-0.721,-0.721,-0.721,-0.721,-0.721,-0.721,-0.721,-0.7119,-0.6948,-0.6825,-0.6703,-0.6616,-0.6616,-0.6468,-0.6387,-0.6387,0.0,0.0,0.0,-0.6387,0.0,-0.6387,-0.6387,-0.6387,-0.6437,-0.6387,0.0,0.0,0.0,0.0,0.0,0.0,0.0,-1.4443,-1.4309,0.0,-1.4196,-1.4191,-1.4191,-1.4196,-1.4428,-1.448,-1.4469,-1.4309,-1.4202,-1.4196,-1.4196,-1.4196,-1.4196,-1.4196,-1.4196,-1.4196,-1.4196,-1.4196,-1.4245,-1.4504,-1.4606,-1.4606,-0.7543,-0.7584,-0.7633,-0.779,-0.7818,-0.7818,-0.7818,-0.7847,-0.7858,-0.782,-0.7847,-0.7872,-0.7872,-0.7872,-0.7872,0.0,-0.7872,-0.7839,0.0,-0.7755,-0.772,-0.7633,-0.7595,-0.7576,-0.7576,-0.7538,-0.7459,-0.728,0.0,0.0,0.0,-0.7059,-0.7046,-0.7204,-0.7035,-0.7048,-0.7207,-0.7172,-0.7177,-0.721,-0.721,-0.721,-0.721,-0.721,-0.721,-0.721,-0.721,-0.721,-0.7199,-0.7119,-0.7037,-0.7024,-0.694,-0.7078,-0.721,-0.721,-0.721,-0.721,-0.721,-0.721,-0.721,-0.721,-0.721,-0.721,-0.721,-0.7122,-0.6975,-0.6934,-0.6828,-0.6744,-0.6744,-0.6643,-0.6562,-0.6562,-0.6441,0.0,-0.6387,0.0,-0.6387,-0.6387,-0.6387,-0.6419,-0.6503,-0.6562,0.0,0.0,0.0,0.0,0.0,0.0,0.0,0.0,-1.3976,0.0,-1.4191,-1.3868,-1.3868,-1.4196,-1.4266,-1.4385,-1.4469,-1.4299,-1.4196,-1.4196,-1.4196,-1.4196,-1.4196,-1.4196,-1.4196,-1.4196,-1.4196,-1.4196,-1.4191,-1.4299,-1.4353,-1.4353,-0.7663,-0.7701,-0.7736,-0.785,-0.7872,-0.7872,-0.7872,-0.7872,-0.7872,-0.7872,-0.7872,-0.7872,-0.7872,-0.7834,0.0,-0.7807,-0.7766,-0.7709,-0.7638,-0.7633,-0.76,-0.7521,-0.7475,-0.7429,-0.7383,-0.7339,0.0,-0.7135,-0.7258,-0.7279,-0.7201,-0.7097,-0.7141,-0.7207,-0.7136,-0.7144,-0.721,-0.721,-0.721,-0.721,-0.721,-0.721,-0.721,-0.721,-0.721,-0.721,-0.721,-0.721,-0.7193,-0.7024,-0.7013,-0.7021,-0.6855,-0.6934,-0.7147,-0.7147,-0.7177,-0.721,-0.721,-0.721,-0.721,-0.721,-0.721,-0.721,-0.721,-0.7155,-0.7048,-0.7048,-0.6953,-0.6872,-0.6872,-0.6771,-0.6687,-0.6687,-0.6624,-0.6575,-0.6575,0.0,-0.6575,0.0,0.0,0.0,0.0,-0.6687,-0.6752,0.0,0.0,0.0,0.0,0.0,0.0,-1.3247,-1.3599,0.0,-1.3927,-1.3712,-1.376,-1.4056,-1.4148,-1.4266,-1.4401,-1.4261,-1.4196,-1.4196,-1.4196,-1.4196,-1.4196,-1.4196,-1.4196,-1.4196,-1.4196,-1.4196,-1.4196,-1.4196,-1.4196,-1.4196,-0.769,-0.7712,-0.7747,0.0,-0.7872,0.0,-0.7872,-0.7872,-0.7872,-0.7872,-0.7864,-0.7858,-0.7858,-0.775,-0.7676,-0.7676,0.0,0.0,0.0,-0.7491,-0.7483,-0.7483,-0.7364,-0.7247,-0.7188,-0.7027,-0.6921,-0.6815,-0.6921,-0.698,-0.6999,-0.7152,-0.7202,-0.721,-0.721,-0.721,-0.721,-0.721,-0.721,-0.721,-0.721,-0.721,-0.721,-0.721,-0.721,-0.721,-0.721,-0.721,-0.7193,-0.7024,-0.7056,-0.7158,-0.6874,-0.6885,-0.6986,-0.6986,-0.7114,-0.7199,-0.7207,-0.721,-0.721,-0.721,-0.721,-0.721,-0.721,-0.721,-0.721,-0.721,-0.7125,-0.6997,-0.6997,-0.6896,-0.6815,-0.6815,-0.6806,-0.6801,-0.6801,-0.6801,-0.6801,0.0,0.0,0.0,0.0,-0.6815,-0.6817,0.0,0.0,0.0,0.0,0.0,-1.1014,-1.2335,-1.3275,-1.3701,-1.3502,-1.3717,-1.383,-1.3846,-1.4083,-1.4196,-1.4196,-1.4196,-1.4196,-1.4196,-1.4196,-1.4196,-1.4196,-1.4196,-1.4196,-1.4196,-1.4196,-1.4196,-1.4196,-1.4196,-1.4196,-1.4196,0.0,0.0,-0.7839,-0.7867,-0.7872,-0.7872,-0.7872,-0.7872,-0.7872,-0.7872,-0.7796,-0.7741,-0.7741,-0.7551,-0.7423,-0.7423,-0.7339,-0.7323,-0.7323,-0.7211,-0.7111,-0.7111,-0.6994,-0.6915,-0.6888,-0.6861,-0.6877,-0.6942,-0.6877,-0.6937,-0.7169,-0.7054,-0.7125,-0.721,-0.721,-0.721,-0.721,-0.721,-0.721,-0.721,-0.721,-0.721,-0.721,-0.721,-0.721,-0.721,-0.721,-0.721,-0.7193,-0.7024,-0.7002,-0.6999,-0.685,-0.6885,-0.6986,-0.6986,-0.7005,-0.7046,-0.7185,-0.721,-0.721,-0.721,-0.721,-0.721,-0.721,-0.721,-0.721,-0.721,-0.7188,-0.7169,-0.7169,-0.7021,-0.6942,-0.6942,-0.6864,-0.6801,-0.6801,-0.6801,-0.6801,0.0,-0.6801,-0.6839,-0.6934,-0.6942,-0.6978,0.0,0.0,0.0,0.0,-0.8481,-1.0049,-1.2133,-1.3096,-1.362,-1.3739,-1.3793,-1.3916,-1.4105,-1.4164,-1.4196,-1.4196,-1.4196,-1.4196,-1.4196,-1.4196,-1.4196,-1.4196,-1.4196,-1.4196,-1.4196,-1.4196,-1.4196,-1.4196,-1.4196,-1.4196,-1.4196,-0.7678,-0.7691,-0.7689,-0.7872,-0.7872,-0.7872,-0.7872,-0.7872,-0.7853,-0.7801,-0.7739,-0.7682,-0.7625,-0.7451,-0.728,-0.728,-0.7285,-0.7252,-0.7252,-0.7133,-0.7117,-0.7117,-0.6948,-0.6861,-0.6804,-0.6747,-0.6752,-0.6817,-0.6752,-0.6815,-0.6994,-0.6989,-0.7018,-0.7136,-0.7188,-0.721,-0.721,-0.721,-0.721,-0.721,-0.721,-0.721,-0.721,-0.721,-0.721,-0.721,-0.721,-0.721,-0.7193,-0.7024,-0.6986,-0.6964,-0.6839,-0.6847,-0.6902,-0.6902,-0.6942,-0.6999,-0.7114,-0.713,-0.7144,-0.7196,-0.721,-0.721,-0.721,-0.721,-0.721,-0.721,-0.721,-0.721,-0.721,-0.7158,-0.7117,-0.7117,-0.7008,-0.6964,-0.6964,-0.6964,0.0,-0.6964,-0.6964,-0.6989,-0.7111,-0.7016,-0.701,-0.7128,-0.697,0.0,-0.6983,-0.7996,-0.9387,-1.1129,-1.2273,-1.3164,-1.3767,-1.3933,-1.4062,-1.4196,-1.4196,-1.4196,-1.4196,-1.4196,-1.4196,-1.4196,-1.4196,-1.4196,-1.4196,-1.4196,-1.4196,-1.4196,-1.4196,-1.4196,-1.4196,-1.4196,-1.4196,-1.4196,-0.7327,-0.7327,-0.7385,-0.7689,-0.775,-0.775,-0.7811,-0.7795,-0.7749,-0.7714,-0.7668,-0.7608,-0.7502,-0.7383,-0.7307,-0.7307,-0.7214,-0.721,-0.721,-0.7177,-0.7163,-0.7182,-0.7018,-0.6902,-0.6777,-0.6673,-0.6627,-0.6646,-0.6627,-0.6692,-0.6831,-0.6918,-0.6956,-0.6961,-0.7133,-0.7174,-0.7158,-0.7177,-0.7185,-0.7185,-0.7202,-0.721,-0.721,-0.721,-0.721,-0.721,-0.721,-0.721,-0.7196,-0.7043,-0.6999,-0.6967,-0.6864,-0.6817,-0.6798,-0.6779,-0.685,-0.6934,-0.6953,-0.6972,-0.7008,-0.7161,-0.7196,-0.721,-0.721,-0.721,-0.721,-0.721,-0.721,-0.721,-0.721,-0.721,-0.721,-0.721,-0.721,-0.721,-0.721,0.0,-0.721,-0.721,-0.721,-0.7202,-0.7185,-0.7043,-0.6986,-0.6986,-0.6872,-0.6855,-0.6978,-0.7736,-0.872,-0.9863,-1.1336,-1.2558,-1.3604,-1.381,-1.3916,-1.3916,-1.4137,-1.4196,-1.4196,-1.4196,-1.4196,-1.4196,-1.4196,-1.4196,-1.4196,-1.4196,-1.4196,-1.4196,-1.4196,-1.4196,-1.4196,-1.4196,-1.4196,-1.4196,-0.6962,-0.6962,-0.7023,-0.7021,-0.7082,-0.7143,-0.7447,-0.7364,-0.7415,-0.7644,-0.7521,-0.7328,-0.7309,-0.7255,-0.7237,-0.7237,-0.7221,-0.721,-0.721,-0.6967,-0.6904,-0.7008,-0.6896,-0.6774,-0.6649,-0.663,-0.6671,-0.6774,-0.6671,-0.6736,-0.6956,-0.6869,-0.6831,-0.6836,-0.6956,-0.6953,-0.6864,-0.6967,-0.7013,-0.7021,-0.7172,-0.721,-0.721,-0.721,-0.721,-0.721,-0.721,-0.721,-0.7207,-0.7191,-0.7119,-0.6983,-0.6961,-0.6885,-0.6782,-0.6679,-0.6662,-0.6698,-0.6801,-0.6907,-0.6989,-0.7008,-0.7139,-0.721,-0.721,-0.721,-0.721,-0.721,-0.721,-0.721,-0.721,-0.721,-0.721,-0.721,-0.721,-0.721,-0.721,0.0,-0.721,-0.721,-0.721,-0.7172,-0.7021,-0.6994,-0.6986,-0.6986,-0.6872,-0.6855,-0.6978,-0.7129,-0.7759,-0.8873,-1.0977,-1.2253,-1.2586,-1.2674,-1.2694,-1.2694,-1.3694,-1.4196,-1.4196,-1.4196,-1.4196,-1.4196,-1.4196,-1.4196,-1.4196,-1.4196,-1.4196,-1.4196,-1.4196,-1.4196,-1.4196,-1.4196,-1.4196,-1.4196,-0.665,-0.665,-0.6696,-0.6824,-0.6875,-0.6856,-0.6975,-0.6973,-0.6995,-0.6996,-0.694,-0.6869,-0.675,-0.6748,-0.6715,-0.6715,-0.6824,-0.6935,-0.6935,-0.6999,-0.7018,-0.7128,-0.6902,-0.6714,-0.6473,-0.647,-0.6613,-0.6801,-0.6613,-0.6646,-0.6883,-0.676,-0.6703,-0.6709,-0.6831,-0.6855,-0.6812,-0.6934,-0.6986,-0.6994,-0.7163,-0.721,-0.721,-0.721,-0.721,-0.7202,-0.7141,-0.7158,-0.7191,-0.7008,-0.6931,-0.6885,-0.6885,-0.6801,-0.6692,-0.6635,-0.6619,-0.6632,-0.6687,-0.6793,-0.6902,-0.697,-0.7024,-0.7136,-0.7196,-0.721,-0.721,-0.721,-0.721,-0.721,-0.721,-0.721,-0.721,-0.721,-0.721,0.0,0.0,-0.721,-0.721,-0.721,-0.7155,-0.7043,-0.6991,-0.6926,-0.6912,-0.698,-0.6872,-0.6883,-0.7122,-0.7018,-0.7282,-0.7886,-1.0116,-1.1404,-1.1487,-1.1492,-1.1814,-1.2417,-1.297,-1.3581,-1.4196,-1.4196,-1.4196,-1.4196,-1.4196,-1.4196,-1.4196,-1.4196,-1.4196,-1.4196,-1.4196,-1.4196,-1.4196,-1.4196,-1.4196,-1.4196,-0.579,-0.6031,-0.6252,-0.6478,-0.6524,-0.6499,-0.6478,-0.6572,-0.6551,-0.6443,-0.6474,-0.645,-0.6291,-0.6274,-0.6274,-0.6274,-0.6495,-0.6604,-0.6604,-0.6826,-0.7046,-0.721,-0.6929,-0.67,-0.6433,-0.6457,-0.66,-0.676,-0.66,-0.6603,-0.6757,-0.6662,-0.6619,-0.6624,-0.6717,-0.676,-0.6766,-0.6891,-0.6942,-0.6956,-0.7152,-0.721,-0.721,-0.721,-0.721,-0.7193,-0.7027,-0.7114,-0.7174,-0.6883,-0.6801,-0.6798,-0.6663,-0.6624,-0.6524,-0.6476,-0.6527,-0.6578,-0.6578,-0.6665,-0.679,-0.6912,-0.6964,-0.7016,-0.7185,-0.721,-0.721,-0.721,-0.721,-0.721,-0.721,-0.7188,-0.7169,-0.7169,0.0,0.0,0.0,-0.7193,-0.7199,-0.7174,-0.7117,-0.7005,-0.6948,-0.6907,-0.6912,-0.698,-0.6921,-0.6964,-0.7199,-0.7125,-0.7119,-0.7207,-0.8968,-1.0014,-1.0288,-1.0288,-1.0726,-1.1596,-1.1869,-1.2639,-1.3802,-1.3802,-1.3916,-1.4196,-1.4196,-1.4196,-1.4196,-1.4196,-1.4196,-1.4196,-1.4196,-1.4196,-1.4196,-1.4196,-1.4196,-1.4196,-0.4083,-0.4956,-0.5661,-0.5714,-0.5712,-0.577,-0.6118,-0.6105,-0.6157,-0.6367,-0.6348,-0.6291,-0.6277,-0.6274,-0.6274,-0.6274,-0.633,-0.633,-0.633,-0.633,-0.6606,-0.7154,-0.6929,-0.6741,-0.6608,-0.6717,-0.6728,-0.6632,-0.6728,-0.6725,-0.6632,-0.6624,-0.6619,-0.6619,-0.663,-0.6632,-0.6641,-0.6763,-0.6817,-0.6836,-0.7117,-0.721,-0.721,-0.721,-0.721,-0.7193,-0.7027,-0.7114,-0.7174,-0.6883,-0.6801,-0.6729,-0.6362,-0.6347,-0.635,-0.6102,-0.6203,-0.64,-0.64,-0.6489,-0.6662,-0.6785,-0.6902,-0.7016,-0.7185,-0.721,-0.721,-0.721,-0.721,-0.721,-0.721,-0.7122,-0.6997,-0.6997,0.0,0.0,-0.6997,-0.7144,-0.7169,-0.701,-0.7139,-0.7111,-0.6836,-0.7005,-0.7144,-0.6991,-0.7128,-0.7191,-0.721,-0.7202,-0.7202,-0.721,-0.7376,-0.7983,-0.903,-0.903,-0.9085,-0.9196,-1.0288,-1.1433,-1.2526,-1.2526,-1.3137,-1.4196,-1.4196,-1.4196,-1.4196,-1.4196,-1.4196,-1.4196,-1.4196,-1.4196,-1.4196,-1.4196,-1.4196,-1.4196,-0.274,-0.3727,-0.4513,-0.4409,-0.508,-0.5608,-0.5671,-0.572,-0.5747,-0.5858,-0.5873,-0.5866,-0.5805,-0.5799,-0.5777,-0.5721,-0.5882,-0.5991,-0.5991,-0.6161,-0.6325,-0.6457,-0.6371,-0.6292,-0.6209,-0.6372,-0.655,-0.6733,-0.6703,-0.6703,-0.6728,-0.6578,-0.6406,-0.6207,-0.6207,-0.6154,-0.6012,-0.6195,-0.6326,-0.6346,-0.6571,-0.6659,-0.6654,-0.6526,-0.6543,-0.6637,-0.6455,-0.6462,-0.6466,-0.6243,-0.6274,-0.6412,-0.6144,-0.6128,-0.6089,-0.5837,-0.5837,-0.5902,-0.6022,-0.6222,-0.6554,-0.6752,-0.6836,-0.6921,-0.7166,-0.721,-0.721,-0.721,-0.721,-0.721,-0.721,-0.7174,-0.7144,-0.7144,0.0,-0.7144,-0.7144,-0.7122,-0.7114,-0.7141,-0.6999,-0.6931,-0.6918,-0.6997,-0.7117,-0.7144,-0.7185,-0.7243,-0.7263,-0.7251,-0.721,-0.721,-0.721,-0.7432,-0.7817,-0.7873,-0.8205,-0.8923,-0.9361,-1.0178,-1.1328,-1.1328,-1.1982,-1.3083,-1.3083,-1.3527,-1.4196,-1.4196,-1.4196,-1.4196,-1.4196,-1.4196,-1.4196,-1.4196,-1.4196,-1.4196,-0.1352,-0.2392,-0.3178,-0.3101,-0.3821,-0.4351,-0.4278,-0.4696,-0.4977,-0.4921,-0.5313,-0.555,-0.5518,-0.5508,-0.5473,-0.539,-0.5547,-0.5656,-0.5656,-0.5882,-0.6014,-0.6018,-0.6008,-0.5959,-0.5894,-0.5999,-0.6179,-0.6427,-0.6383,-0.6385,-0.6425,-0.6212,-0.6057,-0.5941,-0.5904,-0.5806,-0.5696,-0.5879,-0.6008,-0.6028,-0.6244,-0.6274,-0.6267,-0.6193,-0.621,-0.6246,-0.6088,-0.6024,-0.6077,-0.5829,-0.5872,-0.6038,-0.5826,-0.5766,-0.5792,-0.5686,-0.5686,-0.5694,-0.5734,-0.5944,-0.6202,-0.6524,-0.6563,-0.6597,-0.6882,-0.6935,-0.6935,-0.6935,-0.6935,-0.6935,-0.7046,-0.7043,-0.7099,-0.721,-0.7243,-0.7211,-0.7211,-0.7179,-0.7152,-0.721,-0.7078,-0.7016,-0.6989,-0.7086,-0.7154,-0.721,-0.7245,-0.723,-0.7277,-0.7198,-0.721,-0.721,-0.721,-0.721,-0.721,-0.721,-0.7595,-0.8367,-0.8367,-0.8972,-1.0127,-1.0127,-1.0781,-1.1873,-1.1873,-1.2531,-1.3635,-1.3635,-1.3862,-1.4196,-1.4196,-1.4196,-1.4196,-1.4196,-1.4196,-1.4196,0.0,-0.0953,-0.1745,-0.1717,-0.1723,-0.1674,-0.1701,-0.2822,-0.3704,-0.3704,-0.4762,-0.5552,-0.5518,-0.5451,-0.5473,-0.539,-0.5382,-0.5382,-0.5382,-0.5382,-0.5575,-0.5967,-0.6008,-0.5855,-0.5591,-0.5741,-0.5744,-0.5586,-0.5744,-0.5741,-0.5586,-0.5586,-0.5691,-0.5789,-0.5634,-0.5694,-0.5801,-0.591,-0.6008,-0.6025,-0.6189,-0.6274,-0.6274,-0.6274,-0.6274,-0.6246,-0.6088,-0.6024,-0.6065,-0.5693,-0.5708,-0.5726,-0.5321,-0.5309,-0.544,-0.5693,-0.5796,-0.5772,-0.5615,-0.5586,-0.5664,-0.6034,-0.6034,-0.6066,-0.6282,-0.6274,-0.6274,-0.6277,-0.6277,-0.6386,-0.6662,-0.6717,-0.6826,-0.7157,-0.7258,-0.728,-0.728,-0.7382,-0.7426,-0.724,-0.7369,-0.7375,-0.7021,-0.7309,-0.7415,-0.7229,-0.7266,-0.7282,-0.7218,-0.721,-0.721,-0.721,-0.721,-0.721,-0.721,-0.721,-0.721,-0.721,-0.721,-0.7817,-0.8865,-0.8865,-0.9523,-1.0672,-1.0672,-1.1324,-1.2413,-1.2413,-1.3083,-1.4196,-1.4196,-1.4196,-1.4196,-1.4196,-1.4191,-1.4191,0.1334,0.0345,-0.0515,-0.0466,-0.1178,-0.1776,-0.1707,-0.2076,-0.2389,-0.2389,-0.2687,-0.3265,-0.415,-0.3501,-0.3637,-0.5282,-0.4648,-0.448,-0.5326,-0.5382,-0.5439,-0.5424,-0.5409,-0.542,-0.5449,-0.5476,-0.5576,-0.5748,-0.5779,-0.5779,-0.5746,-0.5622,-0.5502,-0.5383,-0.5354,-0.5253,-0.5088,-0.5302,-0.5334,-0.5296,-0.5556,-0.562,-0.5505,-0.5505,-0.5505,-0.5496,-0.5439,-0.5405,-0.5313,-0.5294,-0.5319,-0.5379,-0.5249,-0.5212,-0.5234,-0.5128,-0.5175,-0.5238,-0.5224,-0.5235,-0.5359,-0.5926,-0.6032,-0.6066,-0.6282,-0.6274,-0.6293,-0.6365,-0.6377,-0.6401,-0.6532,-0.6544,-0.6601,-0.6717,-0.6744,-0.6766,-0.6766,-0.6834,-0.6932,-0.6943,-0.7033,-0.7135,-0.7161,-0.7256,-0.7289,-0.7215,-0.7243,-0.7248,-0.7213,-0.721,-0.721,-0.721,-0.721,-0.721,-0.721,-0.721,-0.721,-0.721,-0.721,-0.7376,-0.7706,-0.7706,-0.8312,-0.9412,-0.9412,-1.0123,-1.1219,-1.1219,-1.1437,-1.1714,-1.1714,-1.1714,-1.1714,-1.1714,-1.2259,-1.2916,0.188,0.1285,0.0758,0.0829,0.018,-0.0301,-0.024,-0.0725,-0.1093,-0.1093,-0.1578,-0.2167,-0.2887,-0.2352,-0.2438,-0.3876,-0.3302,-0.3414,-0.4592,-0.4704,-0.4627,-0.4579,-0.4501,-0.4744,-0.5291,-0.5289,-0.5339,-0.5545,-0.5507,-0.5507,-0.5543,-0.535,-0.5207,-0.5143,-0.5054,-0.4937,-0.4794,-0.4992,-0.5022,-0.5041,-0.5192,-0.5241,-0.5138,-0.5138,-0.5138,-0.5132,-0.5151,-0.509,-0.5028,-0.5047,-0.511,-0.515,-0.515,-0.5178,-0.5141,-0.4961,-0.4953,-0.5022,-0.5006,-0.4686,-0.4546,-0.5406,-0.5667,-0.5739,-0.5901,-0.5969,-0.601,-0.6009,-0.6051,-0.6156,-0.6336,-0.638,-0.6464,-0.6584,-0.662,-0.6648,-0.6648,-0.6715,-0.6759,-0.6781,-0.6841,-0.692,-0.6891,-0.6888,-0.6926,-0.6993,-0.699,-0.7046,-0.721,-0.721,-0.721,-0.721,-0.721,-0.721,-0.721,-0.721,-0.721,-0.721,-0.721,-0.721,-0.721,-0.721,-0.7595,-0.8205,-0.8205,-0.8916,-0.9962,-0.9962,-1.0288,-1.0726,-1.0726,-1.0726,-1.0726,-1.0726,-1.1164,-1.171,0.1884,0.189,0.1899,0.193,0.1935,0.1945,0.1973,0.0987,0.0185,0.0185,-0.0862,-0.1644,-0.1715,-0.1648,-0.1627,-0.18,-0.1793,-0.2239,-0.3357,-0.3413,-0.3413,-0.3413,-0.3362,-0.3799,-0.4759,-0.4902,-0.4894,-0.4788,-0.4814,-0.4816,-0.4784,-0.4576,-0.4591,-0.4707,-0.4577,-0.4489,-0.4537,-0.4779,-0.4812,-0.4709,-0.4909,-0.4943,-0.4937,-0.4839,-0.489,-0.4927,-0.4906,-0.4818,-0.4755,-0.4736,-0.4818,-0.4935,-0.4829,-0.499,-0.5134,-0.481,-0.4831,-0.4923,-0.471,-0.3911,-0.3386,-0.4621,-0.4934,-0.4958,-0.5318,-0.5451,-0.5512,-0.5529,-0.5598,-0.5718,-0.6025,-0.6153,-0.633,-0.6575,-0.6715,-0.6839,-0.6839,-0.6823,-0.6775,-0.6679,-0.6712,-0.6683,-0.6427,-0.6408,-0.6483,-0.6667,-0.6659,-0.6824,-0.7099,-0.7154,-0.7154,-0.7154,-0.7154,-0.7154,-0.721,-0.7154,-0.7154,-0.721,-0.721,-0.721,-0.721,-0.721,-0.721,-0.721,-0.721,-0.7762,-0.8758,-0.8758,-0.9412,-1.0398,-1.0398,-1.0398,-1.0398,-1.0398,-1.0453,-1.0562,0.1915,0.1922,0.1931,0.1962,0.1967,0.1969,0.1975,0.1729,0.1543,0.1543,0.1296,0.0735,-0.024,0.0534,0.0292,-0.1544,-0.1749,-0.1903,-0.2183,-0.2183,-0.2183,-0.2183,-0.2175,-0.2278,-0.2492,-0.3291,-0.3244,-0.2285,-0.3231,-0.3178,-0.2285,-0.2214,-0.2246,-0.2327,-0.2318,-0.2296,-0.2371,-0.334,-0.3184,-0.2441,-0.3414,-0.3799,-0.3704,-0.2909,-0.3056,-0.3756,-0.3796,-0.3177,-0.235,-0.232,-0.2906,-0.349,-0.2602,-0.3601,-0.4707,-0.2852,-0.3016,-0.3736,-0.3707,-0.2925,-0.2366,-0.3538,-0.317,-0.3012,-0.5019,-0.5494,-0.5549,-0.5692,-0.5737,-0.5774,-0.5906,-0.5995,-0.601,-0.6071,-0.6088,-0.6103,-0.6103,-0.6217,-0.6291,-0.621,-0.6359,-0.6358,-0.6312,-0.6305,-0.6354,-0.6386,-0.6386,-0.6439,-0.6495,-0.6715,-0.6824,-0.6824,-0.6824,-0.6935,-0.721,-0.6935,-0.6935,-0.721,-0.721,-0.721,-0.721,-0.721,-0.721,-0.721,-0.721,-0.7321,-0.7595,-0.7595,-0.7706,-0.798,-0.798,-0.798,-0.798,-0.798,-0.8533,-0.9412,0.1947,0.1953,0.1958,0.1974,0.1977,0.1977,0.1977,0.1977,0.1977,0.1977,0.1977,0.1718,0.1026,0.1497,0.1357,0.0058,-0.0057,-0.0336,-0.0896,-0.0953,-0.0953,-0.0953,-0.0953,-0.0672,-0.0112,-0.1156,-0.169,-0.1635,-0.2235,-0.2189,-0.1599,-0.1519,-0.156,-0.1611,-0.1584,-0.1564,-0.1603,-0.2277,-0.2162,-0.1635,-0.2324,-0.2579,-0.2508,-0.1963,-0.2062,-0.256,-0.2584,-0.2164,-0.164,-0.1684,-0.2071,-0.2442,-0.1858,-0.2509,-0.3215,-0.1948,-0.203,-0.2558,-0.2537,-0.1692,-0.1167,-0.2315,-0.1711,-0.1549,-0.4014,-0.4644,-0.4886,-0.5586,-0.5786,-0.5861,-0.5908,-0.5916,-0.5916,-0.5916,-0.5916,-0.5902,-0.5859,-0.5929,-0.6,-0.5954,-0.6037,-0.5996,-0.5901,-0.5909,-0.5938,-0.6049,-0.6049,-0.6105,-0.6274,-0.6439,-0.6495,-0.6495,-0.6495,-0.6604,-0.6771,-0.6604,-0.6604,-0.6771,-0.7046,-0.721,-0.721,-0.721,-0.721,-0.721,-0.721,-0.721,-0.721,-0.721,-0.721,-0.721,-0.721,-0.721,-0.721,-0.721,-0.7595,-0.8202,0.1971,0.1977,0.1977,0.1977,0.1977,0.1977,0.1977,0.1977,0.1977,0.1977,0.1972,0.1959,0.1934,0.1861,0.1834,0.178,0.181,0.1402,0.0393,0.028,0.028,0.028,0.028,0.0785,0.1795,0.0841,-0.0168,-0.1176,-0.1288,-0.1242,-0.109,-0.1004,-0.0942,-0.1007,-0.0978,-0.0962,-0.0956,-0.1203,-0.1196,-0.1038,-0.1224,-0.1319,-0.1271,-0.1112,-0.1162,-0.1317,-0.1312,-0.1379,-0.1358,-0.1237,-0.1306,-0.1419,-0.1201,-0.1433,-0.1663,-0.1077,-0.1135,-0.1366,-0.1292,-0.0434,0.011,-0.1064,-0.0512,-0.023,-0.2419,-0.3183,-0.3781,-0.5047,-0.5264,-0.5298,-0.5544,-0.5546,-0.5546,-0.5546,-0.5732,-0.5892,-0.5814,-0.5843,-0.5847,-0.5788,-0.5753,-0.5667,-0.5502,-0.5422,-0.5491,-0.5712,-0.5712,-0.588,-0.6107,-0.6163,-0.6219,-0.6219,-0.6219,-0.6219,-0.6274,-0.6219,-0.6219,-0.633,-0.6826,-0.7046,-0.7099,-0.7154,-0.721,-0.721,-0.721,-0.721,-0.721,-0.721,-0.721,-0.721,-0.721,-0.721,-0.721,-0.721,-0.721,-0.721,0.1971,0.1977,0.1977,0.1977,0.1977,0.1977,0.1977,0.1977,0.1977,0.1977,0.1954,0.1936,0.1871,0.1825,0.1838,0.1804,0.1797,0.1739,0.157,0.157,0.157,0.157,0.157,0.1627,0.1795,0.1627,0.1458,0.129,0.028,0.0339,0.1322,0.1373,0.1362,0.1346,0.1339,0.1314,0.1224,0.0265,0.0424,0.1165,0.0156,-0.0156,-0.0053,0.0818,0.0612,-0.0206,-0.0203,-0.0206,0.0,0.0907,0.0594,0.0,0.1038,-0.0055,-0.1313,0.0763,0.0606,-0.0223,-0.0223,0.0669,0.1291,0.0057,0.0695,0.1291,-0.0059,-0.1247,-0.2473,-0.3842,-0.3251,-0.2893,-0.3937,-0.4183,-0.4183,-0.4183,-0.5174,-0.5912,-0.59,-0.5774,-0.5706,-0.5772,-0.5641,-0.5506,-0.5408,-0.5388,-0.5437,-0.5437,-0.5437,-0.5493,-0.5493,-0.5768,-0.588,-0.588,-0.588,-0.5991,-0.6274,-0.5991,-0.5991,-0.6274,-0.6386,-0.655,-0.6768,-0.7046,-0.721,-0.721,-0.721,-0.721,-0.721,-0.721,-0.721,-0.721,-0.721,-0.721,-0.721,-0.721,-0.721,-0.721,0.1974,0.1977,0.1977,0.1977,0.1977,0.1977,0.1977,0.1977,0.1977,0.1977,0.195,0.1938,0.1954,0.1917,0.1879,0.1849,0.1846,0.1832,0.1797,0.1811,0.1812,0.1795,0.1795,0.1795,0.1795,0.1795,0.1804,0.1821,0.1251,0.1319,0.1866,0.1866,0.1859,0.1845,0.1827,0.1796,0.1699,0.1248,0.1297,0.1727,0.1166,0.0952,0.1063,0.1466,0.1351,0.0933,0.0925,0.0984,0.1053,0.1557,0.1467,0.115,0.1659,0.1109,0.0443,0.1497,0.1449,0.1009,0.1009,0.1412,0.1652,0.1147,0.1455,0.1771,0.125,0.0659,-0.0302,-0.2305,-0.2325,-0.2154,-0.2707,-0.283,-0.3076,-0.3815,-0.4369,-0.5033,-0.5726,-0.5772,-0.5716,-0.5706,-0.5588,-0.5492,-0.5455,-0.5408,-0.5382,-0.5382,-0.5382,-0.5382,-0.5382,-0.5491,-0.5603,-0.5603,-0.5603,-0.5659,-0.5772,-0.5659,-0.5659,-0.5772,-0.5938,-0.6158,-0.6495,-0.6606,-0.6771,-0.6935,-0.6935,-0.7043,-0.721,-0.721,-0.721,-0.721,-0.721,-0.721,-0.721,-0.721,-0.721,-0.721]}]]